Time,TemperatureF,DewpointF,PressureIn,WindDirection,WindDirectionDegrees,WindSpeedMPH,WindSpeedGustMPH,Humidity,HourlyPrecipIn,Conditions,Clouds,dailyrainin,SolarRadiationWatts/m^2,SoftwareType,DateUTC
2012-11-07 00:00:00,57.3,54.7,29.89,NNW,334,0.0,1.0,91,0.00,,---,0.00,0.00,VWS V14.01,2012-11-07 05:00:00,
2012-11-07 00:01:00,57.3,54.7,29.88,NNW,334,0.0,0.0,91,0.00,,---,0.00,0.00,VWS V14.01,2012-11-07 05:01:00,
2012-11-07 00:02:00,57.3,54.7,29.88,NNW,334,0.0,0.0,91,0.00,,---,0.00,0.00,VWS V14.01,2012-11-07 05:02:00,
2012-11-07 00:03:00,57.3,54.7,29.88,NNW,334,0.0,1.0,91,0.00,,---,0.00,0.00,VWS V14.01,2012-11-07 05:03:00,
2012-11-07 00:04:00,57.2,54.6,29.88,NNW,334,0.0,0.0,91,0.00,,---,0.00,0.00,VWS V14.01,2012-11-07 05:04:00,
2012-11-07 00:05:00,57.2,54.6,29.88,NNW,334,0.0,0.0,91,0.00,,---,0.00,0.00,VWS V14.01,2012-11-07 05:05:00,
2012-11-07 00:06:00,57.2,54.6,29.88,NNW,334,0.0,0.0,91,0.00,,---,0.00,0.00,VWS V14.01,2012-11-07 05:06:00,
2012-11-07 00:07:00,57.1,54.5,29.88,NNW,334,0.0,0.0,91,0.00,,---,0.00,0.00,VWS V14.01,2012-11-07 05:07:00,
2012-11-07 00:08:00,57.3,54.7,29.88,NNW,334,0.0,1.0,91,0.00,,---,0.00,0.00,VWS V14.01,2012-11-07 05:08:00,
2012-11-07 00:09:00,57.0,54.4,29.88,NNW,334,0.0,0.0,91,0.00,,---,0.00,0.00,VWS V14.01,2012-11-07 05:09:00,
2012-11-07 00:10:00,57.0,54.4,29.88,NNW,334,0.0,0.0,91,0.00,,---,0.00,0.00,VWS V14.01,2012-11-07 05:10:00,
2012-11-07 00:11:00,57.0,54.4,29.88,NNW,334,0.0,0.0,91,0.00,,---,0.00,0.00,VWS V14.01,2012-11-07 05:11:00,
2012-11-07 00:12:00,56.9,54.3,29.88,NNW,334,0.0,0.0,91,0.00,,---,0.00,0.00,VWS V14.01,2012-11-07 05:12:00,
2012-11-07 00:13:00,57.2,54.6,29.88,NNW,334,0.0,0.0,91,0.00,,---,0.00,0.00,VWS V14.01,2012-11-07 05:13:00,
2012-11-07 00:14:00,56.9,54.6,29.88,NNW,334,0.0,0.0,92,0.00,,---,0.00,0.00,VWS V14.01,2012-11-07 05:14:00,
2012-11-07 00:15:00,56.9,54.6,29.88,NNW,334,0.0,0.0,92,0.00,,---,0.00,0.00,VWS V14.01,2012-11-07 05:15:00,
2012-11-07 00:16:00,56.8,54.5,29.88,NNW,334,0.0,0.0,92,0.00,,---,0.00,0.00,VWS V14.01,2012-11-07 05:16:00,
2012-11-07 00:17:00,56.8,54.5,29.88,NNW,334,0.0,0.0,92,0.00,,---,0.00,0.00,VWS V14.01,2012-11-07 05:17:00,
2012-11-07 00:18:00,57.1,54.5,29.88,NNW,334,0.0,0.0,91,0.00,,---,0.00,0.00,VWS V14.01,2012-11-07 05:18:00,
2012-11-07 00:19:00,56.8,54.5,29.88,NNW,334,0.0,0.0,92,0.00,,---,0.00,0.00,VWS V14.01,2012-11-07 05:19:00,
2012-11-07 00:20:00,56.8,54.5,29.88,NNW,334,0.0,0.0,92,0.00,,---,0.00,0.00,VWS V14.01,2012-11-07 05:20:00,
2012-11-07 00:21:00,56.8,54.5,29.88,NNW,334,0.0,0.0,92,0.00,,---,0.00,0.00,VWS V14.01,2012-11-07 05:21:00,
2012-11-07 00:22:00,56.7,54.4,29.88,NNW,334,0.0,0.0,92,0.00,,---,0.00,0.00,VWS V14.01,2012-11-07 05:22:00,
2012-11-07 00:23:00,56.9,54.6,29.88,NNW,334,0.0,0.0,92,0.00,,---,0.00,0.00,VWS V14.01,2012-11-07 05:23:00,
2012-11-07 00:24:00,56.7,54.4,29.87,NNW,334,0.0,0.0,92,0.00,,---,0.00,0.00,VWS V14.01,2012-11-07 05:24:00,
2012-11-07 00:25:00,56.7,54.4,29.87,NNW,334,0.0,0.0,92,0.00,,---,0.00,0.00,VWS V14.01,2012-11-07 05:25:00,
2012-11-07 00:26:00,56.7,54.4,29.87,NNW,334,0.0,0.0,92,0.00,,---,0.00,0.00,VWS V14.01,2012-11-07 05:26:00,
2012-11-07 00:27:00,56.6,54.3,29.88,NNW,334,0.0,0.0,92,0.00,,---,0.00,0.00,VWS V14.01,2012-11-07 05:27:00,
2012-11-07 00:28:00,56.8,54.5,29.88,NNW,334,0.0,0.0,92,0.00,,---,0.00,0.00,VWS V14.01,2012-11-07 05:28:00,
2012-11-07 00:29:00,56.6,54.3,29.88,NNW,334,0.0,0.0,92,0.00,,---,0.00,0.00,VWS V14.01,2012-11-07 05:29:00,
2012-11-07 00:30:00,56.5,54.2,29.88,NNW,334,0.0,0.0,92,0.00,,---,0.00,0.00,VWS V14.01,2012-11-07 05:30:00,
2012-11-07 00:31:00,56.5,54.2,29.87,NNW,334,0.0,0.0,92,0.00,,---,0.00,0.00,VWS V14.01,2012-11-07 05:31:00,
2012-11-07 00:32:00,56.4,54.1,29.88,NNW,334,0.0,0.0,92,0.00,,---,0.00,0.00,VWS V14.01,2012-11-07 05:32:00,
2012-11-07 00:33:00,56.4,54.1,29.88,NNW,334,0.0,0.0,92,0.00,,---,0.00,0.00,VWS V14.01,2012-11-07 05:33:00,
2012-11-07 00:34:00,56.7,54.4,29.87,NNW,334,0.0,0.0,92,0.00,,---,0.00,0.00,VWS V14.01,2012-11-07 05:34:00,
2012-11-07 00:35:00,56.3,54.0,29.87,NNW,334,0.0,0.0,92,0.00,,---,0.00,0.00,VWS V14.01,2012-11-07 05:35:00,
2012-11-07 00:36:00,56.2,53.9,29.87,NNW,334,0.0,0.0,92,0.00,,---,0.00,0.00,VWS V14.01,2012-11-07 05:36:00,
2012-11-07 00:37:00,56.2,53.9,29.87,NNW,334,0.0,0.0,92,0.00,,---,0.00,0.00,VWS V14.01,2012-11-07 05:37:00,
2012-11-07 00:38:00,56.2,53.9,29.87,NNW,334,0.0,0.0,92,0.00,,---,0.00,0.00,VWS V14.01,2012-11-07 05:38:00,
2012-11-07 00:39:00,56.5,54.2,29.88,NNW,334,0.0,0.0,92,0.00,,---,0.00,0.00,VWS V14.01,2012-11-07 05:39:00,
2012-11-07 00:40:00,56.1,53.8,29.87,NNW,334,0.0,0.0,92,0.00,,---,0.00,0.00,VWS V14.01,2012-11-07 05:40:00,
2012-11-07 00:41:00,56.0,53.7,29.87,NNW,334,0.0,0.0,92,0.00,,---,0.00,0.00,VWS V14.01,2012-11-07 05:41:00,
2012-11-07 00:42:00,56.0,53.7,29.87,NNW,334,0.0,0.0,92,0.00,,---,0.00,0.00,VWS V14.01,2012-11-07 05:42:00,
2012-11-07 00:43:00,55.9,53.9,29.87,NNW,334,0.0,0.0,93,0.00,,---,0.00,0.00,VWS V14.01,2012-11-07 05:43:00,
2012-11-07 00:44:00,56.3,54.0,29.87,NNW,334,0.0,0.0,92,0.00,,---,0.00,0.00,VWS V14.01,2012-11-07 05:44:00,
2012-11-07 00:45:00,55.9,53.9,29.87,NNW,334,0.0,0.0,93,0.00,,---,0.00,0.00,VWS V14.01,2012-11-07 05:45:00,
2012-11-07 00:46:00,55.9,53.9,29.87,NNW,334,0.0,0.0,93,0.00,,---,0.00,0.00,VWS V14.01,2012-11-07 05:46:00,
2012-11-07 00:47:00,55.9,53.9,29.87,NNW,334,0.0,0.0,93,0.00,,---,0.00,0.00,VWS V14.01,2012-11-07 05:47:00,
2012-11-07 00:48:00,55.9,53.9,29.87,NNW,334,1.0,2.0,93,0.00,,---,0.00,0.00,VWS V14.01,2012-11-07 05:48:00,
2012-11-07 00:49:00,56.1,53.8,29.87,NNW,334,0.0,0.0,92,0.00,,---,0.00,0.00,VWS V14.01,2012-11-07 05:49:00,
2012-11-07 00:50:00,55.9,53.9,29.87,NW,326,1.0,2.0,93,0.00,,---,0.00,0.00,VWS V14.01,2012-11-07 05:50:00,
2012-11-07 00:51:00,56.0,54.0,29.87,NNW,327,2.0,3.0,93,0.00,,---,0.00,0.00,VWS V14.01,2012-11-07 05:51:00,
2012-11-07 00:52:00,56.1,54.4,29.87,NNW,345,3.0,3.0,94,0.00,,---,0.00,0.00,VWS V14.01,2012-11-07 05:52:00,
2012-11-07 00:53:00,56.3,54.6,29.88,North,352,5.0,5.0,94,0.00,,---,0.00,0.00,VWS V14.01,2012-11-07 05:53:00,
2012-11-07 00:54:00,55.9,53.9,29.87,NNW,334,0.0,0.0,93,0.00,,---,0.00,0.00,VWS V14.01,2012-11-07 05:54:00,
2012-11-07 00:55:00,56.6,54.9,29.88,NW,324,1.0,5.0,94,0.00,,---,0.00,0.00,VWS V14.01,2012-11-07 05:55:00,
2012-11-07 00:56:00,56.8,55.1,29.88,NNW,329,2.0,5.0,94,0.00,,---,0.00,0.00,VWS V14.01,2012-11-07 05:56:00,
2012-11-07 00:57:00,57.0,55.3,29.88,NNW,333,2.0,5.0,94,0.00,,---,0.00,0.00,VWS V14.01,2012-11-07 05:57:00,
2012-11-07 00:58:00,57.2,55.5,29.88,NNW,330,2.0,5.0,94,0.00,,---,0.00,0.00,VWS V14.01,2012-11-07 05:58:00,
2012-11-07 00:59:00,55.9,53.9,29.87,NNW,334,1.0,2.0,93,0.00,,---,0.00,0.00,VWS V14.01,2012-11-07 05:59:00,
2012-11-07 01:00:00,57.5,55.5,29.88,NW,324,3.0,3.0,93,0.00,,---,0.00,0.00,VWS V14.01,2012-11-07 06:00:00,
2012-11-07 01:01:00,57.6,55.6,29.88,NW,324,3.0,4.0,93,0.00,,---,0.00,0.00,VWS V14.01,2012-11-07 06:01:00,
2012-11-07 01:02:00,57.8,55.8,29.88,NNW,333,2.0,5.0,93,0.00,,---,0.00,0.00,VWS V14.01,2012-11-07 06:02:00,
2012-11-07 01:03:00,58.0,56.0,29.88,NW,318,5.0,7.0,93,0.00,,---,0.00,0.00,VWS V14.01,2012-11-07 06:03:00,
2012-11-07 01:04:00,56.6,54.9,29.88,NW,324,2.0,5.0,94,0.00,,---,0.00,0.00,VWS V14.01,2012-11-07 06:04:00,
2012-11-07 01:05:00,58.3,56.0,29.88,NNW,348,4.0,9.0,92,0.00,,---,0.00,0.00,VWS V14.01,2012-11-07 06:05:00,
2012-11-07 01:06:00,58.4,56.1,29.88,North,356,3.0,9.0,92,0.00,,---,0.00,0.00,VWS V14.01,2012-11-07 06:06:00,
2012-11-07 01:07:00,58.6,56.3,29.88,NNW,335,3.0,9.0,92,0.00,,---,0.00,0.00,VWS V14.01,2012-11-07 06:07:00,
2012-11-07 01:08:00,58.8,56.5,29.88,NNW,339,4.0,9.0,92,0.00,,---,0.00,0.00,VWS V14.01,2012-11-07 06:08:00,
2012-11-07 01:09:00,57.5,55.8,29.88,NW,326,3.0,3.0,94,0.00,,---,0.00,0.00,VWS V14.01,2012-11-07 06:09:00,
2012-11-07 01:10:00,59.1,56.8,29.88,NNE,25,4.0,9.0,92,0.00,,---,0.00,0.00,VWS V14.01,2012-11-07 06:10:00,
2012-11-07 01:11:00,59.1,56.8,29.88,NNW,336,6.0,9.0,92,0.00,,---,0.00,0.00,VWS V14.01,2012-11-07 06:11:00,
2012-11-07 01:12:00,59.3,57.0,29.88,NW,310,4.0,9.0,92,0.00,,---,0.00,0.00,VWS V14.01,2012-11-07 06:12:00,
2012-11-07 01:13:00,59.4,56.8,29.88,North,356,8.0,9.0,91,0.00,,---,0.00,0.00,VWS V14.01,2012-11-07 06:13:00,
2012-11-07 01:14:00,58.2,55.9,29.88,NNW,343,6.0,9.0,92,0.00,,---,0.00,0.00,VWS V14.01,2012-11-07 06:14:00,
2012-11-07 01:15:00,59.5,56.9,29.89,NW,317,4.0,9.0,91,0.00,,---,0.00,0.00,VWS V14.01,2012-11-07 06:15:00,
2012-11-07 01:16:00,59.5,56.6,29.89,NW,325,5.0,9.0,90,0.00,,---,0.00,0.00,VWS V14.01,2012-11-07 06:16:00,
2012-11-07 01:17:00,59.5,56.6,29.89,North,349,6.0,9.0,90,0.00,,---,0.00,0.00,VWS V14.01,2012-11-07 06:17:00,
2012-11-07 01:18:00,59.6,56.4,29.89,NW,326,2.0,9.0,89,0.00,,---,0.00,0.00,VWS V14.01,2012-11-07 06:18:00,
2012-11-07 01:19:00,59.0,56.7,29.88,NNW,343,8.0,9.0,92,0.00,,---,0.00,0.00,VWS V14.01,2012-11-07 06:19:00,
2012-11-07 01:20:00,59.6,56.4,29.89,NW,321,3.0,9.0,89,0.00,,---,0.00,0.00,VWS V14.01,2012-11-07 06:20:00,
2012-11-07 01:21:00,59.6,56.4,29.89,NNW,334,2.0,9.0,89,0.00,,---,0.00,0.00,VWS V14.01,2012-11-07 06:21:00,
2012-11-07 01:22:00,59.6,56.0,29.89,NNW,343,3.0,9.0,88,0.00,,---,0.00,0.00,VWS V14.01,2012-11-07 06:22:00,
2012-11-07 01:23:00,59.6,56.0,29.89,NNW,341,2.0,9.0,88,0.00,,---,0.00,0.00,VWS V14.01,2012-11-07 06:23:00,
2012-11-07 01:24:00,59.5,56.9,29.89,NNW,348,5.0,9.0,91,0.00,,---,0.00,0.00,VWS V14.01,2012-11-07 06:24:00,
2012-11-07 01:25:00,59.7,56.2,29.89,NE,34,7.0,9.0,88,0.00,,---,0.00,0.00,VWS V14.01,2012-11-07 06:25:00,
2012-11-07 01:26:00,59.7,56.2,29.89,North,360,6.0,9.0,88,0.00,,---,0.00,0.00,VWS V14.01,2012-11-07 06:26:00,
2012-11-07 01:27:00,59.6,56.0,29.89,NNW,331,2.0,9.0,88,0.00,,---,0.00,0.00,VWS V14.01,2012-11-07 06:27:00,
2012-11-07 01:28:00,59.7,56.2,29.89,North,357,4.0,9.0,88,0.00,,---,0.00,0.00,VWS V14.01,2012-11-07 06:28:00,
2012-11-07 01:29:00,59.6,56.4,29.89,NW,321,3.0,9.0,89,0.00,,---,0.00,0.00,VWS V14.01,2012-11-07 06:29:00,
2012-11-07 01:30:00,59.6,56.0,29.89,NW,325,1.0,9.0,88,0.00,,---,0.00,0.00,VWS V14.01,2012-11-07 06:30:00,
2012-11-07 01:31:00,59.6,56.0,29.89,North,355,2.0,9.0,88,0.00,,---,0.00,0.00,VWS V14.01,2012-11-07 06:31:00,
2012-11-07 01:32:00,59.7,56.2,29.89,NNW,329,4.0,9.0,88,0.00,,---,0.00,0.00,VWS V14.01,2012-11-07 06:32:00,
2012-11-07 01:33:00,59.6,56.0,29.89,North,349,3.0,9.0,88,0.00,,---,0.00,0.00,VWS V14.01,2012-11-07 06:33:00,
2012-11-07 01:34:00,59.7,56.2,29.89,NE,34,7.0,9.0,88,0.00,,---,0.00,0.00,VWS V14.01,2012-11-07 06:34:00,
2012-11-07 01:35:00,59.6,55.7,29.89,NNW,331,2.0,9.0,87,0.00,,---,0.00,0.00,VWS V14.01,2012-11-07 06:35:00,
2012-11-07 01:36:00,59.6,56.0,29.89,North,350,0.0,9.0,88,0.00,,---,0.00,0.00,VWS V14.01,2012-11-07 06:36:00,
2012-11-07 01:37:00,59.6,56.0,29.89,NNW,329,2.0,9.0,88,0.00,,---,0.00,0.00,VWS V14.01,2012-11-07 06:37:00,
2012-11-07 01:38:00,59.6,56.0,29.89,NNW,329,1.0,9.0,88,0.00,,---,0.00,0.00,VWS V14.01,2012-11-07 06:38:00,
2012-11-07 01:39:00,59.6,56.0,29.89,NNW,334,1.0,9.0,88,0.00,,---,0.00,0.00,VWS V14.01,2012-11-07 06:39:00,
2012-11-07 01:40:00,59.6,56.0,29.89,NW,325,1.0,9.0,88,0.00,,---,0.00,0.00,VWS V14.01,2012-11-07 06:40:00,
2012-11-07 01:41:00,59.5,56.3,29.89,NW,318,0.0,9.0,89,0.00,,---,0.00,0.00,VWS V14.01,2012-11-07 06:41:00,
2012-11-07 01:42:00,59.5,56.3,29.89,NW,318,0.0,9.0,89,0.00,,---,0.00,0.00,VWS V14.01,2012-11-07 06:42:00,
2012-11-07 01:43:00,59.5,56.3,29.89,NW,319,1.0,9.0,89,0.00,,---,0.00,0.00,VWS V14.01,2012-11-07 06:43:00,
2012-11-07 01:44:00,59.4,56.2,29.89,NW,320,0.0,9.0,89,0.00,,---,0.00,0.00,VWS V14.01,2012-11-07 06:44:00,
2012-11-07 01:45:00,59.6,56.0,29.89,North,350,2.0,9.0,88,0.00,,---,0.00,0.00,VWS V14.01,2012-11-07 06:45:00,
2012-11-07 01:46:00,59.4,56.2,29.89,NW,312,0.0,9.0,89,0.00,,---,0.00,0.00,VWS V14.01,2012-11-07 06:46:00,
2012-11-07 01:47:00,59.4,56.2,29.89,NW,312,2.0,9.0,89,0.00,,---,0.00,0.00,VWS V14.01,2012-11-07 06:47:00,
2012-11-07 01:48:00,59.3,56.1,29.89,NW,312,0.0,9.0,89,0.00,,---,0.00,0.00,VWS V14.01,2012-11-07 06:48:00,
2012-11-07 01:49:00,59.2,56.0,29.89,NW,312,1.0,9.0,89,0.00,,---,0.00,0.00,VWS V14.01,2012-11-07 06:49:00,
2012-11-07 01:50:00,59.5,56.3,29.89,NW,318,1.0,9.0,89,0.00,,---,0.00,0.00,VWS V14.01,2012-11-07 06:50:00,
2012-11-07 01:51:00,59.2,56.0,29.89,NW,323,0.0,9.0,89,0.00,,---,0.00,0.00,VWS V14.01,2012-11-07 06:51:00,
2012-11-07 01:52:00,59.2,56.0,29.89,NW,323,0.0,9.0,89,0.00,,---,0.00,0.00,VWS V14.01,2012-11-07 06:52:00,
2012-11-07 01:53:00,59.2,56.0,29.89,NW,323,0.0,9.0,89,0.00,,---,0.00,0.00,VWS V14.01,2012-11-07 06:53:00,
2012-11-07 01:54:00,59.2,56.0,29.89,NW,323,0.0,9.0,89,0.00,,---,0.00,0.00,VWS V14.01,2012-11-07 06:54:00,
2012-11-07 01:55:00,59.4,56.2,29.89,NW,312,1.0,9.0,89,0.00,,---,0.00,0.00,VWS V14.01,2012-11-07 06:55:00,
2012-11-07 01:56:00,58.9,55.7,29.89,NNW,329,0.0,9.0,89,0.00,,---,0.00,0.00,VWS V14.01,2012-11-07 06:56:00,
2012-11-07 01:57:00,58.9,55.7,29.89,NNW,329,0.0,9.0,89,0.00,,---,0.00,0.00,VWS V14.01,2012-11-07 06:57:00,
2012-11-07 01:58:00,58.9,55.7,29.89,NNW,329,0.0,9.0,89,0.00,,---,0.00,0.00,VWS V14.01,2012-11-07 06:58:00,
2012-11-07 01:59:00,58.8,55.6,29.89,NNW,329,1.0,9.0,89,0.00,,---,0.00,0.00,VWS V14.01,2012-11-07 06:59:00,
2012-11-07 02:00:00,59.2,56.0,29.89,NW,323,0.0,9.0,89,0.00,,---,0.00,0.00,VWS V14.01,2012-11-07 07:00:00,
2012-11-07 02:01:00,58.7,55.5,29.89,NNW,329,0.0,1.0,89,0.00,,---,0.00,0.00,VWS V14.01,2012-11-07 07:01:00,
2012-11-07 02:02:00,58.6,55.4,29.89,NNW,331,0.0,1.0,89,0.00,,---,0.00,0.00,VWS V14.01,2012-11-07 07:02:00,
2012-11-07 02:03:00,58.6,55.7,29.89,NNW,331,0.0,1.0,90,0.00,,---,0.00,0.00,VWS V14.01,2012-11-07 07:03:00,
2012-11-07 02:04:00,58.6,55.7,29.89,NNW,331,0.0,1.0,90,0.00,,---,0.00,0.00,VWS V14.01,2012-11-07 07:04:00,
2012-11-07 02:05:00,59.0,55.8,29.89,NNW,329,0.0,9.0,89,0.00,,---,0.00,0.00,VWS V14.01,2012-11-07 07:05:00,
2012-11-07 02:06:00,58.5,55.6,29.89,NNW,331,0.0,1.0,90,0.00,,---,0.00,0.00,VWS V14.01,2012-11-07 07:06:00,
2012-11-07 02:07:00,58.4,55.5,29.89,North,352,0.0,1.0,90,0.00,,---,0.00,0.00,VWS V14.01,2012-11-07 07:07:00,
2012-11-07 02:08:00,58.4,55.5,29.89,NW,304,0.0,1.0,90,0.00,,---,0.00,0.00,VWS V14.01,2012-11-07 07:08:00,
2012-11-07 02:09:00,58.4,55.5,29.89,NW,304,0.0,1.0,90,0.00,,---,0.00,0.00,VWS V14.01,2012-11-07 07:09:00,
2012-11-07 02:10:00,58.7,55.5,29.89,NNW,329,0.0,1.0,89,0.00,,---,0.00,0.00,VWS V14.01,2012-11-07 07:10:00,
2012-11-07 02:11:00,58.3,55.7,29.88,NNW,339,0.0,2.0,91,0.00,,---,0.00,0.00,VWS V14.01,2012-11-07 07:11:00,
2012-11-07 02:12:00,58.3,55.7,29.89,NNW,339,0.0,2.0,91,0.00,,---,0.00,0.00,VWS V14.01,2012-11-07 07:12:00,
2012-11-07 02:13:00,58.3,55.7,29.89,NNE,23,1.0,2.0,91,0.00,,---,0.00,0.00,VWS V14.01,2012-11-07 07:13:00,
2012-11-07 02:14:00,58.2,55.6,29.89,NNE,23,0.0,2.0,91,0.00,,---,0.00,0.00,VWS V14.01,2012-11-07 07:14:00,
2012-11-07 02:15:00,58.5,55.6,29.89,NNW,331,0.0,1.0,90,0.00,,---,0.00,0.00,VWS V14.01,2012-11-07 07:15:00,
2012-11-07 02:16:00,58.2,55.6,29.89,North,9,0.0,2.0,91,0.00,,---,0.00,0.00,VWS V14.01,2012-11-07 07:16:00,
2012-11-07 02:17:00,58.2,55.6,29.89,North,9,0.0,2.0,91,0.00,,---,0.00,0.00,VWS V14.01,2012-11-07 07:17:00,
2012-11-07 02:18:00,58.2,55.6,29.89,North,9,0.0,2.0,91,0.00,,---,0.00,0.00,VWS V14.01,2012-11-07 07:18:00,
2012-11-07 02:19:00,58.2,55.6,29.89,North,9,0.0,2.0,91,0.00,,---,0.00,0.00,VWS V14.01,2012-11-07 07:19:00,
2012-11-07 02:20:00,58.3,55.7,29.88,NNW,339,0.0,2.0,91,0.00,,---,0.00,0.00,VWS V14.01,2012-11-07 07:20:00,
2012-11-07 02:21:00,58.1,55.5,29.89,North,9,0.0,2.0,91,0.00,,---,0.00,0.00,VWS V14.01,2012-11-07 07:21:00,
2012-11-07 02:22:00,58.1,55.5,29.89,WNW,301,1.0,2.0,91,0.00,,---,0.00,0.00,VWS V14.01,2012-11-07 07:22:00,
2012-11-07 02:23:00,58.1,55.5,29.89,NNW,340,2.0,3.0,91,0.00,,---,0.00,0.00,VWS V14.01,2012-11-07 07:23:00,
2012-11-07 02:24:00,58.1,55.5,29.89,NNW,340,1.0,3.0,91,0.00,,---,0.00,0.00,VWS V14.01,2012-11-07 07:24:00,
2012-11-07 02:25:00,58.2,55.6,29.89,North,9,1.0,2.0,91,0.00,,---,0.00,0.00,VWS V14.01,2012-11-07 07:25:00,
2012-11-07 02:26:00,58.1,55.5,29.89,NNW,340,2.0,3.0,91,0.00,,---,0.00,0.00,VWS V14.01,2012-11-07 07:26:00,
2012-11-07 02:27:00,58.1,55.5,29.89,NNW,337,1.0,3.0,91,0.00,,---,0.00,0.00,VWS V14.01,2012-11-07 07:27:00,
2012-11-07 02:28:00,58.0,55.4,29.89,NNW,337,2.0,3.0,91,0.00,,---,0.00,0.00,VWS V14.01,2012-11-07 07:28:00,
2012-11-07 02:29:00,58.0,55.4,29.89,NNW,337,0.0,3.0,91,0.00,,---,0.00,0.00,VWS V14.01,2012-11-07 07:29:00,
2012-11-07 02:30:00,58.1,55.5,29.89,North,9,1.0,2.0,91,0.00,,---,0.00,0.00,VWS V14.01,2012-11-07 07:30:00,
2012-11-07 02:31:00,57.9,55.3,29.89,NNW,333,1.0,3.0,91,0.00,,---,0.00,0.00,VWS V14.01,2012-11-07 07:31:00,
2012-11-07 02:32:00,57.9,55.3,29.89,NNW,333,1.0,3.0,91,0.00,,---,0.00,0.00,VWS V14.01,2012-11-07 07:32:00,
2012-11-07 02:33:00,57.8,55.2,29.89,NNW,333,0.0,3.0,91,0.00,,---,0.00,0.00,VWS V14.01,2012-11-07 07:33:00,
2012-11-07 02:34:00,57.7,55.1,29.89,NNW,333,1.0,3.0,91,0.00,,---,0.00,0.00,VWS V14.01,2012-11-07 07:34:00,
2012-11-07 02:35:00,58.1,55.5,29.89,NNW,340,2.0,3.0,91,0.00,,---,0.00,0.00,VWS V14.01,2012-11-07 07:35:00,
2012-11-07 02:36:00,57.6,55.0,29.89,NNW,333,1.0,3.0,91,0.00,,---,0.00,0.00,VWS V14.01,2012-11-07 07:36:00,
2012-11-07 02:37:00,57.5,54.9,29.89,NNW,333,2.0,3.0,91,0.00,,---,0.00,0.00,VWS V14.01,2012-11-07 07:37:00,
2012-11-07 02:38:00,57.5,54.9,29.89,NNW,335,4.0,4.0,91,0.00,,---,0.00,0.00,VWS V14.01,2012-11-07 07:38:00,
2012-11-07 02:39:00,57.5,54.9,29.89,NNW,338,1.0,5.0,91,0.00,,---,0.00,0.00,VWS V14.01,2012-11-07 07:39:00,
2012-11-07 02:40:00,57.9,55.3,29.89,NNW,333,1.0,3.0,91,0.00,,---,0.00,0.00,VWS V14.01,2012-11-07 07:40:00,
2012-11-07 02:41:00,57.4,54.8,29.89,NNW,338,2.0,5.0,91,0.00,,---,0.00,0.00,VWS V14.01,2012-11-07 07:41:00,
2012-11-07 02:42:00,57.3,54.7,29.89,NNW,338,0.0,5.0,91,0.00,,---,0.00,0.00,VWS V14.01,2012-11-07 07:42:00,
2012-11-07 02:43:00,57.3,54.7,29.89,NNW,338,1.0,5.0,91,0.00,,---,0.00,0.00,VWS V14.01,2012-11-07 07:43:00,
2012-11-07 02:44:00,57.3,54.7,29.89,NNW,338,0.0,5.0,91,0.00,,---,0.00,0.00,VWS V14.01,2012-11-07 07:44:00,
2012-11-07 02:45:00,57.6,55.0,29.89,NNW,333,1.0,3.0,91,0.00,,---,0.00,0.00,VWS V14.01,2012-11-07 07:45:00,
2012-11-07 02:46:00,57.2,54.6,29.89,NNW,338,1.0,5.0,91,0.00,,---,0.00,0.00,VWS V14.01,2012-11-07 07:46:00,
2012-11-07 02:47:00,57.1,54.5,29.89,NNW,338,0.0,5.0,91,0.00,,---,0.00,0.00,VWS V14.01,2012-11-07 07:47:00,
2012-11-07 02:48:00,57.1,54.5,29.89,NNW,338,0.0,5.0,91,0.00,,---,0.00,0.00,VWS V14.01,2012-11-07 07:48:00,
2012-11-07 02:49:00,57.0,54.4,29.89,NW,314,1.0,5.0,91,0.00,,---,0.00,0.00,VWS V14.01,2012-11-07 07:49:00,
2012-11-07 02:50:00,57.4,54.8,29.89,NNW,338,2.0,5.0,91,0.00,,---,0.00,0.00,VWS V14.01,2012-11-07 07:50:00,
2012-11-07 02:51:00,57.0,54.4,29.90,NNW,346,1.0,5.0,91,0.00,,---,0.00,0.00,VWS V14.01,2012-11-07 07:51:00,
2012-11-07 02:52:00,57.0,54.4,29.90,NNW,346,0.0,5.0,91,0.00,,---,0.00,0.00,VWS V14.01,2012-11-07 07:52:00,
2012-11-07 02:53:00,56.9,54.6,29.90,NNW,346,0.0,5.0,92,0.00,,---,0.00,0.00,VWS V14.01,2012-11-07 07:53:00,
2012-11-07 02:54:00,56.9,54.6,29.90,WNW,301,1.0,5.0,92,0.00,,---,0.00,0.00,VWS V14.01,2012-11-07 07:54:00,
2012-11-07 02:55:00,56.9,54.6,29.90,North,359,2.0,5.0,92,0.00,,---,0.00,0.00,VWS V14.01,2012-11-07 07:55:00,
2012-11-07 02:56:00,57.2,54.6,29.89,NNW,338,0.0,5.0,91,0.00,,---,0.00,0.00,VWS V14.01,2012-11-07 07:56:00,
2012-11-07 02:57:00,56.9,54.6,29.90,North,8,0.0,5.0,92,0.00,,---,0.00,0.00,VWS V14.01,2012-11-07 07:57:00,
2012-11-07 02:58:00,56.8,54.5,29.90,North,8,0.0,5.0,92,0.00,,---,0.00,0.00,VWS V14.01,2012-11-07 07:58:00,
2012-11-07 02:59:00,56.8,54.5,29.90,NNW,343,2.0,5.0,92,0.00,,---,0.00,0.00,VWS V14.01,2012-11-07 07:59:00,
2012-11-07 03:00:00,56.8,54.5,29.90,NNW,330,0.0,0.0,92,0.00,,---,0.00,0.00,VWS V14.01,2012-11-07 08:00:00,
2012-11-07 03:01:00,57.0,54.4,29.90,NNW,346,1.0,5.0,91,0.00,,---,0.00,0.00,VWS V14.01,2012-11-07 08:01:00,
2012-11-07 03:02:00,56.8,54.5,29.90,NNW,330,1.0,1.0,92,0.00,,---,0.00,0.00,VWS V14.01,2012-11-07 08:02:00,
2012-11-07 03:03:00,56.8,54.5,29.90,NNW,330,0.0,1.0,92,0.00,,---,0.00,0.00,VWS V14.01,2012-11-07 08:03:00,
2012-11-07 03:04:00,56.8,54.5,29.90,North,353,1.0,3.0,92,0.00,,---,0.00,0.00,VWS V14.01,2012-11-07 08:04:00,
2012-11-07 03:05:00,56.8,54.5,29.90,North,353,0.0,3.0,92,0.00,,---,0.00,0.00,VWS V14.01,2012-11-07 08:05:00,
2012-11-07 03:06:00,56.9,54.6,29.90,North,8,1.0,5.0,92,0.00,,---,0.00,0.00,VWS V14.01,2012-11-07 08:06:00,
2012-11-07 03:07:00,56.8,54.5,29.90,North,353,1.0,3.0,92,0.00,,---,0.00,0.00,VWS V14.01,2012-11-07 08:07:00,
2012-11-07 03:08:00,56.9,54.6,29.90,North,353,1.0,3.0,92,0.00,,---,0.00,0.00,VWS V14.01,2012-11-07 08:08:00,
2012-11-07 03:09:00,56.9,54.6,29.90,North,354,1.0,3.0,92,0.00,,---,0.00,0.00,VWS V14.01,2012-11-07 08:09:00,
2012-11-07 03:10:00,56.9,54.6,29.90,North,352,1.0,3.0,92,0.00,,---,0.00,0.00,VWS V14.01,2012-11-07 08:10:00,
2012-11-07 03:11:00,56.8,54.5,29.90,NNW,330,0.0,1.0,92,0.00,,---,0.00,0.00,VWS V14.01,2012-11-07 08:11:00,
2012-11-07 03:12:00,57.0,54.7,29.90,North,349,1.0,4.0,92,0.00,,---,0.00,0.00,VWS V14.01,2012-11-07 08:12:00,
2012-11-07 03:13:00,57.1,54.8,29.90,NNW,327,1.0,4.0,92,0.00,,---,0.00,0.00,VWS V14.01,2012-11-07 08:13:00,
2012-11-07 03:14:00,57.1,54.8,29.90,NNW,342,1.0,4.0,92,0.00,,---,0.00,0.00,VWS V14.01,2012-11-07 08:14:00,
2012-11-07 03:15:00,57.2,54.9,29.90,NNW,339,0.0,4.0,92,0.00,,---,0.00,0.00,VWS V14.01,2012-11-07 08:15:00,
2012-11-07 03:16:00,56.8,54.5,29.90,North,353,0.0,3.0,92,0.00,,---,0.00,0.00,VWS V14.01,2012-11-07 08:16:00,
2012-11-07 03:17:00,57.2,54.9,29.90,NNW,343,1.0,4.0,92,0.00,,---,0.00,0.00,VWS V14.01,2012-11-07 08:17:00,
2012-11-07 03:18:00,57.2,54.9,29.90,NW,323,2.0,4.0,92,0.00,,---,0.00,0.00,VWS V14.01,2012-11-07 08:18:00,
2012-11-07 03:19:00,57.3,54.7,29.90,NW,324,1.0,4.0,91,0.00,,---,0.00,0.00,VWS V14.01,2012-11-07 08:19:00,
2012-11-07 03:20:00,57.3,54.7,29.90,NW,324,2.0,4.0,91,0.00,,---,0.00,0.00,VWS V14.01,2012-11-07 08:20:00,
2012-11-07 03:21:00,57.0,54.7,29.90,North,349,2.0,4.0,92,0.00,,---,0.00,0.00,VWS V14.01,2012-11-07 08:21:00,
2012-11-07 03:22:00,57.3,54.7,29.90,NNW,337,1.0,4.0,91,0.00,,---,0.00,0.00,VWS V14.01,2012-11-07 08:22:00,
2012-11-07 03:23:00,57.3,54.7,29.90,NNW,329,2.0,4.0,91,0.00,,---,0.00,0.00,VWS V14.01,2012-11-07 08:23:00,
2012-11-07 03:24:00,57.4,54.8,29.90,North,1,3.0,4.0,91,0.00,,---,0.00,0.00,VWS V14.01,2012-11-07 08:24:00,
2012-11-07 03:25:00,57.4,54.8,29.90,NNW,343,2.0,4.0,91,0.00,,---,0.00,0.00,VWS V14.01,2012-11-07 08:25:00,
2012-11-07 03:26:00,57.2,54.9,29.90,NNW,343,2.0,4.0,92,0.00,,---,0.00,0.00,VWS V14.01,2012-11-07 08:26:00,
2012-11-07 03:27:00,57.4,54.5,29.90,North,349,4.0,4.0,90,0.00,,---,0.00,0.00,VWS V14.01,2012-11-07 08:27:00,
2012-11-07 03:28:00,57.4,54.5,29.90,NNW,345,2.0,5.0,90,0.00,,---,0.00,0.00,VWS V14.01,2012-11-07 08:28:00,
2012-11-07 03:29:00,57.4,54.5,29.90,NNW,345,1.0,5.0,90,0.00,,---,0.00,0.00,VWS V14.01,2012-11-07 08:29:00,
2012-11-07 03:30:00,57.5,54.6,29.90,NNW,345,1.0,5.0,90,0.00,,---,0.00,0.00,VWS V14.01,2012-11-07 08:30:00,
2012-11-07 03:31:00,57.3,54.7,29.90,NNW,337,1.0,4.0,91,0.00,,---,0.00,0.00,VWS V14.01,2012-11-07 08:31:00,
2012-11-07 03:32:00,57.4,54.2,29.90,NNW,345,1.0,5.0,89,0.00,,---,0.00,0.00,VWS V14.01,2012-11-07 08:32:00,
2012-11-07 03:33:00,57.4,54.2,29.90,NNW,347,4.0,5.0,89,0.00,,---,0.00,0.00,VWS V14.01,2012-11-07 08:33:00,
2012-11-07 03:34:00,57.4,54.2,29.90,North,3,0.0,5.0,89,0.00,,---,0.00,0.00,VWS V14.01,2012-11-07 08:34:00,
2012-11-07 03:35:00,57.4,54.2,29.90,North,353,1.0,5.0,89,0.00,,---,0.00,0.00,VWS V14.01,2012-11-07 08:35:00,
2012-11-07 03:36:00,57.4,54.5,29.90,NNW,338,3.0,4.0,90,0.00,,---,0.00,0.00,VWS V14.01,2012-11-07 08:36:00,
2012-11-07 03:37:00,57.4,54.2,29.90,NNW,341,1.0,5.0,89,0.00,,---,0.00,0.00,VWS V14.01,2012-11-07 08:37:00,
2012-11-07 03:38:00,57.5,54.3,29.90,NW,326,1.0,5.0,89,0.00,,---,0.00,0.00,VWS V14.01,2012-11-07 08:38:00,
2012-11-07 03:39:00,57.4,54.2,29.90,NNW,333,1.0,5.0,89,0.00,,---,0.00,0.00,VWS V14.01,2012-11-07 08:39:00,
2012-11-07 03:40:00,57.4,54.2,29.90,NNW,347,3.0,5.0,89,0.00,,---,0.00,0.00,VWS V14.01,2012-11-07 08:40:00,
2012-11-07 03:41:00,57.4,54.5,29.90,NNW,345,1.0,5.0,90,0.00,,---,0.00,0.00,VWS V14.01,2012-11-07 08:41:00,
2012-11-07 03:42:00,57.4,54.2,29.90,NW,326,0.0,5.0,89,0.00,,---,0.00,0.00,VWS V14.01,2012-11-07 08:42:00,
2012-11-07 03:43:00,57.4,54.2,29.90,NNW,341,1.0,5.0,89,0.00,,---,0.00,0.00,VWS V14.01,2012-11-07 08:43:00,
2012-11-07 03:44:00,57.4,54.2,29.90,NNW,341,1.0,5.0,89,0.00,,---,0.00,0.00,VWS V14.01,2012-11-07 08:44:00,
2012-11-07 03:45:00,57.4,54.2,29.90,NNW,341,0.0,5.0,89,0.00,,---,0.00,0.00,VWS V14.01,2012-11-07 08:45:00,
2012-11-07 03:46:00,57.4,54.2,29.90,NNW,341,1.0,5.0,89,0.00,,---,0.00,0.00,VWS V14.01,2012-11-07 08:46:00,
2012-11-07 03:47:00,57.3,54.1,29.90,NNW,342,2.0,5.0,89,0.00,,---,0.00,0.00,VWS V14.01,2012-11-07 08:47:00,
2012-11-07 03:48:00,57.3,54.1,29.90,North,354,0.0,5.0,89,0.00,,---,0.00,0.00,VWS V14.01,2012-11-07 08:48:00,
2012-11-07 03:49:00,57.3,54.1,29.90,NNW,348,2.0,5.0,89,0.00,,---,0.00,0.00,VWS V14.01,2012-11-07 08:49:00,
2012-11-07 03:50:00,57.3,54.1,29.90,North,349,2.0,5.0,89,0.00,,---,0.00,0.00,VWS V14.01,2012-11-07 08:50:00,
2012-11-07 03:51:00,57.4,54.2,29.90,NW,326,0.0,5.0,89,0.00,,---,0.00,0.00,VWS V14.01,2012-11-07 08:51:00,
2012-11-07 03:52:00,57.3,54.1,29.90,NW,324,1.0,5.0,89,0.00,,---,0.00,0.00,VWS V14.01,2012-11-07 08:52:00,
2012-11-07 03:53:00,57.3,54.1,29.90,NW,324,1.0,5.0,89,0.00,,---,0.00,0.00,VWS V14.01,2012-11-07 08:53:00,
2012-11-07 03:54:00,57.3,54.1,29.90,NW,324,1.0,5.0,89,0.00,,---,0.00,0.00,VWS V14.01,2012-11-07 08:54:00,
2012-11-07 03:55:00,57.3,54.1,29.90,NW,318,2.0,5.0,89,0.00,,---,0.00,0.00,VWS V14.01,2012-11-07 08:55:00,
2012-11-07 03:56:00,57.3,54.1,29.90,NNW,330,2.0,5.0,89,0.00,,---,0.00,0.00,VWS V14.01,2012-11-07 08:56:00,
2012-11-07 03:57:00,57.3,54.1,29.90,NW,318,0.0,5.0,89,0.00,,---,0.00,0.00,VWS V14.01,2012-11-07 08:57:00,
2012-11-07 03:58:00,57.3,54.1,29.90,NW,318,1.0,5.0,89,0.00,,---,0.00,0.00,VWS V14.01,2012-11-07 08:58:00,
2012-11-07 03:59:00,57.3,54.1,29.90,NW,318,0.0,5.0,89,0.00,,---,0.00,0.00,VWS V14.01,2012-11-07 08:59:00,
2012-11-07 04:00:00,57.3,54.1,29.90,NNW,341,2.0,2.0,89,0.00,,---,0.00,0.00,VWS V14.01,2012-11-07 09:00:00,
2012-11-07 04:01:00,57.3,54.1,29.90,NW,323,1.0,5.0,89,0.00,,---,0.00,0.00,VWS V14.01,2012-11-07 09:01:00,
2012-11-07 04:02:00,57.2,54.0,29.90,North,4,0.0,3.0,89,0.00,,---,0.00,0.00,VWS V14.01,2012-11-07 09:02:00,
2012-11-07 04:03:00,57.2,53.7,29.90,NW,320,0.0,3.0,88,0.00,,---,0.00,0.00,VWS V14.01,2012-11-07 09:03:00,
2012-11-07 04:04:00,57.2,53.7,29.91,NW,320,0.0,3.0,88,0.00,,---,0.00,0.00,VWS V14.01,2012-11-07 09:04:00,
2012-11-07 04:05:00,57.1,53.6,29.90,NNW,334,1.0,3.0,88,0.00,,---,0.00,0.00,VWS V14.01,2012-11-07 09:05:00,
2012-11-07 04:06:00,57.3,54.1,29.90,NW,318,1.0,5.0,89,0.00,,---,0.00,0.00,VWS V14.01,2012-11-07 09:06:00,
2012-11-07 04:07:00,57.1,53.6,29.90,NNW,334,0.0,3.0,88,0.00,,---,0.00,0.00,VWS V14.01,2012-11-07 09:07:00,
2012-11-07 04:08:00,57.0,53.5,29.90,NNW,334,1.0,3.0,88,0.00,,---,0.00,0.00,VWS V14.01,2012-11-07 09:08:00,
2012-11-07 04:09:00,56.9,53.4,29.91,NNW,334,0.0,3.0,88,0.00,,---,0.00,0.00,VWS V14.01,2012-11-07 09:09:00,
2012-11-07 04:10:00,56.9,53.4,29.91,NNW,334,0.0,3.0,88,0.00,,---,0.00,0.00,VWS V14.01,2012-11-07 09:10:00,
2012-11-07 04:11:00,57.2,54.0,29.90,North,4,0.0,3.0,89,0.00,,---,0.00,0.00,VWS V14.01,2012-11-07 09:11:00,
2012-11-07 04:12:00,56.8,53.6,29.91,NNW,327,2.0,3.0,89,0.00,,---,0.00,0.00,VWS V14.01,2012-11-07 09:12:00,
2012-11-07 04:13:00,56.8,53.6,29.91,NNW,327,0.0,3.0,89,0.00,,---,0.00,0.00,VWS V14.01,2012-11-07 09:13:00,
2012-11-07 04:14:00,56.8,53.6,29.91,NW,318,1.0,3.0,89,0.00,,---,0.00,0.00,VWS V14.01,2012-11-07 09:14:00,
2012-11-07 04:15:00,56.8,53.6,29.91,NNW,331,1.0,3.0,89,0.00,,---,0.00,0.00,VWS V14.01,2012-11-07 09:15:00,
2012-11-07 04:16:00,57.1,53.6,29.90,NNW,334,0.0,3.0,88,0.00,,---,0.00,0.00,VWS V14.01,2012-11-07 09:16:00,
2012-11-07 04:17:00,56.7,53.5,29.91,North,351,1.0,3.0,89,0.00,,---,0.00,0.00,VWS V14.01,2012-11-07 09:17:00,
2012-11-07 04:18:00,56.7,53.5,29.91,North,351,1.0,3.0,89,0.00,,---,0.00,0.00,VWS V14.01,2012-11-07 09:18:00,
2012-11-07 04:19:00,56.7,53.5,29.91,NNE,16,2.0,3.0,89,0.00,,---,0.00,0.00,VWS V14.01,2012-11-07 09:19:00,
2012-11-07 04:20:00,56.7,53.5,29.91,NNE,16,0.0,3.0,89,0.00,,---,0.00,0.00,VWS V14.01,2012-11-07 09:20:00,
2012-11-07 04:21:00,56.8,53.6,29.91,NNW,327,2.0,3.0,89,0.00,,---,0.00,0.00,VWS V14.01,2012-11-07 09:21:00,
2012-11-07 04:22:00,56.8,53.6,29.91,North,7,1.0,3.0,89,0.00,,---,0.00,0.00,VWS V14.01,2012-11-07 09:22:00,
2012-11-07 04:23:00,56.8,53.6,29.91,North,7,0.0,3.0,89,0.00,,---,0.00,0.00,VWS V14.01,2012-11-07 09:23:00,
2012-11-07 04:24:00,56.8,53.6,29.91,North,7,1.0,3.0,89,0.00,,---,0.00,0.00,VWS V14.01,2012-11-07 09:24:00,
2012-11-07 04:25:00,56.7,53.5,29.91,NW,324,0.0,3.0,89,0.00,,---,0.00,0.00,VWS V14.01,2012-11-07 09:25:00,
2012-11-07 04:26:00,56.7,53.5,29.91,North,5,0.0,3.0,89,0.00,,---,0.00,0.00,VWS V14.01,2012-11-07 09:26:00,
2012-11-07 04:27:00,56.7,53.5,29.91,North,351,1.0,3.0,89,0.00,,---,0.00,0.00,VWS V14.01,2012-11-07 09:27:00,
2012-11-07 04:28:00,56.8,53.6,29.91,North,351,0.0,3.0,89,0.00,,---,0.00,0.00,VWS V14.01,2012-11-07 09:28:00,
2012-11-07 04:29:00,56.8,53.6,29.91,North,351,0.0,3.0,89,0.00,,---,0.00,0.00,VWS V14.01,2012-11-07 09:29:00,
2012-11-07 04:30:00,56.8,53.6,29.91,North,351,1.0,3.0,89,0.00,,---,0.00,0.00,VWS V14.01,2012-11-07 09:30:00,
2012-11-07 04:31:00,56.7,53.5,29.91,North,7,1.0,3.0,89,0.00,,---,0.00,0.00,VWS V14.01,2012-11-07 09:31:00,
2012-11-07 04:32:00,56.9,53.7,29.91,North,351,0.0,3.0,89,0.00,,---,0.00,0.00,VWS V14.01,2012-11-07 09:32:00,
2012-11-07 04:33:00,56.9,54.0,29.91,North,351,1.0,3.0,90,0.00,,---,0.00,0.00,VWS V14.01,2012-11-07 09:33:00,
2012-11-07 04:34:00,57.0,54.1,29.91,NNW,339,0.0,3.0,90,0.00,,---,0.00,0.00,VWS V14.01,2012-11-07 09:34:00,
2012-11-07 04:35:00,57.1,54.2,29.91,NNW,339,0.0,3.0,90,0.00,,---,0.00,0.00,VWS V14.01,2012-11-07 09:35:00,
2012-11-07 04:36:00,56.7,53.5,29.91,North,5,0.0,3.0,89,0.00,,---,0.00,0.00,VWS V14.01,2012-11-07 09:36:00,
2012-11-07 04:37:00,57.2,54.3,29.91,NNE,16,1.0,3.0,90,0.00,,---,0.00,0.00,VWS V14.01,2012-11-07 09:37:00,
2012-11-07 04:38:00,57.2,54.0,29.91,NNE,16,0.0,3.0,89,0.00,,---,0.00,0.00,VWS V14.01,2012-11-07 09:38:00,
2012-11-07 04:39:00,57.3,54.1,29.92,NNE,16,0.0,3.0,89,0.00,,---,0.00,0.00,VWS V14.01,2012-11-07 09:39:00,
2012-11-07 04:40:00,57.3,54.1,29.92,NNE,16,0.0,3.0,89,0.00,,---,0.00,0.00,VWS V14.01,2012-11-07 09:40:00,
2012-11-07 04:41:00,57.3,54.1,29.92,NNE,15,0.0,3.0,89,0.00,,---,0.00,0.00,VWS V14.01,2012-11-07 09:41:00,
2012-11-07 04:42:00,56.9,54.0,29.91,North,351,1.0,3.0,90,0.00,,---,0.00,0.00,VWS V14.01,2012-11-07 09:42:00,
2012-11-07 04:43:00,57.4,54.2,29.92,NNE,15,0.0,3.0,89,0.00,,---,0.00,0.00,VWS V14.01,2012-11-07 09:43:00,
2012-11-07 04:44:00,57.4,54.2,29.92,NNW,345,1.0,3.0,89,0.00,,---,0.00,0.00,VWS V14.01,2012-11-07 09:44:00,
2012-11-07 04:45:00,57.5,54.3,29.92,North,351,1.0,3.0,89,0.00,,---,0.00,0.00,VWS V14.01,2012-11-07 09:45:00,
2012-11-07 04:46:00,57.5,54.0,29.92,NNW,331,0.0,3.0,88,0.00,,---,0.00,0.00,VWS V14.01,2012-11-07 09:46:00,
2012-11-07 04:47:00,57.2,54.0,29.91,NNE,16,0.0,3.0,89,0.00,,---,0.00,0.00,VWS V14.01,2012-11-07 09:47:00,
2012-11-07 04:48:00,57.5,54.0,29.92,ESE,104,0.0,3.0,88,0.00,,---,0.00,0.00,VWS V14.01,2012-11-07 09:48:00,
2012-11-07 04:49:00,57.5,54.0,29.92,ESE,104,0.0,3.0,88,0.00,,---,0.00,0.00,VWS V14.01,2012-11-07 09:49:00,
2012-11-07 04:50:00,57.5,54.0,29.92,ESE,104,0.0,3.0,88,0.00,,---,0.00,0.00,VWS V14.01,2012-11-07 09:50:00,
2012-11-07 04:51:00,57.5,54.0,29.92,ESE,104,0.0,3.0,88,0.00,,---,0.00,0.00,VWS V14.01,2012-11-07 09:51:00,
2012-11-07 04:52:00,57.4,54.2,29.91,NNE,15,0.0,3.0,89,0.00,,---,0.00,0.00,VWS V14.01,2012-11-07 09:52:00,
2012-11-07 04:53:00,57.4,53.9,29.92,ESE,102,0.0,3.0,88,0.00,,---,0.00,0.00,VWS V14.01,2012-11-07 09:53:00,
2012-11-07 04:54:00,57.4,53.9,29.92,ESE,102,1.0,3.0,88,0.00,,---,0.00,0.00,VWS V14.01,2012-11-07 09:54:00,
2012-11-07 04:55:00,57.4,53.9,29.92,NNE,21,0.0,3.0,88,0.00,,---,0.00,0.00,VWS V14.01,2012-11-07 09:55:00,
2012-11-07 04:56:00,57.4,53.9,29.92,NW,316,0.0,3.0,88,0.00,,---,0.00,0.00,VWS V14.01,2012-11-07 09:56:00,
2012-11-07 04:57:00,57.5,54.0,29.92,ESE,104,0.0,3.0,88,0.00,,---,0.00,0.00,VWS V14.01,2012-11-07 09:57:00,
2012-11-07 04:58:00,57.3,53.8,29.92,NNW,331,0.0,3.0,88,0.00,,---,0.00,0.00,VWS V14.01,2012-11-07 09:58:00,
2012-11-07 04:59:00,57.3,53.8,29.92,NNW,340,0.0,3.0,88,0.00,,---,0.00,0.00,VWS V14.01,2012-11-07 09:59:00,
2012-11-07 05:00:00,57.2,53.7,29.92,NNW,345,0.0,0.0,88,0.00,,---,0.00,0.00,VWS V14.01,2012-11-07 10:00:00,
2012-11-07 05:01:00,57.1,53.6,29.92,NNW,345,1.0,1.0,88,0.00,,---,0.00,0.00,VWS V14.01,2012-11-07 10:01:00,
2012-11-07 05:02:00,57.4,53.9,29.92,ESE,102,0.0,3.0,88,0.00,,---,0.00,0.00,VWS V14.01,2012-11-07 10:02:00,
2012-11-07 05:03:00,57.1,53.6,29.92,NNW,345,0.0,1.0,88,0.00,,---,0.00,0.00,VWS V14.01,2012-11-07 10:03:00,
2012-11-07 05:04:00,57.0,53.5,29.92,NNW,329,1.0,1.0,88,0.00,,---,0.00,0.00,VWS V14.01,2012-11-07 10:04:00,
2012-11-07 05:05:00,57.0,53.5,29.92,NNW,329,0.0,1.0,88,0.00,,---,0.00,0.00,VWS V14.01,2012-11-07 10:05:00,
2012-11-07 05:06:00,57.0,53.5,29.92,NNW,329,0.0,1.0,88,0.00,,---,0.00,0.00,VWS V14.01,2012-11-07 10:06:00,
2012-11-07 05:07:00,57.3,53.8,29.92,NNW,331,0.0,3.0,88,0.00,,---,0.00,0.00,VWS V14.01,2012-11-07 10:07:00,
2012-11-07 05:08:00,56.9,53.4,29.92,NNW,329,0.0,1.0,88,0.00,,---,0.00,0.00,VWS V14.01,2012-11-07 10:08:00,
2012-11-07 05:09:00,56.9,53.4,29.92,NNW,329,0.0,1.0,88,0.00,,---,0.00,0.00,VWS V14.01,2012-11-07 10:09:00,
2012-11-07 05:10:00,56.9,53.4,29.92,NNW,329,0.0,1.0,88,0.00,,---,0.00,0.00,VWS V14.01,2012-11-07 10:10:00,
2012-11-07 05:11:00,56.8,53.3,29.92,NNW,329,0.0,1.0,88,0.00,,---,0.00,0.00,VWS V14.01,2012-11-07 10:11:00,
2012-11-07 05:12:00,57.1,53.6,29.92,NNW,345,0.0,1.0,88,0.00,,---,0.00,0.00,VWS V14.01,2012-11-07 10:12:00,
2012-11-07 05:13:00,56.7,53.5,29.92,NNW,329,0.0,1.0,89,0.00,,---,0.00,0.00,VWS V14.01,2012-11-07 10:13:00,
2012-11-07 05:14:00,56.7,53.5,29.92,NNW,329,0.0,1.0,89,0.00,,---,0.00,0.00,VWS V14.01,2012-11-07 10:14:00,
2012-11-07 05:15:00,56.5,53.3,29.92,NNW,329,0.0,1.0,89,0.00,,---,0.00,0.00,VWS V14.01,2012-11-07 10:15:00,
2012-11-07 05:16:00,56.5,53.3,29.92,NNW,329,0.0,1.0,89,0.00,,---,0.00,0.00,VWS V14.01,2012-11-07 10:16:00,
2012-11-07 05:17:00,56.9,53.4,29.92,NNW,329,0.0,1.0,88,0.00,,---,0.00,0.00,VWS V14.01,2012-11-07 10:17:00,
2012-11-07 05:18:00,56.3,53.1,29.92,NNW,329,0.0,1.0,89,0.00,,---,0.00,0.00,VWS V14.01,2012-11-07 10:18:00,
2012-11-07 05:19:00,56.2,53.0,29.92,NNW,329,0.0,1.0,89,0.00,,---,0.00,0.00,VWS V14.01,2012-11-07 10:19:00,
2012-11-07 05:20:00,56.2,53.0,29.92,NNW,329,0.0,1.0,89,0.00,,---,0.00,0.00,VWS V14.01,2012-11-07 10:20:00,
2012-11-07 05:21:00,56.2,53.3,29.92,NNW,329,0.0,1.0,90,0.00,,---,0.00,0.00,VWS V14.01,2012-11-07 10:21:00,
2012-11-07 05:22:00,56.7,53.5,29.92,NNW,329,0.0,1.0,89,0.00,,---,0.00,0.00,VWS V14.01,2012-11-07 10:22:00,
2012-11-07 05:23:00,56.3,53.4,29.92,NNW,343,0.0,2.0,90,0.00,,---,0.00,0.00,VWS V14.01,2012-11-07 10:23:00,
2012-11-07 05:24:00,56.3,53.4,29.92,NNW,343,1.0,2.0,90,0.00,,---,0.00,0.00,VWS V14.01,2012-11-07 10:24:00,
2012-11-07 05:25:00,56.3,53.4,29.92,NNW,331,1.0,2.0,90,0.00,,---,0.00,0.00,VWS V14.01,2012-11-07 10:25:00,
2012-11-07 05:26:00,56.4,53.5,29.92,NW,314,0.0,2.0,90,0.00,,---,0.00,0.00,VWS V14.01,2012-11-07 10:26:00,
2012-11-07 05:27:00,56.3,53.1,29.92,NNW,329,0.0,1.0,89,0.00,,---,0.00,0.00,VWS V14.01,2012-11-07 10:27:00,
2012-11-07 05:28:00,56.5,53.6,29.92,NW,314,0.0,2.0,90,0.00,,---,0.00,0.00,VWS V14.01,2012-11-07 10:28:00,
2012-11-07 05:29:00,56.5,53.6,29.92,NW,314,1.0,2.0,90,0.00,,---,0.00,0.00,VWS V14.01,2012-11-07 10:29:00,
2012-11-07 05:30:00,56.6,53.7,29.92,NW,314,1.0,2.0,90,0.00,,---,0.00,0.00,VWS V14.01,2012-11-07 10:30:00,
2012-11-07 05:31:00,56.6,53.7,29.92,NW,314,0.0,2.0,90,0.00,,---,0.00,0.00,VWS V14.01,2012-11-07 10:31:00,
2012-11-07 05:32:00,56.2,53.3,29.92,NNW,343,0.0,2.0,90,0.00,,---,0.00,0.00,VWS V14.01,2012-11-07 10:32:00,
2012-11-07 05:33:00,56.7,53.8,29.92,NW,314,0.0,2.0,90,0.00,,---,0.00,0.00,VWS V14.01,2012-11-07 10:33:00,
2012-11-07 05:34:00,56.8,53.9,29.92,NW,314,0.0,2.0,90,0.00,,---,0.00,0.00,VWS V14.01,2012-11-07 10:34:00,
2012-11-07 05:35:00,56.8,53.9,29.92,WNW,300,1.0,2.0,90,0.00,,---,0.00,0.00,VWS V14.01,2012-11-07 10:35:00,
2012-11-07 05:36:00,56.8,53.9,29.92,WNW,300,0.0,2.0,90,0.00,,---,0.00,0.00,VWS V14.01,2012-11-07 10:36:00,
2012-11-07 05:37:00,56.5,53.6,29.92,NW,314,0.0,2.0,90,0.00,,---,0.00,0.00,VWS V14.01,2012-11-07 10:37:00,
2012-11-07 05:38:00,56.8,53.9,29.92,WNW,300,0.0,2.0,90,0.00,,---,0.00,0.00,VWS V14.01,2012-11-07 10:38:00,
2012-11-07 05:39:00,56.8,53.9,29.93,NW,304,0.0,2.0,90,0.00,,---,0.00,0.00,VWS V14.01,2012-11-07 10:39:00,
2012-11-07 05:40:00,56.8,53.6,29.92,NW,304,0.0,2.0,89,0.00,,---,0.00,0.00,VWS V14.01,2012-11-07 10:40:00,
2012-11-07 05:41:00,56.8,53.6,29.93,North,356,0.0,2.0,89,0.00,,---,0.00,0.00,VWS V14.01,2012-11-07 10:41:00,
2012-11-07 05:42:00,56.8,53.6,29.93,North,356,0.0,2.0,89,0.00,,---,0.00,0.00,VWS V14.01,2012-11-07 10:42:00,
2012-11-07 05:43:00,56.7,53.8,29.92,NW,314,0.0,2.0,90,0.00,,---,0.00,0.00,VWS V14.01,2012-11-07 10:43:00,
2012-11-07 05:44:00,56.7,53.5,29.93,North,356,0.0,2.0,89,0.00,,---,0.00,0.00,VWS V14.01,2012-11-07 10:44:00,
2012-11-07 05:45:00,56.6,53.4,29.93,North,356,0.0,2.0,89,0.00,,---,0.00,0.00,VWS V14.01,2012-11-07 10:45:00,
2012-11-07 05:46:00,56.6,53.4,29.93,North,356,0.0,2.0,89,0.00,,---,0.00,0.00,VWS V14.01,2012-11-07 10:46:00,
2012-11-07 05:47:00,56.5,53.3,29.93,North,356,0.0,2.0,89,0.00,,---,0.00,0.00,VWS V14.01,2012-11-07 10:47:00,
2012-11-07 05:48:00,56.8,53.9,29.92,NW,304,0.0,2.0,90,0.00,,---,0.00,0.00,VWS V14.01,2012-11-07 10:48:00,
2012-11-07 05:49:00,56.3,53.1,29.93,North,350,0.0,2.0,89,0.00,,---,0.00,0.00,VWS V14.01,2012-11-07 10:49:00,
2012-11-07 05:50:00,56.3,53.1,29.93,North,349,0.0,2.0,89,0.00,,---,0.00,0.00,VWS V14.01,2012-11-07 10:50:00,
2012-11-07 05:51:00,56.2,53.0,29.93,NNW,341,0.0,2.0,89,0.00,,---,0.00,0.00,VWS V14.01,2012-11-07 10:51:00,
2012-11-07 05:52:00,56.2,53.0,29.93,NNW,341,1.0,2.0,89,0.00,,---,0.00,0.00,VWS V14.01,2012-11-07 10:52:00,
2012-11-07 05:53:00,56.7,53.5,29.93,North,356,0.0,2.0,89,0.00,,---,0.00,0.00,VWS V14.01,2012-11-07 10:53:00,
2012-11-07 05:54:00,56.2,53.3,29.93,NNW,341,0.0,2.0,90,0.00,,---,0.00,0.00,VWS V14.01,2012-11-07 10:54:00,
2012-11-07 05:55:00,56.3,53.4,29.93,NW,317,0.0,2.0,90,0.00,,---,0.00,0.00,VWS V14.01,2012-11-07 10:55:00,
2012-11-07 05:56:00,56.3,53.1,29.93,NW,317,1.0,2.0,89,0.00,,---,0.00,0.00,VWS V14.01,2012-11-07 10:56:00,
2012-11-07 05:57:00,56.3,53.1,29.93,NW,317,1.0,2.0,89,0.00,,---,0.00,0.00,VWS V14.01,2012-11-07 10:57:00,
2012-11-07 05:58:00,56.3,53.1,29.93,North,350,0.0,2.0,89,0.00,,---,0.00,0.00,VWS V14.01,2012-11-07 10:58:00,
2012-11-07 05:59:00,56.3,53.1,29.93,NW,322,0.0,2.0,89,0.00,,---,0.00,0.00,VWS V14.01,2012-11-07 10:59:00,
2012-11-07 06:00:00,56.4,53.2,29.93,North,349,1.0,1.0,89,0.00,,---,0.00,0.00,VWS V14.01,2012-11-07 11:00:00,
2012-11-07 06:01:00,56.4,53.2,29.93,NW,320,0.0,3.0,89,0.00,,---,0.00,0.00,VWS V14.01,2012-11-07 11:01:00,
2012-11-07 06:02:00,56.4,52.9,29.93,NW,320,0.0,3.0,88,0.00,,---,0.00,0.00,VWS V14.01,2012-11-07 11:02:00,
2012-11-07 06:03:00,56.2,53.3,29.93,NNW,341,0.0,2.0,90,0.00,,---,0.00,0.00,VWS V14.01,2012-11-07 11:03:00,
2012-11-07 06:04:00,56.4,52.9,29.93,ENE,69,1.0,3.0,88,0.00,,---,0.00,0.00,VWS V14.01,2012-11-07 11:04:00,
2012-11-07 06:05:00,56.4,52.9,29.93,ENE,68,0.0,3.0,88,0.00,,---,0.00,0.00,VWS V14.01,2012-11-07 11:05:00,
2012-11-07 06:06:00,56.4,53.2,29.93,ENE,68,0.0,3.0,89,0.00,,---,0.00,0.00,VWS V14.01,2012-11-07 11:06:00,
2012-11-07 06:07:00,56.4,53.2,29.93,NNW,329,1.0,3.0,89,0.00,,---,0.00,0.00,VWS V14.01,2012-11-07 11:07:00,
2012-11-07 06:08:00,56.3,53.1,29.93,NW,322,1.0,2.0,89,0.00,,---,0.00,0.00,VWS V14.01,2012-11-07 11:08:00,
2012-11-07 06:09:00,56.5,53.0,29.93,NNW,329,0.0,3.0,88,0.00,,---,0.00,0.00,VWS V14.01,2012-11-07 11:09:00,
2012-11-07 06:10:00,56.4,52.9,29.93,NNW,329,0.0,3.0,88,0.00,,---,0.00,0.00,VWS V14.01,2012-11-07 11:10:00,
2012-11-07 06:11:00,56.4,52.9,29.94,NNW,329,0.0,3.0,88,0.00,,---,0.00,0.00,VWS V14.01,2012-11-07 11:11:00,
2012-11-07 06:12:00,56.4,53.2,29.93,NNW,329,0.0,3.0,89,0.00,,---,0.00,0.00,VWS V14.01,2012-11-07 11:12:00,
2012-11-07 06:13:00,56.4,52.9,29.93,NW,320,0.0,3.0,88,0.00,,---,0.00,0.00,VWS V14.01,2012-11-07 11:13:00,
2012-11-07 06:14:00,56.4,53.2,29.93,NNW,338,1.0,3.0,89,0.00,,---,0.00,0.00,VWS V14.01,2012-11-07 11:14:00,
2012-11-07 06:15:00,56.4,53.2,29.93,NNW,344,0.0,3.0,89,0.00,,---,0.00,0.00,VWS V14.01,2012-11-07 11:15:00,
2012-11-07 06:16:00,56.3,53.1,29.93,NNW,344,0.0,3.0,89,0.00,,---,0.00,0.00,VWS V14.01,2012-11-07 11:16:00,
2012-11-07 06:17:00,56.3,53.1,29.94,NNW,344,0.0,3.0,89,0.00,,---,0.00,0.00,VWS V14.01,2012-11-07 11:17:00,
2012-11-07 06:18:00,56.5,53.0,29.93,NNW,329,0.0,3.0,88,0.00,,---,0.00,0.00,VWS V14.01,2012-11-07 11:18:00,
2012-11-07 06:19:00,56.3,53.1,29.94,East,95,2.0,4.0,89,0.00,,---,0.00,0.00,VWS V14.01,2012-11-07 11:19:00,
2012-11-07 06:20:00,56.3,53.1,29.94,East,95,0.0,4.0,89,0.00,,---,0.00,0.00,VWS V14.01,2012-11-07 11:20:00,
2012-11-07 06:21:00,56.3,53.1,29.94,East,95,0.0,4.0,89,0.00,,---,0.00,0.00,VWS V14.01,2012-11-07 11:21:00,
2012-11-07 06:22:00,56.3,53.1,29.94,ENE,64,1.0,4.0,89,0.00,,---,0.00,0.00,VWS V14.01,2012-11-07 11:22:00,
2012-11-07 06:23:00,56.4,53.2,29.93,NNW,338,0.0,3.0,89,0.00,,---,0.00,0.00,VWS V14.01,2012-11-07 11:23:00,
2012-11-07 06:24:00,56.4,53.5,29.94,ENE,64,0.0,4.0,90,0.00,,---,0.00,0.00,VWS V14.01,2012-11-07 11:24:00,
2012-11-07 06:25:00,56.4,53.5,29.94,North,356,1.0,4.0,90,0.00,,---,0.00,0.00,VWS V14.01,2012-11-07 11:25:00,
2012-11-07 06:26:00,56.4,53.2,29.94,North,360,0.0,4.0,89,0.00,,---,0.00,0.00,VWS V14.01,2012-11-07 11:26:00,
2012-11-07 06:27:00,56.3,53.1,29.94,North,360,0.0,4.0,89,0.00,,---,0.00,0.00,VWS V14.01,2012-11-07 11:27:00,
2012-11-07 06:28:00,56.3,53.1,29.94,NE,51,1.0,4.0,89,0.00,,---,0.00,0.00,VWS V14.01,2012-11-07 11:28:00,
2012-11-07 06:29:00,56.2,53.0,29.94,North,357,0.0,4.0,89,0.00,,---,0.00,0.00,VWS V14.01,2012-11-07 11:29:00,
2012-11-07 06:30:00,56.1,52.9,29.94,North,357,0.0,4.0,89,0.00,,---,0.00,0.00,VWS V14.01,2012-11-07 11:30:00,
2012-11-07 06:31:00,56.0,52.8,29.94,North,357,0.0,4.0,89,0.00,,---,0.00,0.00,VWS V14.01,2012-11-07 11:31:00,
2012-11-07 06:32:00,55.9,52.7,29.94,North,357,0.0,4.0,89,0.00,,---,0.00,0.00,VWS V14.01,2012-11-07 11:32:00,
2012-11-07 06:33:00,56.4,53.5,29.94,ENE,64,0.0,4.0,90,0.00,,---,0.00,0.00,VWS V14.01,2012-11-07 11:33:00,
2012-11-07 06:34:00,55.8,52.6,29.94,NNW,338,0.0,4.0,89,0.00,,---,0.00,0.00,VWS V14.01,2012-11-07 11:34:00,
2012-11-07 06:35:00,55.8,52.6,29.94,NNW,338,0.0,4.0,89,0.00,,---,0.00,0.00,VWS V14.01,2012-11-07 11:35:00,
2012-11-07 06:36:00,55.7,52.5,29.94,NNW,338,1.0,4.0,89,0.00,,---,0.00,0.00,VWS V14.01,2012-11-07 11:36:00,
2012-11-07 06:37:00,55.7,52.5,29.94,NNW,338,0.0,4.0,89,0.00,,---,0.00,0.00,VWS V14.01,2012-11-07 11:37:00,
2012-11-07 06:38:00,56.2,53.0,29.94,North,357,1.0,4.0,89,0.00,,---,0.00,0.00,VWS V14.01,2012-11-07 11:38:00,
2012-11-07 06:39:00,55.8,52.9,29.94,North,4,0.0,4.0,90,0.00,,---,0.00,5.00,VWS V14.01,2012-11-07 11:39:00,
2012-11-07 06:40:00,55.8,52.9,29.94,NNE,21,0.0,4.0,90,0.00,,---,0.00,5.00,VWS V14.01,2012-11-07 11:40:00,
2012-11-07 06:41:00,55.8,52.9,29.94,NNE,21,0.0,4.0,90,0.00,,---,0.00,7.00,VWS V14.01,2012-11-07 11:41:00,
2012-11-07 06:42:00,55.8,52.9,29.94,East,94,0.0,4.0,90,0.00,,---,0.00,7.00,VWS V14.01,2012-11-07 11:42:00,
2012-11-07 06:43:00,55.8,52.6,29.94,NNW,338,0.0,4.0,89,0.00,,---,0.00,0.00,VWS V14.01,2012-11-07 11:43:00,
2012-11-07 06:44:00,55.8,52.9,29.94,WNW,291,1.0,4.0,90,0.00,,---,0.00,9.00,VWS V14.01,2012-11-07 11:44:00,
2012-11-07 06:45:00,55.8,52.9,29.95,WNW,291,0.0,4.0,90,0.00,,---,0.00,9.00,VWS V14.01,2012-11-07 11:45:00,
2012-11-07 06:46:00,55.8,52.9,29.95,WNW,294,0.0,4.0,90,0.00,,---,0.00,9.00,VWS V14.01,2012-11-07 11:46:00,
2012-11-07 06:47:00,55.8,52.9,29.94,WNW,295,0.0,4.0,90,0.00,,---,0.00,9.00,VWS V14.01,2012-11-07 11:47:00,
2012-11-07 06:48:00,55.8,52.9,29.94,North,4,0.0,4.0,90,0.00,,---,0.00,5.00,VWS V14.01,2012-11-07 11:48:00,
2012-11-07 06:49:00,55.7,52.5,29.95,WNW,296,0.0,4.0,89,0.00,,---,0.00,12.00,VWS V14.01,2012-11-07 11:49:00,
2012-11-07 06:50:00,55.7,52.5,29.95,WNW,296,0.0,4.0,89,0.00,,---,0.00,12.00,VWS V14.01,2012-11-07 11:50:00,
2012-11-07 06:51:00,55.6,52.4,29.95,WNW,296,0.0,4.0,89,0.00,,---,0.00,12.00,VWS V14.01,2012-11-07 11:51:00,
2012-11-07 06:52:00,55.6,52.7,29.95,NW,308,0.0,4.0,90,0.00,,---,0.00,12.00,VWS V14.01,2012-11-07 11:52:00,
2012-11-07 06:53:00,55.8,52.9,29.94,WNW,291,1.0,4.0,90,0.00,,---,0.00,9.00,VWS V14.01,2012-11-07 11:53:00,
2012-11-07 06:54:00,55.6,52.7,29.95,NW,308,0.0,4.0,90,0.00,,---,0.00,14.00,VWS V14.01,2012-11-07 11:54:00,
2012-11-07 06:55:00,55.5,52.6,29.95,NW,308,0.0,4.0,90,0.00,,---,0.00,14.00,VWS V14.01,2012-11-07 11:55:00,
2012-11-07 06:56:00,55.5,52.6,29.95,NW,308,0.0,4.0,90,0.00,,---,0.00,14.00,VWS V14.01,2012-11-07 11:56:00,
2012-11-07 06:57:00,55.5,52.6,29.95,NW,308,0.0,4.0,90,0.00,,---,0.00,18.00,VWS V14.01,2012-11-07 11:57:00,
2012-11-07 06:58:00,55.6,52.7,29.95,NW,308,0.0,4.0,90,0.00,,---,0.00,18.00,VWS V14.01,2012-11-07 11:58:00,
2012-11-07 06:59:00,55.7,52.5,29.95,WNW,296,0.0,4.0,89,0.00,,---,0.00,12.00,VWS V14.01,2012-11-07 11:59:00,
2012-11-07 07:00:00,55.6,52.7,29.95,NW,308,0.0,1.0,90,0.00,,---,0.00,19.00,VWS V14.01,2012-11-07 12:00:00,
2012-11-07 07:01:00,55.6,52.7,29.95,NW,308,0.0,1.0,90,0.00,,---,0.00,21.00,VWS V14.01,2012-11-07 12:01:00,
2012-11-07 07:02:00,55.6,52.7,29.95,NE,39,2.0,3.0,90,0.00,,---,0.00,21.00,VWS V14.01,2012-11-07 12:02:00,
2012-11-07 07:03:00,55.5,52.3,29.95,NE,34,0.0,3.0,89,0.00,,---,0.00,21.00,VWS V14.01,2012-11-07 12:03:00,
2012-11-07 07:04:00,55.5,52.6,29.95,NW,308,1.0,4.0,90,0.00,,---,0.00,14.00,VWS V14.01,2012-11-07 12:04:00,
2012-11-07 07:05:00,55.6,52.7,29.95,NE,55,0.0,3.0,90,0.00,,---,0.00,23.00,VWS V14.01,2012-11-07 12:05:00,
2012-11-07 07:06:00,55.6,52.7,29.95,NW,315,1.0,3.0,90,0.00,,---,0.00,25.00,VWS V14.01,2012-11-07 12:06:00,
2012-11-07 07:07:00,55.7,52.5,29.95,NW,315,1.0,3.0,89,0.00,,---,0.00,25.00,VWS V14.01,2012-11-07 12:07:00,
2012-11-07 07:08:00,55.7,52.5,29.95,NW,315,0.0,3.0,89,0.00,,---,0.00,25.00,VWS V14.01,2012-11-07 12:08:00,
2012-11-07 07:09:00,55.6,52.7,29.95,NW,308,1.0,4.0,90,0.00,,---,0.00,19.00,VWS V14.01,2012-11-07 12:09:00,
2012-11-07 07:10:00,55.7,52.5,29.95,NW,315,0.0,3.0,89,0.00,,---,0.00,26.00,VWS V14.01,2012-11-07 12:10:00,
2012-11-07 07:11:00,55.8,52.6,29.95,NW,315,0.0,3.0,89,0.00,,---,0.00,26.00,VWS V14.01,2012-11-07 12:11:00,
2012-11-07 07:12:00,55.8,52.6,29.95,NW,315,0.0,3.0,89,0.00,,---,0.00,28.00,VWS V14.01,2012-11-07 12:12:00,
2012-11-07 07:13:00,55.7,52.2,29.95,NW,315,0.0,3.0,88,0.00,,---,0.00,28.00,VWS V14.01,2012-11-07 12:13:00,
2012-11-07 07:14:00,55.6,52.7,29.95,ENE,60,0.0,3.0,90,0.00,,---,0.00,21.00,VWS V14.01,2012-11-07 12:14:00,
2012-11-07 07:15:00,55.7,52.5,29.95,NNW,341,0.0,3.0,89,0.00,,---,0.00,28.00,VWS V14.01,2012-11-07 12:15:00,
2012-11-07 07:16:00,55.7,52.2,29.95,NNW,341,0.0,3.0,88,0.00,,---,0.00,28.00,VWS V14.01,2012-11-07 12:16:00,
2012-11-07 07:17:00,55.7,52.2,29.95,NNW,341,1.0,3.0,88,0.00,,---,0.00,28.00,VWS V14.01,2012-11-07 12:17:00,
2012-11-07 07:18:00,55.6,52.1,29.95,NNW,341,0.0,3.0,88,0.00,,---,0.00,30.00,VWS V14.01,2012-11-07 12:18:00,
2012-11-07 07:19:00,55.7,52.5,29.95,NW,315,0.0,3.0,89,0.00,,---,0.00,25.00,VWS V14.01,2012-11-07 12:19:00,
2012-11-07 07:20:00,55.7,52.2,29.95,NNW,341,0.0,3.0,88,0.00,,---,0.00,30.00,VWS V14.01,2012-11-07 12:20:00,
2012-11-07 07:21:00,55.6,52.1,29.95,NNW,341,1.0,3.0,88,0.00,,---,0.00,33.00,VWS V14.01,2012-11-07 12:21:00,
2012-11-07 07:22:00,55.7,52.2,29.95,NNW,341,1.0,3.0,88,0.00,,---,0.00,35.00,VWS V14.01,2012-11-07 12:22:00,
2012-11-07 07:23:00,55.6,52.1,29.95,NNW,341,0.0,3.0,88,0.00,,---,0.00,42.00,VWS V14.01,2012-11-07 12:23:00,
2012-11-07 07:24:00,55.7,52.2,29.95,NNW,341,0.0,3.0,88,0.00,,---,0.00,28.00,VWS V14.01,2012-11-07 12:24:00,
2012-11-07 07:25:00,55.5,52.0,29.95,NNW,341,0.0,3.0,88,0.00,,---,0.00,42.00,VWS V14.01,2012-11-07 12:25:00,
2012-11-07 07:26:00,55.5,52.0,29.95,NW,308,2.0,3.0,88,0.00,,---,0.00,51.00,VWS V14.01,2012-11-07 12:26:00,
2012-11-07 07:27:00,55.5,51.7,29.95,NNE,14,0.0,3.0,87,0.00,,---,0.00,51.00,VWS V14.01,2012-11-07 12:27:00,
2012-11-07 07:28:00,55.5,51.7,29.95,NNE,14,0.0,3.0,87,0.00,,---,0.00,53.00,VWS V14.01,2012-11-07 12:28:00,
2012-11-07 07:29:00,55.7,52.2,29.95,NNW,341,0.0,3.0,88,0.00,,---,0.00,30.00,VWS V14.01,2012-11-07 12:29:00,
2012-11-07 07:30:00,55.7,52.2,29.95,NNW,336,0.0,3.0,88,0.00,,---,0.00,46.00,VWS V14.01,2012-11-07 12:30:00,
2012-11-07 07:31:00,55.7,52.2,29.95,NNW,336,0.0,3.0,88,0.00,,---,0.00,46.00,VWS V14.01,2012-11-07 12:31:00,
2012-11-07 07:32:00,55.8,52.0,29.95,NNW,336,0.0,3.0,87,0.00,,---,0.00,62.00,VWS V14.01,2012-11-07 12:32:00,
2012-11-07 07:33:00,55.8,52.0,29.95,NNW,336,0.0,3.0,87,0.00,,---,0.00,63.00,VWS V14.01,2012-11-07 12:33:00,
2012-11-07 07:34:00,55.6,52.1,29.95,NNW,341,0.0,3.0,88,0.00,,---,0.00,42.00,VWS V14.01,2012-11-07 12:34:00,
2012-11-07 07:35:00,55.8,51.7,29.95,NE,45,0.0,3.0,86,0.00,,---,0.00,49.00,VWS V14.01,2012-11-07 12:35:00,
2012-11-07 07:36:00,55.8,51.7,29.95,North,351,0.0,3.0,86,0.00,,---,0.00,49.00,VWS V14.01,2012-11-07 12:36:00,
2012-11-07 07:37:00,55.9,52.1,29.95,North,351,0.0,3.0,87,0.00,,---,0.00,60.00,VWS V14.01,2012-11-07 12:37:00,
2012-11-07 07:38:00,56.0,51.9,29.95,NNE,12,0.0,3.0,86,0.00,,---,0.00,69.00,VWS V14.01,2012-11-07 12:38:00,
2012-11-07 07:39:00,55.7,52.2,29.95,NNW,336,0.0,3.0,88,0.00,,---,0.00,46.00,VWS V14.01,2012-11-07 12:39:00,
2012-11-07 07:40:00,56.0,51.9,29.95,South,174,0.0,3.0,86,0.00,,---,0.00,74.00,VWS V14.01,2012-11-07 12:40:00,
2012-11-07 07:41:00,56.1,52.0,29.95,South,175,0.0,3.0,86,0.00,,---,0.00,104.00,VWS V14.01,2012-11-07 12:41:00,
2012-11-07 07:42:00,56.2,52.1,29.95,NW,316,1.0,3.0,86,0.00,,---,0.00,127.00,VWS V14.01,2012-11-07 12:42:00,
2012-11-07 07:43:00,56.2,52.1,29.95,NNW,331,0.0,3.0,86,0.00,,---,0.00,127.00,VWS V14.01,2012-11-07 12:43:00,
2012-11-07 07:44:00,55.8,51.7,29.95,NE,45,0.0,3.0,86,0.00,,---,0.00,49.00,VWS V14.01,2012-11-07 12:44:00,
2012-11-07 07:45:00,56.4,52.0,29.95,NW,325,0.0,3.0,85,0.00,,---,0.00,167.00,VWS V14.01,2012-11-07 12:45:00,
2012-11-07 07:46:00,56.5,52.4,29.96,NNW,343,0.0,3.0,86,0.00,,---,0.00,167.00,VWS V14.01,2012-11-07 12:46:00,
2012-11-07 07:47:00,56.6,52.5,29.96,NNW,343,0.0,3.0,86,0.00,,---,0.00,167.00,VWS V14.01,2012-11-07 12:47:00,
2012-11-07 07:48:00,56.7,52.6,29.96,NNW,343,0.0,3.0,86,0.00,,---,0.00,167.00,VWS V14.01,2012-11-07 12:48:00,
2012-11-07 07:49:00,56.0,51.9,29.95,South,174,0.0,3.0,86,0.00,,---,0.00,74.00,VWS V14.01,2012-11-07 12:49:00,
2012-11-07 07:50:00,56.9,52.4,29.96,NNW,344,0.0,3.0,85,0.00,,---,0.00,91.00,VWS V14.01,2012-11-07 12:50:00,
2012-11-07 07:51:00,56.9,52.4,29.96,NNW,344,0.0,3.0,85,0.00,,---,0.00,91.00,VWS V14.01,2012-11-07 12:51:00,
2012-11-07 07:52:00,57.0,52.5,29.96,North,351,1.0,3.0,85,0.00,,---,0.00,91.00,VWS V14.01,2012-11-07 12:52:00,
2012-11-07 07:53:00,57.1,52.6,29.96,NNW,347,0.0,3.0,85,0.00,,---,0.00,91.00,VWS V14.01,2012-11-07 12:53:00,
2012-11-07 07:54:00,56.4,52.0,29.95,NW,325,0.0,3.0,85,0.00,,---,0.00,167.00,VWS V14.01,2012-11-07 12:54:00,
2012-11-07 07:55:00,57.2,52.7,29.96,NNW,347,0.0,3.0,85,0.00,,---,0.00,90.00,VWS V14.01,2012-11-07 12:55:00,
2012-11-07 07:56:00,57.2,52.4,29.96,NNW,348,1.0,3.0,84,0.00,,---,0.00,70.00,VWS V14.01,2012-11-07 12:56:00,
2012-11-07 07:57:00,57.3,52.5,29.96,NNW,348,0.0,3.0,84,0.00,,---,0.00,100.00,VWS V14.01,2012-11-07 12:57:00,
2012-11-07 07:58:00,57.4,52.6,29.96,NNE,12,0.0,3.0,84,0.00,,---,0.00,104.00,VWS V14.01,2012-11-07 12:58:00,
2012-11-07 07:59:00,56.9,52.8,29.96,NNW,344,0.0,3.0,86,0.00,,---,0.00,91.00,VWS V14.01,2012-11-07 12:59:00,
2012-11-07 08:00:00,57.5,52.7,29.96,North,358,1.0,3.0,84,0.00,,---,0.00,104.00,VWS V14.01,2012-11-07 13:00:00,
2012-11-07 08:01:00,57.5,52.7,29.96,NW,312,0.0,3.0,84,0.00,,---,0.00,104.00,VWS V14.01,2012-11-07 13:01:00,
2012-11-07 08:02:00,57.6,52.8,29.96,NW,321,1.0,3.0,84,0.00,,---,0.00,65.00,VWS V14.01,2012-11-07 13:02:00,
2012-11-07 08:03:00,57.6,52.5,29.96,North,4,0.0,3.0,83,0.00,,---,0.00,86.00,VWS V14.01,2012-11-07 13:03:00,
2012-11-07 08:04:00,57.6,52.5,29.96,NNW,329,4.0,8.0,83,0.00,,---,0.00,86.00,VWS V14.01,2012-11-07 13:04:00,
2012-11-07 08:05:00,57.2,52.7,29.96,NNW,347,0.0,3.0,85,0.00,,---,0.00,70.00,VWS V14.01,2012-11-07 13:05:00,
2012-11-07 08:06:00,57.5,52.4,29.97,NNW,337,3.0,8.0,83,0.00,,---,0.00,98.00,VWS V14.01,2012-11-07 13:06:00,
2012-11-07 08:07:00,57.5,51.7,29.97,NW,324,1.0,8.0,81,0.00,,---,0.00,98.00,VWS V14.01,2012-11-07 13:07:00,
2012-11-07 08:08:00,57.5,51.7,29.97,North,360,0.0,8.0,81,0.00,,---,0.00,98.00,VWS V14.01,2012-11-07 13:08:00,
2012-11-07 08:09:00,57.6,52.2,29.97,NW,322,1.0,8.0,82,0.00,,---,0.00,148.00,VWS V14.01,2012-11-07 13:09:00,
2012-11-07 08:10:00,57.5,52.4,29.96,WNW,296,1.0,3.0,83,0.00,,---,0.00,104.00,VWS V14.01,2012-11-07 13:10:00,
2012-11-07 08:11:00,57.7,52.6,29.97,NW,313,0.0,8.0,83,0.00,,---,0.00,183.00,VWS V14.01,2012-11-07 13:11:00,
2012-11-07 08:12:00,57.9,52.8,29.97,NNW,338,1.0,8.0,83,0.00,,---,0.00,207.00,VWS V14.01,2012-11-07 13:12:00,
2012-11-07 08:13:00,58.0,53.2,29.97,NNW,339,2.0,8.0,84,0.00,,---,0.00,207.00,VWS V14.01,2012-11-07 13:13:00,
2012-11-07 08:14:00,58.0,53.2,29.97,NNE,25,1.0,8.0,84,0.00,,---,0.00,207.00,VWS V14.01,2012-11-07 13:14:00,
2012-11-07 08:15:00,57.6,52.5,29.96,NNW,333,1.0,8.0,83,0.00,,---,0.00,98.00,VWS V14.01,2012-11-07 13:15:00,
2012-11-07 08:16:00,58.1,53.0,29.97,North,358,0.0,8.0,83,0.00,,---,0.00,76.00,VWS V14.01,2012-11-07 13:16:00,
2012-11-07 08:17:00,58.2,53.4,29.97,North,358,0.0,8.0,84,0.00,,---,0.00,107.00,VWS V14.01,2012-11-07 13:17:00,
2012-11-07 08:18:00,58.3,53.2,29.97,WNW,298,1.0,8.0,83,0.00,,---,0.00,107.00,VWS V14.01,2012-11-07 13:18:00,
2012-11-07 08:19:00,58.3,52.5,29.97,North,360,0.0,8.0,81,0.00,,---,0.00,107.00,VWS V14.01,2012-11-07 13:19:00,
2012-11-07 08:20:00,57.7,52.6,29.97,NW,313,0.0,8.0,83,0.00,,---,0.00,183.00,VWS V14.01,2012-11-07 13:20:00,
2012-11-07 08:21:00,58.3,52.8,29.97,East,86,2.0,8.0,82,0.00,,---,0.00,125.00,VWS V14.01,2012-11-07 13:21:00,
2012-11-07 08:22:00,58.2,52.1,29.97,NNW,344,1.0,8.0,80,0.00,,---,0.00,125.00,VWS V14.01,2012-11-07 13:22:00,
2012-11-07 08:23:00,58.2,52.1,29.97,NNW,339,1.0,8.0,80,0.00,,---,0.00,125.00,VWS V14.01,2012-11-07 13:23:00,
2012-11-07 08:24:00,58.4,53.3,29.97,NNW,343,1.0,8.0,83,0.00,,---,0.00,125.00,VWS V14.01,2012-11-07 13:24:00,
2012-11-07 08:25:00,58.1,53.0,29.97,North,358,0.0,8.0,83,0.00,,---,0.00,207.00,VWS V14.01,2012-11-07 13:25:00,
2012-11-07 08:26:00,58.7,53.2,29.97,North,9,1.0,8.0,82,0.00,,---,0.00,130.00,VWS V14.01,2012-11-07 13:26:00,
2012-11-07 08:27:00,58.8,53.3,29.97,NE,43,0.0,8.0,82,0.00,,---,0.00,88.00,VWS V14.01,2012-11-07 13:27:00,
2012-11-07 08:28:00,58.8,53.3,29.97,North,353,1.0,8.0,82,0.00,,---,0.00,88.00,VWS V14.01,2012-11-07 13:28:00,
2012-11-07 08:29:00,58.8,53.7,29.97,NNE,27,0.0,8.0,83,0.00,,---,0.00,88.00,VWS V14.01,2012-11-07 13:29:00,
2012-11-07 08:30:00,58.3,52.8,29.97,North,358,2.0,8.0,82,0.00,,---,0.00,102.00,VWS V14.01,2012-11-07 13:30:00,
2012-11-07 08:31:00,58.8,53.7,29.97,North,1,0.0,8.0,83,0.00,,---,0.00,141.00,VWS V14.01,2012-11-07 13:31:00,
2012-11-07 08:32:00,58.9,53.8,29.97,North,1,1.0,8.0,83,0.00,,---,0.00,141.00,VWS V14.01,2012-11-07 13:32:00,
2012-11-07 08:33:00,58.9,53.4,29.98,NE,38,0.0,8.0,82,0.00,,---,0.00,236.00,VWS V14.01,2012-11-07 13:33:00,
2012-11-07 08:34:00,58.9,53.4,29.98,NE,38,0.0,8.0,82,0.00,,---,0.00,236.00,VWS V14.01,2012-11-07 13:34:00,
2012-11-07 08:35:00,58.6,53.5,29.97,North,9,1.0,8.0,83,0.00,,---,0.00,130.00,VWS V14.01,2012-11-07 13:35:00,
2012-11-07 08:36:00,59.4,54.2,29.98,WNW,293,0.0,8.0,83,0.00,,---,0.00,290.00,VWS V14.01,2012-11-07 13:36:00,
2012-11-07 08:37:00,59.6,54.4,29.98,NNW,331,5.0,8.0,83,0.00,,---,0.00,290.00,VWS V14.01,2012-11-07 13:37:00,
2012-11-07 08:38:00,59.5,54.3,29.97,NNE,13,0.0,8.0,83,0.00,,---,0.00,290.00,VWS V14.01,2012-11-07 13:38:00,
2012-11-07 08:39:00,59.5,54.3,29.98,North,10,0.0,8.0,83,0.00,,---,0.00,290.00,VWS V14.01,2012-11-07 13:39:00,
2012-11-07 08:40:00,58.8,53.7,29.97,North,1,0.0,8.0,83,0.00,,---,0.00,141.00,VWS V14.01,2012-11-07 13:40:00,
2012-11-07 08:41:00,59.1,52.6,29.97,NW,321,3.0,8.0,79,0.00,,---,0.00,125.00,VWS V14.01,2012-11-07 13:41:00,
2012-11-07 08:42:00,59.0,53.2,29.98,NNW,331,1.0,8.0,81,0.00,,---,0.00,144.00,VWS V14.01,2012-11-07 13:42:00,
2012-11-07 08:43:00,58.9,53.4,29.98,NW,321,1.0,8.0,82,0.00,,---,0.00,144.00,VWS V14.01,2012-11-07 13:43:00,
2012-11-07 08:44:00,58.9,53.8,29.98,NW,321,0.0,8.0,83,0.00,,---,0.00,144.00,VWS V14.01,2012-11-07 13:44:00,
2012-11-07 08:45:00,59.4,54.2,29.98,WNW,293,0.0,8.0,83,0.00,,---,0.00,290.00,VWS V14.01,2012-11-07 13:45:00,
2012-11-07 08:46:00,59.0,53.8,29.98,NW,310,1.0,8.0,83,0.00,,---,0.00,213.00,VWS V14.01,2012-11-07 13:46:00,
2012-11-07 08:47:00,59.0,53.8,29.98,NE,41,1.0,8.0,83,0.00,,---,0.00,211.00,VWS V14.01,2012-11-07 13:47:00,
2012-11-07 08:48:00,59.0,53.8,29.98,NW,318,0.0,8.0,83,0.00,,---,0.00,211.00,VWS V14.01,2012-11-07 13:48:00,
2012-11-07 08:49:00,59.0,53.5,29.98,NW,324,4.0,8.0,82,0.00,,---,0.00,181.00,VWS V14.01,2012-11-07 13:49:00,
2012-11-07 08:50:00,59.1,52.6,29.97,NW,321,3.0,8.0,79,0.00,,---,0.00,125.00,VWS V14.01,2012-11-07 13:50:00,
2012-11-07 08:51:00,59.0,53.8,29.98,NNE,33,5.0,8.0,83,0.00,,---,0.00,153.00,VWS V14.01,2012-11-07 13:51:00,
2012-11-07 08:52:00,58.9,53.1,29.98,NNW,332,2.0,8.0,81,0.00,,---,0.00,153.00,VWS V14.01,2012-11-07 13:52:00,
2012-11-07 08:53:00,58.8,53.0,29.98,East,85,3.0,8.0,81,0.00,,---,0.00,176.00,VWS V14.01,2012-11-07 13:53:00,
2012-11-07 08:54:00,58.8,53.0,29.98,NNW,347,1.0,8.0,81,0.00,,---,0.00,176.00,VWS V14.01,2012-11-07 13:54:00,
2012-11-07 08:55:00,58.9,53.4,29.98,North,353,0.0,8.0,82,0.00,,---,0.00,176.00,VWS V14.01,2012-11-07 13:55:00,
2012-11-07 08:56:00,59.0,53.8,29.98,North,4,1.0,8.0,83,0.00,,---,0.00,211.00,VWS V14.01,2012-11-07 13:56:00,
2012-11-07 08:57:00,59.1,54.3,29.99,NW,316,2.0,8.0,84,0.00,,---,0.00,176.00,VWS V14.01,2012-11-07 13:57:00,
2012-11-07 08:58:00,59.1,54.3,29.99,NW,323,2.0,8.0,84,0.00,,---,0.00,176.00,VWS V14.01,2012-11-07 13:58:00,
2012-11-07 08:59:00,59.1,54.3,29.99,NNW,339,2.0,8.0,84,0.00,,---,0.00,176.00,VWS V14.01,2012-11-07 13:59:00,
2012-11-07 09:00:00,59.0,52.8,29.99,North,356,1.0,4.0,80,0.00,,---,0.00,176.00,VWS V14.01,2012-11-07 14:00:00,
2012-11-07 09:01:00,58.9,53.1,29.98,NW,310,4.0,8.0,81,0.00,,---,0.00,153.00,VWS V14.01,2012-11-07 14:01:00,
2012-11-07 09:02:00,59.1,53.6,29.99,NNW,337,1.0,4.0,82,0.00,,---,0.00,181.00,VWS V14.01,2012-11-07 14:02:00,
2012-11-07 09:03:00,59.1,53.3,29.99,NW,314,3.0,4.0,81,0.00,,---,0.00,181.00,VWS V14.01,2012-11-07 14:03:00,
2012-11-07 09:04:00,59.1,53.3,29.99,NNW,330,1.0,4.0,81,0.00,,---,0.00,181.00,VWS V14.01,2012-11-07 14:04:00,
2012-11-07 09:05:00,59.1,54.0,29.99,NNW,340,2.0,4.0,83,0.00,,---,0.00,211.00,VWS V14.01,2012-11-07 14:05:00,
2012-11-07 09:06:00,59.1,54.3,29.99,NNW,329,2.0,8.0,84,0.00,,---,0.00,176.00,VWS V14.01,2012-11-07 14:06:00,
2012-11-07 09:07:00,59.2,53.4,29.99,North,8,0.0,4.0,81,0.00,,---,0.00,206.00,VWS V14.01,2012-11-07 14:07:00,
2012-11-07 09:08:00,59.3,53.5,29.99,North,7,1.0,4.0,81,0.00,,---,0.00,206.00,VWS V14.01,2012-11-07 14:08:00,
2012-11-07 09:09:00,59.2,53.0,29.99,NNW,335,0.0,4.0,80,0.00,,---,0.00,206.00,VWS V14.01,2012-11-07 14:09:00,
2012-11-07 09:10:00,59.1,52.9,29.99,NNW,341,2.0,4.0,80,0.00,,---,0.00,206.00,VWS V14.01,2012-11-07 14:10:00,
2012-11-07 09:11:00,59.1,53.6,29.99,North,11,0.0,4.0,82,0.00,,---,0.00,181.00,VWS V14.01,2012-11-07 14:11:00,
2012-11-07 09:12:00,59.0,52.8,29.99,West,281,0.0,4.0,80,0.00,,---,0.00,153.00,VWS V14.01,2012-11-07 14:12:00,
2012-11-07 09:13:00,59.0,53.2,29.99,NW,304,5.0,5.0,81,0.00,,---,0.00,153.00,VWS V14.01,2012-11-07 14:13:00,
2012-11-07 09:14:00,59.1,52.9,29.99,NNW,341,0.0,5.0,80,0.00,,---,0.00,153.00,VWS V14.01,2012-11-07 14:14:00,
2012-11-07 09:15:00,59.1,52.9,29.99,North,350,2.0,5.0,80,0.00,,---,0.00,153.00,VWS V14.01,2012-11-07 14:15:00,
2012-11-07 09:16:00,59.2,53.4,29.99,North,8,0.0,4.0,81,0.00,,---,0.00,206.00,VWS V14.01,2012-11-07 14:16:00,
2012-11-07 09:17:00,59.0,52.2,29.99,NNW,345,3.0,5.0,78,0.00,,---,0.00,153.00,VWS V14.01,2012-11-07 14:17:00,
2012-11-07 09:18:00,58.9,52.1,29.99,NNW,327,2.0,5.0,78,0.00,,---,0.00,153.00,VWS V14.01,2012-11-07 14:18:00,
2012-11-07 09:19:00,59.0,52.5,29.99,NNW,336,5.0,5.0,79,0.00,,---,0.00,102.00,VWS V14.01,2012-11-07 14:19:00,
2012-11-07 09:20:00,58.9,52.1,29.99,NW,324,3.0,6.0,78,0.00,,---,0.00,102.00,VWS V14.01,2012-11-07 14:20:00,
2012-11-07 09:21:00,59.0,52.5,29.99,West,281,0.0,4.0,79,0.00,,---,0.00,153.00,VWS V14.01,2012-11-07 14:21:00,
2012-11-07 09:22:00,58.9,52.1,29.99,NNW,344,3.0,6.0,78,0.00,,---,0.00,134.00,VWS V14.01,2012-11-07 14:22:00,
2012-11-07 09:23:00,58.8,52.0,29.99,NNW,342,2.0,6.0,78,0.00,,---,0.00,165.00,VWS V14.01,2012-11-07 14:23:00,
2012-11-07 09:24:00,58.8,52.3,29.99,NE,50,0.0,6.0,79,0.00,,---,0.00,165.00,VWS V14.01,2012-11-07 14:24:00,
2012-11-07 09:25:00,58.9,52.1,29.99,NNW,342,3.0,6.0,78,0.00,,---,0.00,151.00,VWS V14.01,2012-11-07 14:25:00,
2012-11-07 09:26:00,59.0,52.2,29.99,NNW,345,3.0,5.0,78,0.00,,---,0.00,153.00,VWS V14.01,2012-11-07 14:26:00,
2012-11-07 09:27:00,58.9,52.4,29.99,NW,316,1.0,6.0,79,0.00,,---,0.00,151.00,VWS V14.01,2012-11-07 14:27:00,
2012-11-07 09:28:00,58.8,52.0,29.99,North,351,2.0,6.0,78,0.00,,---,0.00,151.00,VWS V14.01,2012-11-07 14:28:00,
2012-11-07 09:29:00,58.8,52.0,29.99,NNW,329,3.0,6.0,78,0.00,,---,0.00,151.00,VWS V14.01,2012-11-07 14:29:00,
2012-11-07 09:30:00,58.8,52.0,29.99,NNW,342,0.0,6.0,78,0.00,,---,0.00,151.00,VWS V14.01,2012-11-07 14:30:00,
2012-11-07 09:31:00,58.9,52.1,29.99,North,353,3.0,6.0,78,0.00,,---,0.00,134.00,VWS V14.01,2012-11-07 14:31:00,
2012-11-07 09:32:00,59.0,52.2,29.99,NNW,333,1.0,6.0,78,0.00,,---,0.00,151.00,VWS V14.01,2012-11-07 14:32:00,
2012-11-07 09:33:00,59.2,52.3,29.99,NNW,330,1.0,6.0,78,0.00,,---,0.00,151.00,VWS V14.01,2012-11-07 14:33:00,
2012-11-07 09:34:00,59.3,52.8,29.99,NNW,330,1.0,6.0,79,0.00,,---,0.00,151.00,VWS V14.01,2012-11-07 14:34:00,
2012-11-07 09:35:00,59.5,52.6,29.99,NNW,341,0.0,6.0,78,0.00,,---,0.00,151.00,VWS V14.01,2012-11-07 14:35:00,
2012-11-07 09:36:00,58.9,52.4,29.99,NW,316,1.0,6.0,79,0.00,,---,0.00,151.00,VWS V14.01,2012-11-07 14:36:00,
2012-11-07 09:37:00,59.7,52.8,29.99,North,355,5.0,6.0,78,0.00,,---,0.00,577.00,VWS V14.01,2012-11-07 14:37:00,
2012-11-07 09:38:00,59.9,52.3,29.99,NW,322,2.0,6.0,76,0.00,,---,0.00,585.00,VWS V14.01,2012-11-07 14:38:00,
2012-11-07 09:39:00,60.0,52.4,29.99,NNW,328,4.0,6.0,76,0.00,,---,0.00,585.00,VWS V14.01,2012-11-07 14:39:00,
2012-11-07 09:40:00,60.0,52.4,29.99,NW,322,1.0,6.0,76,0.00,,---,0.00,585.00,VWS V14.01,2012-11-07 14:40:00,
2012-11-07 09:41:00,59.0,52.2,29.99,NNW,333,1.0,6.0,78,0.00,,---,0.00,151.00,VWS V14.01,2012-11-07 14:41:00,
2012-11-07 09:42:00,60.1,52.2,29.99,NW,317,3.0,8.0,75,0.00,,---,0.00,585.00,VWS V14.01,2012-11-07 14:42:00,
2012-11-07 09:43:00,60.3,53.4,29.99,NNW,335,0.0,8.0,78,0.00,,---,0.00,571.00,VWS V14.01,2012-11-07 14:43:00,
2012-11-07 09:44:00,60.5,53.6,29.99,NNW,335,0.0,8.0,78,0.00,,---,0.00,582.00,VWS V14.01,2012-11-07 14:44:00,
2012-11-07 09:45:00,60.6,53.4,29.99,NNW,336,2.0,8.0,77,0.00,,---,0.00,582.00,VWS V14.01,2012-11-07 14:45:00,
2012-11-07 09:46:00,59.7,52.8,29.99,North,355,5.0,6.0,78,0.00,,---,0.00,577.00,VWS V14.01,2012-11-07 14:46:00,
2012-11-07 09:47:00,60.6,53.0,29.99,NW,325,2.0,8.0,76,0.00,,---,0.00,582.00,VWS V14.01,2012-11-07 14:47:00,
2012-11-07 09:48:00,60.9,52.9,29.99,NW,324,8.0,8.0,75,0.00,,---,0.00,582.00,VWS V14.01,2012-11-07 14:48:00,
2012-11-07 09:49:00,60.9,52.6,29.99,NNW,340,2.0,8.0,74,0.00,,---,0.00,582.00,VWS V14.01,2012-11-07 14:49:00,
2012-11-07 09:50:00,60.9,52.2,29.99,North,6,4.0,8.0,73,0.00,,---,0.00,582.00,VWS V14.01,2012-11-07 14:50:00,
2012-11-07 09:51:00,60.9,52.2,29.99,NNW,345,6.0,8.0,73,0.00,,---,0.00,582.00,VWS V14.01,2012-11-07 14:51:00,
2012-11-07 09:52:00,60.2,52.3,29.99,NNW,335,1.0,8.0,75,0.00,,---,0.00,585.00,VWS V14.01,2012-11-07 14:52:00,
2012-11-07 09:53:00,61.1,52.4,29.99,NNW,340,4.0,8.0,73,0.00,,---,0.00,582.00,VWS V14.01,2012-11-07 14:53:00,
2012-11-07 09:54:00,61.1,52.4,29.99,NNW,343,1.0,8.0,73,0.00,,---,0.00,582.00,VWS V14.01,2012-11-07 14:54:00,
2012-11-07 09:55:00,61.1,52.0,29.99,North,359,2.0,8.0,72,0.00,,---,0.00,355.00,VWS V14.01,2012-11-07 14:55:00,
2012-11-07 09:56:00,61.0,52.3,29.99,NNW,342,5.0,8.0,73,0.00,,---,0.00,355.00,VWS V14.01,2012-11-07 14:56:00,
2012-11-07 09:57:00,60.8,53.2,29.99,NNW,329,3.0,8.0,76,0.00,,---,0.00,582.00,VWS V14.01,2012-11-07 14:57:00,
2012-11-07 09:58:00,60.8,52.5,29.99,North,358,2.0,8.0,74,0.00,,---,0.00,355.00,VWS V14.01,2012-11-07 14:58:00,
2012-11-07 09:59:00,60.8,52.5,30.00,NNE,14,2.0,8.0,74,0.00,,---,0.00,355.00,VWS V14.01,2012-11-07 14:59:00,
2012-11-07 10:00:00,60.9,52.9,29.99,NNW,337,1.0,2.0,75,0.00,,---,0.00,418.00,VWS V14.01,2012-11-07 15:00:00,
2012-11-07 10:01:00,60.9,52.9,29.99,NW,317,2.0,2.0,75,0.00,,---,0.00,418.00,VWS V14.01,2012-11-07 15:01:00,
2012-11-07 10:02:00,61.0,52.3,29.99,NW,325,3.0,8.0,73,0.00,,---,0.00,582.00,VWS V14.01,2012-11-07 15:02:00,
2012-11-07 10:03:00,61.0,53.0,29.99,NNW,331,2.0,4.0,75,0.00,,---,0.00,193.00,VWS V14.01,2012-11-07 15:03:00,
2012-11-07 10:04:00,60.9,52.6,29.99,NNW,345,2.0,4.0,74,0.00,,---,0.00,193.00,VWS V14.01,2012-11-07 15:04:00,
2012-11-07 10:05:00,60.9,52.6,29.99,NNW,347,5.0,5.0,74,0.00,,---,0.00,193.00,VWS V14.01,2012-11-07 15:05:00,
2012-11-07 10:06:00,60.8,52.5,29.99,NNW,335,4.0,8.0,74,0.00,,---,0.00,250.00,VWS V14.01,2012-11-07 15:06:00,
2012-11-07 10:07:00,60.8,52.1,29.99,NNW,339,2.0,8.0,73,0.00,,---,0.00,355.00,VWS V14.01,2012-11-07 15:07:00,
2012-11-07 10:08:00,60.8,52.5,29.99,NW,316,5.0,8.0,74,0.00,,---,0.00,250.00,VWS V14.01,2012-11-07 15:08:00,
2012-11-07 10:09:00,60.9,52.9,29.99,WNW,302,2.0,8.0,75,0.00,,---,0.00,230.00,VWS V14.01,2012-11-07 15:09:00,
2012-11-07 10:10:00,60.9,53.3,29.99,NNW,339,0.0,8.0,76,0.00,,---,0.00,230.00,VWS V14.01,2012-11-07 15:10:00,
2012-11-07 10:11:00,61.0,53.0,29.99,NW,315,4.0,8.0,75,0.00,,---,0.00,230.00,VWS V14.01,2012-11-07 15:11:00,
2012-11-07 10:12:00,60.9,52.9,29.99,NNW,345,4.0,4.0,75,0.00,,---,0.00,193.00,VWS V14.01,2012-11-07 15:12:00,
2012-11-07 10:13:00,60.9,52.9,29.99,NNW,336,5.0,8.0,75,0.00,,---,0.00,229.00,VWS V14.01,2012-11-07 15:13:00,
2012-11-07 10:14:00,60.9,52.9,29.99,North,5,3.0,8.0,75,0.00,,---,0.00,229.00,VWS V14.01,2012-11-07 15:14:00,
2012-11-07 10:15:00,60.9,52.2,29.99,NW,323,1.0,8.0,73,0.00,,---,0.00,229.00,VWS V14.01,2012-11-07 15:15:00,
2012-11-07 10:16:00,60.9,52.2,29.99,NNW,327,3.0,8.0,73,0.00,,---,0.00,229.00,VWS V14.01,2012-11-07 15:16:00,
2012-11-07 10:17:00,60.8,52.5,29.99,NNW,339,4.0,8.0,74,0.00,,---,0.00,250.00,VWS V14.01,2012-11-07 15:17:00,
2012-11-07 10:18:00,60.8,52.5,29.99,NW,326,2.0,8.0,74,0.00,,---,0.00,229.00,VWS V14.01,2012-11-07 15:18:00,
2012-11-07 10:19:00,61.1,52.8,29.99,NNW,330,2.0,8.0,74,0.00,,---,0.00,229.00,VWS V14.01,2012-11-07 15:19:00,
2012-11-07 10:20:00,61.4,53.0,29.99,NNW,330,3.0,8.0,74,0.00,,---,0.00,765.00,VWS V14.01,2012-11-07 15:20:00,
2012-11-07 10:21:00,61.4,53.8,29.99,NNW,334,2.0,8.0,76,0.00,,---,0.00,812.00,VWS V14.01,2012-11-07 15:21:00,
2012-11-07 10:22:00,60.9,52.9,29.99,NNW,330,5.0,8.0,75,0.00,,---,0.00,225.00,VWS V14.01,2012-11-07 15:22:00,
2012-11-07 10:23:00,62.3,53.9,29.99,NNW,347,3.0,8.0,74,0.00,,---,0.00,812.00,VWS V14.01,2012-11-07 15:23:00,
2012-11-07 10:24:00,62.5,54.1,29.99,NNW,341,3.0,8.0,74,0.00,,---,0.00,812.00,VWS V14.01,2012-11-07 15:24:00,
2012-11-07 10:25:00,62.5,54.1,29.99,NNW,336,0.0,8.0,74,0.00,,---,0.00,812.00,VWS V14.01,2012-11-07 15:25:00,
2012-11-07 10:26:00,62.5,53.7,29.99,NNW,341,5.0,8.0,73,0.00,,---,0.00,267.00,VWS V14.01,2012-11-07 15:26:00,
2012-11-07 10:27:00,60.8,52.5,29.99,NW,319,3.0,8.0,74,0.00,,---,0.00,229.00,VWS V14.01,2012-11-07 15:27:00,
2012-11-07 10:28:00,62.3,53.9,29.99,NNW,339,5.0,8.0,74,0.00,,---,0.00,274.00,VWS V14.01,2012-11-07 15:28:00,
2012-11-07 10:29:00,62.3,53.9,29.99,North,355,5.0,8.0,74,0.00,,---,0.00,274.00,VWS V14.01,2012-11-07 15:29:00,
2012-11-07 10:30:00,62.2,53.1,29.99,North,357,1.0,8.0,72,0.00,,---,0.00,274.00,VWS V14.01,2012-11-07 15:30:00,
2012-11-07 10:31:00,62.0,52.5,29.99,NNW,329,5.0,8.0,71,0.00,,---,0.00,274.00,VWS V14.01,2012-11-07 15:31:00,
2012-11-07 10:32:00,62.1,53.7,29.99,NW,310,0.0,8.0,74,0.00,,---,0.00,812.00,VWS V14.01,2012-11-07 15:32:00,
2012-11-07 10:33:00,61.8,53.1,29.99,North,356,1.0,9.0,73,0.00,,---,0.00,274.00,VWS V14.01,2012-11-07 15:33:00,
2012-11-07 10:34:00,61.7,53.0,29.99,NNE,12,4.0,9.0,73,0.00,,---,0.00,274.00,VWS V14.01,2012-11-07 15:34:00,
2012-11-07 10:35:00,61.6,52.9,29.99,NNW,347,4.0,9.0,73,0.00,,---,0.00,283.00,VWS V14.01,2012-11-07 15:35:00,
2012-11-07 10:36:00,61.6,52.9,29.99,NE,41,2.0,9.0,73,0.00,,---,0.00,283.00,VWS V14.01,2012-11-07 15:36:00,
2012-11-07 10:37:00,62.4,54.0,29.99,NW,319,3.0,8.0,74,0.00,,---,0.00,274.00,VWS V14.01,2012-11-07 15:37:00,
2012-11-07 10:38:00,61.6,52.9,29.99,NW,315,3.0,9.0,73,0.00,,---,0.00,283.00,VWS V14.01,2012-11-07 15:38:00,
2012-11-07 10:39:00,61.6,53.2,29.99,NNW,329,4.0,9.0,74,0.00,,---,0.00,283.00,VWS V14.01,2012-11-07 15:39:00,
2012-11-07 10:40:00,61.7,53.0,29.99,NW,325,4.0,9.0,73,0.00,,---,0.00,283.00,VWS V14.01,2012-11-07 15:40:00,
2012-11-07 10:41:00,61.8,52.7,29.99,NNW,327,6.0,9.0,72,0.00,,---,0.00,283.00,VWS V14.01,2012-11-07 15:41:00,
2012-11-07 10:42:00,61.8,52.3,29.99,North,356,1.0,9.0,71,0.00,,---,0.00,274.00,VWS V14.01,2012-11-07 15:42:00,
2012-11-07 10:43:00,62.0,53.3,29.99,North,11,1.0,9.0,73,0.00,,---,0.00,283.00,VWS V14.01,2012-11-07 15:43:00,
2012-11-07 10:44:00,62.1,53.0,29.99,NNW,333,6.0,9.0,72,0.00,,---,0.00,260.00,VWS V14.01,2012-11-07 15:44:00,
2012-11-07 10:45:00,62.0,52.9,29.99,North,356,10.0,10.0,72,0.00,,---,0.00,260.00,VWS V14.01,2012-11-07 15:45:00,
2012-11-07 10:46:00,61.9,52.4,29.99,NNW,348,5.0,10.0,71,0.00,,---,0.00,260.00,VWS V14.01,2012-11-07 15:46:00,
2012-11-07 10:47:00,61.6,52.9,29.99,NNW,340,3.0,9.0,73,0.00,,---,0.00,283.00,VWS V14.01,2012-11-07 15:47:00,
2012-11-07 10:48:00,61.9,52.4,29.99,North,2,4.0,10.0,71,0.00,,---,0.00,260.00,VWS V14.01,2012-11-07 15:48:00,
2012-11-07 10:49:00,62.1,52.6,29.99,NNW,340,3.0,10.0,71,0.00,,---,0.00,260.00,VWS V14.01,2012-11-07 15:49:00,
2012-11-07 10:50:00,62.2,52.7,29.99,NW,309,2.0,10.0,71,0.00,,---,0.00,260.00,VWS V14.01,2012-11-07 15:50:00,
2012-11-07 10:51:00,62.2,53.5,29.98,North,354,2.0,10.0,73,0.00,,---,0.00,260.00,VWS V14.01,2012-11-07 15:51:00,
2012-11-07 10:52:00,62.0,53.3,29.99,North,11,1.0,9.0,73,0.00,,---,0.00,283.00,VWS V14.01,2012-11-07 15:52:00,
2012-11-07 10:53:00,62.6,54.2,29.98,North,6,3.0,10.0,74,0.00,,---,0.00,455.00,VWS V14.01,2012-11-07 15:53:00,
2012-11-07 10:54:00,62.5,52.6,29.98,NNW,330,6.0,10.0,70,0.00,,---,0.00,455.00,VWS V14.01,2012-11-07 15:54:00,
2012-11-07 10:55:00,62.5,52.2,29.98,NW,324,7.0,10.0,69,0.00,,---,0.00,455.00,VWS V14.01,2012-11-07 15:55:00,
2012-11-07 10:56:00,62.5,52.2,29.98,NW,314,4.0,10.0,69,0.00,,---,0.00,455.00,VWS V14.01,2012-11-07 15:56:00,
2012-11-07 10:57:00,61.9,52.4,29.99,North,2,4.0,10.0,71,0.00,,---,0.00,260.00,VWS V14.01,2012-11-07 15:57:00,
2012-11-07 10:58:00,62.6,52.3,29.98,NW,313,3.0,10.0,69,0.00,,---,0.00,606.00,VWS V14.01,2012-11-07 15:58:00,
2012-11-07 10:59:00,62.7,52.4,29.98,NW,312,4.0,10.0,69,0.00,,---,0.00,606.00,VWS V14.01,2012-11-07 15:59:00,
2012-11-07 11:00:00,62.7,52.4,29.98,NW,312,4.0,4.0,69,0.00,,---,0.00,606.00,VWS V14.01,2012-11-07 16:00:00,
2012-11-07 11:01:00,62.7,52.4,29.98,NW,312,4.0,4.0,69,0.00,,---,0.00,606.00,VWS V14.01,2012-11-07 16:01:00,
2012-11-07 11:02:00,62.5,54.1,29.98,NNW,341,3.0,10.0,74,0.00,,---,0.00,455.00,VWS V14.01,2012-11-07 16:02:00,
2012-11-07 11:03:00,62.6,52.3,29.98,North,360,6.0,6.0,69,0.00,,---,0.00,606.00,VWS V14.01,2012-11-07 16:03:00,
2012-11-07 11:04:00,62.6,52.3,29.98,NW,308,3.0,9.0,69,0.00,,---,0.00,606.00,VWS V14.01,2012-11-07 16:04:00,
2012-11-07 11:05:00,62.6,52.3,29.98,North,349,1.0,9.0,69,0.00,,---,0.00,279.00,VWS V14.01,2012-11-07 16:05:00,
2012-11-07 11:06:00,62.7,52.4,29.98,North,349,0.0,9.0,69,0.00,,---,0.00,279.00,VWS V14.01,2012-11-07 16:06:00,
2012-11-07 11:07:00,62.6,52.3,29.98,NNW,342,3.0,10.0,69,0.00,,---,0.00,606.00,VWS V14.01,2012-11-07 16:07:00,
2012-11-07 11:08:00,62.7,52.4,29.98,North,356,1.0,10.0,69,0.00,,---,0.00,279.00,VWS V14.01,2012-11-07 16:08:00,
2012-11-07 11:09:00,62.6,52.3,29.98,NNW,348,5.0,10.0,69,0.00,,---,0.00,285.00,VWS V14.01,2012-11-07 16:09:00,
2012-11-07 11:10:00,62.7,52.4,29.98,NW,322,2.0,10.0,69,0.00,,---,0.00,285.00,VWS V14.01,2012-11-07 16:10:00,
2012-11-07 11:11:00,62.6,53.1,29.98,NNW,347,0.0,10.0,71,0.00,,---,0.00,302.00,VWS V14.01,2012-11-07 16:11:00,
2012-11-07 11:12:00,62.7,52.4,29.98,NNW,329,3.0,4.0,69,0.00,,---,0.00,606.00,VWS V14.01,2012-11-07 16:12:00,
2012-11-07 11:13:00,62.6,53.1,29.98,NNE,33,3.0,10.0,71,0.00,,---,0.00,232.00,VWS V14.01,2012-11-07 16:13:00,
2012-11-07 11:14:00,62.6,53.1,29.98,NW,324,1.0,10.0,71,0.00,,---,0.00,232.00,VWS V14.01,2012-11-07 16:14:00,
2012-11-07 11:15:00,62.5,53.4,29.98,North,358,3.0,10.0,72,0.00,,---,0.00,171.00,VWS V14.01,2012-11-07 16:15:00,
2012-11-07 11:16:00,62.5,53.4,29.98,NW,326,3.0,10.0,72,0.00,,---,0.00,171.00,VWS V14.01,2012-11-07 16:16:00,
2012-11-07 11:17:00,62.7,52.4,29.98,NW,326,2.0,10.0,69,0.00,,---,0.00,279.00,VWS V14.01,2012-11-07 16:17:00,
2012-11-07 11:18:00,62.2,52.7,29.98,NNW,339,3.0,10.0,71,0.00,,---,0.00,167.00,VWS V14.01,2012-11-07 16:18:00,
2012-11-07 11:19:00,62.2,52.3,29.98,NNW,329,3.0,10.0,70,0.00,,---,0.00,167.00,VWS V14.01,2012-11-07 16:19:00,
2012-11-07 11:20:00,62.1,52.2,29.98,WNW,283,3.0,10.0,70,0.00,,---,0.00,167.00,VWS V14.01,2012-11-07 16:20:00,
2012-11-07 11:21:00,62.2,51.9,29.98,NNW,341,4.0,10.0,69,0.00,,---,0.00,167.00,VWS V14.01,2012-11-07 16:21:00,
2012-11-07 11:22:00,62.6,53.1,29.98,NNE,33,3.0,10.0,71,0.00,,---,0.00,232.00,VWS V14.01,2012-11-07 16:22:00,
2012-11-07 11:23:00,62.2,51.9,29.98,WNW,295,5.0,12.0,69,0.00,,---,0.00,290.00,VWS V14.01,2012-11-07 16:23:00,
2012-11-07 11:24:00,62.2,51.9,29.98,WNW,295,5.0,12.0,69,0.00,,---,0.00,290.00,VWS V14.01,2012-11-07 16:24:00,
2012-11-07 11:25:00,62.2,51.9,29.98,WNW,295,5.0,12.0,69,0.00,,---,0.00,290.00,VWS V14.01,2012-11-07 16:25:00,
2012-11-07 11:26:00,62.2,51.9,29.97,WNW,295,5.0,12.0,69,0.00,,---,0.00,290.00,VWS V14.01,2012-11-07 16:26:00,
2012-11-07 11:27:00,62.2,52.7,29.98,North,353,4.0,10.0,71,0.00,,---,0.00,167.00,VWS V14.01,2012-11-07 16:27:00,
2012-11-07 11:28:00,62.2,51.9,29.97,WNW,295,5.0,12.0,69,0.00,,---,0.00,290.00,VWS V14.01,2012-11-07 16:28:00,
2012-11-07 11:29:00,62.2,51.9,29.97,WNW,295,5.0,12.0,69,0.00,,---,0.00,290.00,VWS V14.01,2012-11-07 16:29:00,
2012-11-07 11:30:00,62.2,51.9,29.97,WNW,295,5.0,12.0,69,0.00,,---,0.00,290.00,VWS V14.01,2012-11-07 16:30:00,
2012-11-07 11:31:00,62.2,51.9,29.97,WNW,295,5.0,12.0,69,0.00,,---,0.00,290.00,VWS V14.01,2012-11-07 16:31:00,
2012-11-07 11:32:00,62.2,51.9,29.98,WNW,295,5.0,12.0,69,0.00,,---,0.00,290.00,VWS V14.01,2012-11-07 16:32:00,
2012-11-07 11:33:00,62.2,51.9,29.97,WNW,295,5.0,12.0,69,0.00,,---,0.00,290.00,VWS V14.01,2012-11-07 16:33:00,
2012-11-07 11:34:00,62.2,51.9,29.97,WNW,295,5.0,12.0,69,0.00,,---,0.00,290.00,VWS V14.01,2012-11-07 16:34:00,
2012-11-07 11:35:00,62.2,51.9,29.97,WNW,295,5.0,12.0,69,0.00,,---,0.00,290.00,VWS V14.01,2012-11-07 16:35:00,
2012-11-07 11:36:00,62.2,51.9,29.97,WNW,295,5.0,12.0,69,0.00,,---,0.00,290.00,VWS V14.01,2012-11-07 16:36:00,
2012-11-07 11:37:00,62.2,51.9,29.97,WNW,295,5.0,12.0,69,0.00,,---,0.00,290.00,VWS V14.01,2012-11-07 16:37:00,
2012-11-07 11:38:00,62.2,51.9,29.97,WNW,295,5.0,12.0,69,0.00,,---,0.00,290.00,VWS V14.01,2012-11-07 16:38:00,
2012-11-07 11:39:00,62.2,51.9,29.97,WNW,295,5.0,12.0,69,0.00,,---,0.00,290.00,VWS V14.01,2012-11-07 16:39:00,
2012-11-07 11:40:00,62.2,51.9,29.97,WNW,295,5.0,12.0,69,0.00,,---,0.00,290.00,VWS V14.01,2012-11-07 16:40:00,
2012-11-07 11:41:00,62.2,51.9,29.97,WNW,295,5.0,12.0,69,0.00,,---,0.00,290.00,VWS V14.01,2012-11-07 16:41:00,
2012-11-07 11:42:00,62.2,51.9,29.97,WNW,295,5.0,12.0,69,0.00,,---,0.00,290.00,VWS V14.01,2012-11-07 16:42:00,
2012-11-07 11:43:00,62.2,51.9,29.97,WNW,295,5.0,12.0,69,0.00,,---,0.00,290.00,VWS V14.01,2012-11-07 16:43:00,
2012-11-07 11:44:00,62.2,51.9,29.97,WNW,295,5.0,12.0,69,0.00,,---,0.00,290.00,VWS V14.01,2012-11-07 16:44:00,
2012-11-07 11:45:00,62.2,51.9,29.97,WNW,295,5.0,12.0,69,0.00,,---,0.00,290.00,VWS V14.01,2012-11-07 16:45:00,
2012-11-07 11:46:00,62.2,51.9,29.96,WNW,295,5.0,12.0,69,0.00,,---,0.00,290.00,VWS V14.01,2012-11-07 16:46:00,
2012-11-07 11:47:00,62.2,51.9,29.96,WNW,295,5.0,12.0,69,0.00,,---,0.00,290.00,VWS V14.01,2012-11-07 16:47:00,
2012-11-07 11:48:00,62.2,51.9,29.97,WNW,295,5.0,12.0,69,0.00,,---,0.00,290.00,VWS V14.01,2012-11-07 16:48:00,
2012-11-07 11:49:00,62.2,51.9,29.96,WNW,295,5.0,12.0,69,0.00,,---,0.00,290.00,VWS V14.01,2012-11-07 16:49:00,
2012-11-07 11:50:00,62.2,51.9,29.96,WNW,295,5.0,12.0,69,0.00,,---,0.00,290.00,VWS V14.01,2012-11-07 16:50:00,
2012-11-07 11:51:00,62.2,51.9,29.96,WNW,295,5.0,12.0,69,0.00,,---,0.00,290.00,VWS V14.01,2012-11-07 16:51:00,
2012-11-07 11:52:00,62.2,51.9,29.96,WNW,295,5.0,12.0,69,0.00,,---,0.00,290.00,VWS V14.01,2012-11-07 16:52:00,
2012-11-07 11:53:00,62.2,51.9,29.97,WNW,295,5.0,12.0,69,0.00,,---,0.00,290.00,VWS V14.01,2012-11-07 16:53:00,
2012-11-07 11:54:00,62.2,51.9,29.96,WNW,295,5.0,12.0,69,0.00,,---,0.00,290.00,VWS V14.01,2012-11-07 16:54:00,
2012-11-07 11:55:00,62.2,51.9,29.96,WNW,295,5.0,12.0,69,0.00,,---,0.00,290.00,VWS V14.01,2012-11-07 16:55:00,
2012-11-07 11:56:00,62.2,51.9,29.96,WNW,295,5.0,12.0,69,0.00,,---,0.00,290.00,VWS V14.01,2012-11-07 16:56:00,
2012-11-07 11:57:00,62.2,51.9,29.96,WNW,295,5.0,12.0,69,0.00,,---,0.00,290.00,VWS V14.01,2012-11-07 16:57:00,
2012-11-07 11:58:00,62.2,51.9,29.96,WNW,295,5.0,12.0,69,0.00,,---,0.00,290.00,VWS V14.01,2012-11-07 16:58:00,
2012-11-07 11:59:00,62.2,51.9,29.96,WNW,295,5.0,12.0,69,0.00,,---,0.00,290.00,VWS V14.01,2012-11-07 16:59:00,
2012-11-07 12:00:00,62.2,51.9,29.96,WNW,295,5.0,5.0,69,0.00,,---,0.00,290.00,VWS V14.01,2012-11-07 17:00:00,
2012-11-07 12:01:00,62.2,51.9,29.96,WNW,295,5.0,5.0,69,0.00,,---,0.00,290.00,VWS V14.01,2012-11-07 17:01:00,
2012-11-07 12:02:00,62.2,51.9,29.96,WNW,295,5.0,5.0,69,0.00,,---,0.00,290.00,VWS V14.01,2012-11-07 17:02:00,
2012-11-07 12:03:00,62.2,51.9,29.96,WNW,295,5.0,12.0,69,0.00,,---,0.00,290.00,VWS V14.01,2012-11-07 17:03:00,
2012-11-07 12:04:00,62.2,51.9,29.96,WNW,295,5.0,5.0,69,0.00,,---,0.00,290.00,VWS V14.01,2012-11-07 17:04:00,
2012-11-07 12:05:00,62.2,51.9,29.96,WNW,295,5.0,5.0,69,0.00,,---,0.00,290.00,VWS V14.01,2012-11-07 17:05:00,
2012-11-07 12:06:00,62.2,51.9,29.95,WNW,295,5.0,5.0,69,0.00,,---,0.00,290.00,VWS V14.01,2012-11-07 17:06:00,
2012-11-07 12:07:00,62.2,51.9,29.95,WNW,295,5.0,5.0,69,0.00,,---,0.00,290.00,VWS V14.01,2012-11-07 17:07:00,
2012-11-07 12:08:00,62.2,51.9,29.96,WNW,295,5.0,12.0,69,0.00,,---,0.00,290.00,VWS V14.01,2012-11-07 17:08:00,
2012-11-07 12:09:00,62.2,51.9,29.95,WNW,295,5.0,5.0,69,0.00,,---,0.00,290.00,VWS V14.01,2012-11-07 17:09:00,
2012-11-07 12:10:00,62.2,51.9,29.95,WNW,295,5.0,5.0,69,0.00,,---,0.00,290.00,VWS V14.01,2012-11-07 17:10:00,
2012-11-07 12:11:00,62.2,51.9,29.95,WNW,295,5.0,5.0,69,0.00,,---,0.00,290.00,VWS V14.01,2012-11-07 17:11:00,
2012-11-07 12:12:00,62.2,51.9,29.95,WNW,295,5.0,5.0,69,0.00,,---,0.00,290.00,VWS V14.01,2012-11-07 17:12:00,
2012-11-07 12:13:00,62.2,51.9,29.96,WNW,295,5.0,5.0,69,0.00,,---,0.00,290.00,VWS V14.01,2012-11-07 17:13:00,
2012-11-07 12:14:00,62.2,51.9,29.95,WNW,295,5.0,5.0,69,0.00,,---,0.00,290.00,VWS V14.01,2012-11-07 17:14:00,
2012-11-07 12:15:00,62.2,51.9,29.95,WNW,295,5.0,5.0,69,0.00,,---,0.00,290.00,VWS V14.01,2012-11-07 17:15:00,
2012-11-07 12:16:00,62.2,51.9,29.95,WNW,295,5.0,5.0,69,0.00,,---,0.00,290.00,VWS V14.01,2012-11-07 17:16:00,
2012-11-07 12:17:00,62.2,51.9,29.95,WNW,295,5.0,5.0,69,0.00,,---,0.00,290.00,VWS V14.01,2012-11-07 17:17:00,
2012-11-07 12:18:00,62.2,51.9,29.95,WNW,295,5.0,5.0,69,0.00,,---,0.00,290.00,VWS V14.01,2012-11-07 17:18:00,
2012-11-07 12:19:00,62.2,51.9,29.95,WNW,295,5.0,5.0,69,0.00,,---,0.00,290.00,VWS V14.01,2012-11-07 17:19:00,
2012-11-07 12:20:00,62.2,51.9,29.95,WNW,295,5.0,5.0,69,0.00,,---,0.00,290.00,VWS V14.01,2012-11-07 17:20:00,
2012-11-07 12:21:00,62.2,51.9,29.95,WNW,295,5.0,5.0,69,0.00,,---,0.00,290.00,VWS V14.01,2012-11-07 17:21:00,
2012-11-07 12:22:00,62.2,51.9,29.95,WNW,295,5.0,5.0,69,0.00,,---,0.00,290.00,VWS V14.01,2012-11-07 17:22:00,
2012-11-07 12:23:00,62.2,51.9,29.95,WNW,295,5.0,5.0,69,0.00,,---,0.00,290.00,VWS V14.01,2012-11-07 17:23:00,
2012-11-07 12:24:00,62.2,51.9,29.95,WNW,295,5.0,5.0,69,0.00,,---,0.00,290.00,VWS V14.01,2012-11-07 17:24:00,
2012-11-07 12:25:00,62.2,51.9,29.95,WNW,295,5.0,5.0,69,0.00,,---,0.00,290.00,VWS V14.01,2012-11-07 17:25:00,
2012-11-07 12:26:00,62.2,51.9,29.95,WNW,295,5.0,5.0,69,0.00,,---,0.00,290.00,VWS V14.01,2012-11-07 17:26:00,
2012-11-07 12:27:00,62.2,51.9,29.94,WNW,295,5.0,5.0,69,0.00,,---,0.00,290.00,VWS V14.01,2012-11-07 17:27:00,
2012-11-07 12:28:00,62.2,51.9,29.95,WNW,295,5.0,5.0,69,0.00,,---,0.00,290.00,VWS V14.01,2012-11-07 17:28:00,
2012-11-07 12:29:00,62.2,51.9,29.94,WNW,295,5.0,5.0,69,0.00,,---,0.00,290.00,VWS V14.01,2012-11-07 17:29:00,
2012-11-07 12:30:00,62.2,51.9,29.94,WNW,295,5.0,5.0,69,0.00,,---,0.00,290.00,VWS V14.01,2012-11-07 17:30:00,
2012-11-07 12:31:00,62.2,51.9,29.95,WNW,295,5.0,5.0,69,0.00,,---,0.00,290.00,VWS V14.01,2012-11-07 17:31:00,
2012-11-07 12:32:00,62.2,51.9,29.95,WNW,295,5.0,5.0,69,0.00,,---,0.00,290.00,VWS V14.01,2012-11-07 17:32:00,
2012-11-07 12:33:00,62.2,51.9,29.95,WNW,295,5.0,5.0,69,0.00,,---,0.00,290.00,VWS V14.01,2012-11-07 17:33:00,
2012-11-07 12:34:00,62.2,51.9,29.94,WNW,295,5.0,5.0,69,0.00,,---,0.00,290.00,VWS V14.01,2012-11-07 17:34:00,
2012-11-07 12:35:00,62.2,51.9,29.94,WNW,295,5.0,5.0,69,0.00,,---,0.00,290.00,VWS V14.01,2012-11-07 17:35:00,
2012-11-07 12:36:00,62.2,51.9,29.94,WNW,295,5.0,5.0,69,0.00,,---,0.00,290.00,VWS V14.01,2012-11-07 17:36:00,
2012-11-07 12:37:00,62.2,51.9,29.94,WNW,295,5.0,5.0,69,0.00,,---,0.00,290.00,VWS V14.01,2012-11-07 17:37:00,
2012-11-07 12:38:00,62.2,51.9,29.94,WNW,295,5.0,5.0,69,0.00,,---,0.00,290.00,VWS V14.01,2012-11-07 17:38:00,
2012-11-07 12:39:00,62.2,51.9,29.94,WNW,295,5.0,5.0,69,0.00,,---,0.00,290.00,VWS V14.01,2012-11-07 17:39:00,
2012-11-07 12:40:00,62.2,51.9,29.94,WNW,295,5.0,5.0,69,0.00,,---,0.00,290.00,VWS V14.01,2012-11-07 17:40:00,
2012-11-07 12:41:00,62.2,51.9,29.94,WNW,295,5.0,5.0,69,0.00,,---,0.00,290.00,VWS V14.01,2012-11-07 17:41:00,
2012-11-07 12:42:00,62.2,51.9,29.94,WNW,295,5.0,5.0,69,0.00,,---,0.00,290.00,VWS V14.01,2012-11-07 17:42:00,
2012-11-07 12:43:00,62.2,51.9,29.94,WNW,295,5.0,5.0,69,0.00,,---,0.00,290.00,VWS V14.01,2012-11-07 17:43:00,
2012-11-07 12:44:00,62.2,51.9,29.94,WNW,295,5.0,5.0,69,0.00,,---,0.00,290.00,VWS V14.01,2012-11-07 17:44:00,
2012-11-07 12:45:00,62.2,51.9,29.94,WNW,295,5.0,5.0,69,0.00,,---,0.00,290.00,VWS V14.01,2012-11-07 17:45:00,
2012-11-07 12:46:00,62.2,51.9,29.94,WNW,295,5.0,5.0,69,0.00,,---,0.00,290.00,VWS V14.01,2012-11-07 17:46:00,
2012-11-07 12:47:00,62.2,51.9,29.94,WNW,295,5.0,5.0,69,0.00,,---,0.00,290.00,VWS V14.01,2012-11-07 17:47:00,
2012-11-07 12:48:00,62.2,51.9,29.94,WNW,295,5.0,5.0,69,0.00,,---,0.00,290.00,VWS V14.01,2012-11-07 17:48:00,
2012-11-07 12:49:00,62.2,51.9,29.94,WNW,295,5.0,5.0,69,0.00,,---,0.00,290.00,VWS V14.01,2012-11-07 17:49:00,
2012-11-07 12:50:00,62.2,51.9,29.94,WNW,295,5.0,5.0,69,0.00,,---,0.00,290.00,VWS V14.01,2012-11-07 17:50:00,
2012-11-07 12:51:00,62.2,51.9,29.94,WNW,295,5.0,5.0,69,0.00,,---,0.00,290.00,VWS V14.01,2012-11-07 17:51:00,
2012-11-07 12:52:00,62.2,51.9,29.94,WNW,295,5.0,5.0,69,0.00,,---,0.00,290.00,VWS V14.01,2012-11-07 17:52:00,
2012-11-07 12:53:00,62.2,51.9,29.93,WNW,295,5.0,5.0,69,0.00,,---,0.00,290.00,VWS V14.01,2012-11-07 17:53:00,
2012-11-07 12:54:00,62.2,51.9,29.94,WNW,295,5.0,5.0,69,0.00,,---,0.00,290.00,VWS V14.01,2012-11-07 17:54:00,
2012-11-07 12:55:00,62.2,51.9,29.93,WNW,295,5.0,5.0,69,0.00,,---,0.00,290.00,VWS V14.01,2012-11-07 17:55:00,
2012-11-07 12:56:00,62.2,51.9,29.93,WNW,295,5.0,5.0,69,0.00,,---,0.00,290.00,VWS V14.01,2012-11-07 17:56:00,
2012-11-07 12:57:00,62.2,51.9,29.93,WNW,295,5.0,5.0,69,0.00,,---,0.00,290.00,VWS V14.01,2012-11-07 17:57:00,
2012-11-07 12:58:00,62.2,51.9,29.93,WNW,295,5.0,5.0,69,0.00,,---,0.00,290.00,VWS V14.01,2012-11-07 17:58:00,
2012-11-07 12:59:00,62.2,51.9,29.94,WNW,295,5.0,5.0,69,0.00,,---,0.00,290.00,VWS V14.01,2012-11-07 17:59:00,
2012-11-07 13:00:00,62.2,51.9,29.93,WNW,295,5.0,5.0,69,0.00,,---,0.00,290.00,VWS V14.01,2012-11-07 18:00:00,
2012-11-07 13:01:00,62.2,51.9,29.93,WNW,295,5.0,5.0,69,0.00,,---,0.00,290.00,VWS V14.01,2012-11-07 18:01:00,
2012-11-07 13:02:00,62.2,51.9,29.93,WNW,295,5.0,5.0,69,0.00,,---,0.00,290.00,VWS V14.01,2012-11-07 18:02:00,
2012-11-07 13:03:00,62.2,51.9,29.93,WNW,295,5.0,5.0,69,0.00,,---,0.00,290.00,VWS V14.01,2012-11-07 18:03:00,
2012-11-07 13:04:00,62.2,51.9,29.93,WNW,295,5.0,5.0,69,0.00,,---,0.00,290.00,VWS V14.01,2012-11-07 18:04:00,
2012-11-07 13:05:00,62.2,51.9,29.93,WNW,295,5.0,5.0,69,0.00,,---,0.00,290.00,VWS V14.01,2012-11-07 18:05:00,
2012-11-07 13:06:00,62.2,51.9,29.93,WNW,295,5.0,5.0,69,0.00,,---,0.00,290.00,VWS V14.01,2012-11-07 18:06:00,
2012-11-07 13:07:00,62.2,51.9,29.93,WNW,295,5.0,5.0,69,0.00,,---,0.00,290.00,VWS V14.01,2012-11-07 18:07:00,
2012-11-07 13:08:00,62.2,51.9,29.93,WNW,295,5.0,5.0,69,0.00,,---,0.00,290.00,VWS V14.01,2012-11-07 18:08:00,
2012-11-07 13:09:00,62.2,51.9,29.93,WNW,295,5.0,5.0,69,0.00,,---,0.00,290.00,VWS V14.01,2012-11-07 18:09:00,
2012-11-07 13:10:00,62.2,51.9,29.93,WNW,295,5.0,5.0,69,0.00,,---,0.00,290.00,VWS V14.01,2012-11-07 18:10:00,
2012-11-07 13:11:00,62.2,51.9,29.93,WNW,295,5.0,5.0,69,0.00,,---,0.00,290.00,VWS V14.01,2012-11-07 18:11:00,
2012-11-07 13:12:00,62.2,51.9,29.92,WNW,295,5.0,5.0,69,0.00,,---,0.00,290.00,VWS V14.01,2012-11-07 18:12:00,
2012-11-07 13:13:00,62.2,51.9,29.93,WNW,295,5.0,5.0,69,0.00,,---,0.00,290.00,VWS V14.01,2012-11-07 18:13:00,
2012-11-07 13:14:00,62.2,51.9,29.93,WNW,295,5.0,5.0,69,0.00,,---,0.00,290.00,VWS V14.01,2012-11-07 18:14:00,
2012-11-07 13:15:00,62.2,51.9,29.93,WNW,295,5.0,5.0,69,0.00,,---,0.00,290.00,VWS V14.01,2012-11-07 18:15:00,
2012-11-07 13:16:00,62.2,51.9,29.92,WNW,295,5.0,5.0,69,0.00,,---,0.00,290.00,VWS V14.01,2012-11-07 18:16:00,
2012-11-07 13:17:00,62.2,51.9,29.92,WNW,295,5.0,5.0,69,0.00,,---,0.00,290.00,VWS V14.01,2012-11-07 18:17:00,
2012-11-07 13:18:00,62.2,51.9,29.92,WNW,295,5.0,5.0,69,0.00,,---,0.00,290.00,VWS V14.01,2012-11-07 18:18:00,
2012-11-07 13:19:00,62.2,51.9,29.93,WNW,295,5.0,5.0,69,0.00,,---,0.00,290.00,VWS V14.01,2012-11-07 18:19:00,
2012-11-07 13:20:00,62.2,51.9,29.92,WNW,295,5.0,5.0,69,0.00,,---,0.00,290.00,VWS V14.01,2012-11-07 18:20:00,
2012-11-07 13:21:00,62.2,51.9,29.92,WNW,295,5.0,5.0,69,0.00,,---,0.00,290.00,VWS V14.01,2012-11-07 18:21:00,
2012-11-07 13:22:00,62.2,51.9,29.92,WNW,295,5.0,5.0,69,0.00,,---,0.00,290.00,VWS V14.01,2012-11-07 18:22:00,
2012-11-07 13:23:00,62.2,51.9,29.92,WNW,295,5.0,5.0,69,0.00,,---,0.00,290.00,VWS V14.01,2012-11-07 18:23:00,
2012-11-07 13:24:00,62.2,51.9,29.92,WNW,295,5.0,5.0,69,0.00,,---,0.00,290.00,VWS V14.01,2012-11-07 18:24:00,
2012-11-07 13:25:00,62.2,51.9,29.92,WNW,295,5.0,5.0,69,0.00,,---,0.00,290.00,VWS V14.01,2012-11-07 18:25:00,
2012-11-07 13:26:00,62.2,51.9,29.92,WNW,295,5.0,5.0,69,0.00,,---,0.00,290.00,VWS V14.01,2012-11-07 18:26:00,
2012-11-07 13:27:00,62.2,51.9,29.92,WNW,295,5.0,5.0,69,0.00,,---,0.00,290.00,VWS V14.01,2012-11-07 18:27:00,
2012-11-07 13:28:00,62.2,51.9,29.92,WNW,295,5.0,5.0,69,0.00,,---,0.00,290.00,VWS V14.01,2012-11-07 18:28:00,
2012-11-07 13:29:00,62.2,51.9,29.92,WNW,295,5.0,5.0,69,0.00,,---,0.00,290.00,VWS V14.01,2012-11-07 18:29:00,
2012-11-07 13:30:00,62.2,51.9,29.92,WNW,295,5.0,5.0,69,0.00,,---,0.00,290.00,VWS V14.01,2012-11-07 18:30:00,
2012-11-07 13:31:00,62.2,51.9,29.92,WNW,295,5.0,5.0,69,0.00,,---,0.00,290.00,VWS V14.01,2012-11-07 18:31:00,
2012-11-07 13:32:00,62.2,51.9,29.92,WNW,295,5.0,5.0,69,0.00,,---,0.00,290.00,VWS V14.01,2012-11-07 18:32:00,
2012-11-07 13:33:00,62.2,51.9,29.92,WNW,295,5.0,5.0,69,0.00,,---,0.00,290.00,VWS V14.01,2012-11-07 18:33:00,
2012-11-07 13:34:00,62.2,51.9,29.92,WNW,295,5.0,5.0,69,0.00,,---,0.00,290.00,VWS V14.01,2012-11-07 18:34:00,
2012-11-07 13:35:00,62.2,51.9,29.92,WNW,295,5.0,5.0,69,0.00,,---,0.00,290.00,VWS V14.01,2012-11-07 18:35:00,
2012-11-07 13:36:00,62.2,51.9,29.92,WNW,295,5.0,5.0,69,0.00,,---,0.00,290.00,VWS V14.01,2012-11-07 18:36:00,
2012-11-07 13:37:00,62.2,51.9,29.92,WNW,295,5.0,5.0,69,0.00,,---,0.00,290.00,VWS V14.01,2012-11-07 18:37:00,
2012-11-07 13:38:00,62.2,51.9,29.92,WNW,295,5.0,5.0,69,0.00,,---,0.00,290.00,VWS V14.01,2012-11-07 18:38:00,
2012-11-07 13:39:00,62.2,51.9,29.92,WNW,295,5.0,5.0,69,0.00,,---,0.00,290.00,VWS V14.01,2012-11-07 18:39:00,
2012-11-07 13:40:00,62.2,51.9,29.92,WNW,295,5.0,5.0,69,0.00,,---,0.00,290.00,VWS V14.01,2012-11-07 18:40:00,
2012-11-07 13:41:00,62.2,51.9,29.92,WNW,295,5.0,5.0,69,0.00,,---,0.00,290.00,VWS V14.01,2012-11-07 18:41:00,
2012-11-07 13:42:00,62.2,51.9,29.91,WNW,295,5.0,5.0,69,0.00,,---,0.00,290.00,VWS V14.01,2012-11-07 18:42:00,
2012-11-07 13:43:00,62.2,51.9,29.92,WNW,295,5.0,5.0,69,0.00,,---,0.00,290.00,VWS V14.01,2012-11-07 18:43:00,
2012-11-07 13:44:00,62.2,51.9,29.92,WNW,295,5.0,5.0,69,0.00,,---,0.00,290.00,VWS V14.01,2012-11-07 18:44:00,
2012-11-07 13:45:00,62.2,51.9,29.91,WNW,295,5.0,5.0,69,0.00,,---,0.00,290.00,VWS V14.01,2012-11-07 18:45:00,
2012-11-07 13:46:00,62.2,51.9,29.91,WNW,295,5.0,5.0,69,0.00,,---,0.00,290.00,VWS V14.01,2012-11-07 18:46:00,
2012-11-07 13:47:00,62.2,51.9,29.91,WNW,295,5.0,5.0,69,0.00,,---,0.00,290.00,VWS V14.01,2012-11-07 18:47:00,
2012-11-07 13:48:00,65.9,52.5,29.91,NNW,329,6.0,9.0,62,0.00,,---,0.00,290.00,VWS V14.01,2012-11-07 18:48:00,
2012-11-07 13:49:00,62.2,51.9,29.92,WNW,295,5.0,5.0,69,0.00,,---,0.00,290.00,VWS V14.01,2012-11-07 18:49:00,
2012-11-07 13:50:00,66.0,52.6,29.91,NW,307,8.0,9.0,62,0.00,,---,0.00,290.00,VWS V14.01,2012-11-07 18:50:00,
2012-11-07 13:51:00,65.9,52.5,29.91,NNW,341,4.0,11.0,62,0.00,,---,0.00,290.00,VWS V14.01,2012-11-07 18:51:00,
2012-11-07 13:52:00,65.9,52.5,29.91,NW,315,5.0,11.0,62,0.00,,---,0.00,733.00,VWS V14.01,2012-11-07 18:52:00,
2012-11-07 13:53:00,65.8,52.4,29.91,NNW,342,4.0,11.0,62,0.00,,---,0.00,733.00,VWS V14.01,2012-11-07 18:53:00,
2012-11-07 13:54:00,62.2,51.9,29.91,WNW,295,5.0,5.0,69,0.00,,---,0.00,290.00,VWS V14.01,2012-11-07 18:54:00,
2012-11-07 13:55:00,65.5,52.2,29.91,NW,307,3.0,11.0,62,0.00,,---,0.00,733.00,VWS V14.01,2012-11-07 18:55:00,
2012-11-07 13:56:00,65.4,50.7,29.91,North,358,3.0,11.0,59,0.00,,---,0.00,733.00,VWS V14.01,2012-11-07 18:56:00,
2012-11-07 13:57:00,65.6,50.9,29.91,WNW,303,3.0,11.0,59,0.00,,---,0.00,733.00,VWS V14.01,2012-11-07 18:57:00,
2012-11-07 13:58:00,65.6,50.9,29.91,WNW,301,5.0,11.0,59,0.00,,---,0.00,733.00,VWS V14.01,2012-11-07 18:58:00,
2012-11-07 13:59:00,66.0,52.6,29.91,NW,310,5.0,9.0,62,0.00,,---,0.00,290.00,VWS V14.01,2012-11-07 18:59:00,
2012-11-07 14:00:00,66.2,51.5,29.91,North,353,3.0,5.0,59,0.00,,---,0.00,715.00,VWS V14.01,2012-11-07 19:00:00,
2012-11-07 14:01:00,66.3,52.5,29.91,NW,304,2.0,5.0,61,0.00,,---,0.00,715.00,VWS V14.01,2012-11-07 19:01:00,
2012-11-07 14:02:00,66.6,52.8,29.91,NW,321,2.0,5.0,61,0.00,,---,0.00,715.00,VWS V14.01,2012-11-07 19:02:00,
2012-11-07 14:03:00,66.7,52.8,29.91,NNW,341,5.0,6.0,61,0.00,,---,0.00,715.00,VWS V14.01,2012-11-07 19:03:00,
2012-11-07 14:04:00,65.5,52.2,29.91,WNW,285,2.0,11.0,62,0.00,,---,0.00,733.00,VWS V14.01,2012-11-07 19:04:00,
2012-11-07 14:05:00,66.9,52.6,29.91,NNW,331,3.0,6.0,60,0.00,,---,0.00,758.00,VWS V14.01,2012-11-07 19:05:00,
2012-11-07 14:06:00,66.9,52.1,29.91,North,5,4.0,6.0,59,0.00,,---,0.00,731.00,VWS V14.01,2012-11-07 19:06:00,
2012-11-07 14:07:00,66.8,52.0,29.91,WNW,282,5.0,6.0,59,0.00,,---,0.00,731.00,VWS V14.01,2012-11-07 19:07:00,
2012-11-07 14:08:00,66.6,51.8,29.91,NW,310,3.0,6.0,59,0.00,,---,0.00,731.00,VWS V14.01,2012-11-07 19:08:00,
2012-11-07 14:09:00,65.6,50.9,29.91,North,353,5.0,5.0,59,0.00,,---,0.00,715.00,VWS V14.01,2012-11-07 19:09:00,
2012-11-07 14:10:00,66.4,51.7,29.91,North,9,6.0,6.0,59,0.00,,---,0.00,731.00,VWS V14.01,2012-11-07 19:10:00,
2012-11-07 14:11:00,66.3,51.1,29.91,North,4,3.0,8.0,58,0.00,,---,0.00,731.00,VWS V14.01,2012-11-07 19:11:00,
2012-11-07 14:12:00,66.3,51.1,29.91,North,350,5.0,8.0,58,0.00,,---,0.00,731.00,VWS V14.01,2012-11-07 19:12:00,
2012-11-07 14:13:00,66.1,51.4,29.91,NNW,335,3.0,8.0,59,0.00,,---,0.00,731.00,VWS V14.01,2012-11-07 19:13:00,
2012-11-07 14:14:00,66.9,52.6,29.91,NNW,331,3.0,6.0,60,0.00,,---,0.00,758.00,VWS V14.01,2012-11-07 19:14:00,
2012-11-07 14:15:00,65.9,52.1,29.91,North,353,5.0,8.0,61,0.00,,---,0.00,731.00,VWS V14.01,2012-11-07 19:15:00,
2012-11-07 14:16:00,65.8,51.5,29.91,NNW,341,10.0,10.0,60,0.00,,---,0.00,659.00,VWS V14.01,2012-11-07 19:16:00,
2012-11-07 14:17:00,65.6,51.4,29.91,North,358,2.0,10.0,60,0.00,,---,0.00,661.00,VWS V14.01,2012-11-07 19:17:00,
2012-11-07 14:18:00,65.4,51.2,29.91,North,351,4.0,10.0,60,0.00,,---,0.00,661.00,VWS V14.01,2012-11-07 19:18:00,
2012-11-07 14:19:00,66.4,51.7,29.91,North,9,6.0,6.0,59,0.00,,---,0.00,731.00,VWS V14.01,2012-11-07 19:19:00,
2012-11-07 14:20:00,65.2,51.9,29.91,NNW,341,3.0,10.0,62,0.00,,---,0.00,661.00,VWS V14.01,2012-11-07 19:20:00,
2012-11-07 14:21:00,65.2,51.4,29.91,East,93,3.0,10.0,61,0.00,,---,0.00,661.00,VWS V14.01,2012-11-07 19:21:00,
2012-11-07 14:22:00,65.2,51.9,29.91,NW,321,7.0,13.0,62,0.00,,---,0.00,661.00,VWS V14.01,2012-11-07 19:22:00,
2012-11-07 14:23:00,65.1,51.3,29.91,NNW,337,4.0,16.0,61,0.00,,---,0.00,664.00,VWS V14.01,2012-11-07 19:23:00,
2012-11-07 14:24:00,65.9,52.1,29.91,North,350,6.0,8.0,61,0.00,,---,0.00,731.00,VWS V14.01,2012-11-07 19:24:00,
2012-11-07 14:25:00,65.0,51.7,29.91,NNW,327,3.0,16.0,62,0.00,,---,0.00,624.00,VWS V14.01,2012-11-07 19:25:00,
2012-11-07 14:26:00,64.9,51.6,29.91,NNW,339,6.0,16.0,62,0.00,,---,0.00,647.00,VWS V14.01,2012-11-07 19:26:00,
2012-11-07 14:27:00,64.9,51.6,29.91,WNW,290,2.0,16.0,62,0.00,,---,0.00,647.00,VWS V14.01,2012-11-07 19:27:00,
2012-11-07 14:28:00,64.8,50.6,29.91,NNW,337,3.0,16.0,60,0.00,,---,0.00,647.00,VWS V14.01,2012-11-07 19:28:00,
2012-11-07 14:29:00,65.2,51.9,29.91,NE,42,1.0,10.0,62,0.00,,---,0.00,661.00,VWS V14.01,2012-11-07 19:29:00,
2012-11-07 14:30:00,64.7,51.0,29.91,NNW,329,3.0,16.0,61,0.00,,---,0.00,647.00,VWS V14.01,2012-11-07 19:30:00,
2012-11-07 14:31:00,64.7,51.0,29.91,NW,314,7.0,16.0,61,0.00,,---,0.00,647.00,VWS V14.01,2012-11-07 19:31:00,
2012-11-07 14:32:00,64.7,51.4,29.91,WNW,286,5.0,16.0,62,0.00,,---,0.00,647.00,VWS V14.01,2012-11-07 19:32:00,
2012-11-07 14:33:00,64.7,51.0,29.91,NW,309,5.0,16.0,61,0.00,,---,0.00,647.00,VWS V14.01,2012-11-07 19:33:00,
2012-11-07 14:34:00,64.7,51.0,29.91,NW,309,5.0,16.0,61,0.00,,---,0.00,647.00,VWS V14.01,2012-11-07 19:34:00,
2012-11-07 14:35:00,65.0,51.7,29.91,NW,316,3.0,16.0,62,0.00,,---,0.00,647.00,VWS V14.01,2012-11-07 19:35:00,
2012-11-07 14:36:00,64.7,51.0,29.91,NW,309,5.0,16.0,61,0.00,,---,0.00,647.00,VWS V14.01,2012-11-07 19:36:00,
2012-11-07 14:37:00,64.7,51.0,29.91,NW,309,5.0,16.0,61,0.00,,---,0.00,647.00,VWS V14.01,2012-11-07 19:37:00,
2012-11-07 14:38:00,64.7,51.0,29.91,NW,309,5.0,16.0,61,0.00,,---,0.00,647.00,VWS V14.01,2012-11-07 19:38:00,
2012-11-07 14:39:00,64.7,51.0,29.91,NW,309,5.0,16.0,61,0.00,,---,0.00,647.00,VWS V14.01,2012-11-07 19:39:00,
2012-11-07 14:40:00,64.7,51.0,29.91,NW,314,4.0,16.0,61,0.00,,---,0.00,647.00,VWS V14.01,2012-11-07 19:40:00,
2012-11-07 14:41:00,64.9,51.2,29.91,NW,312,3.0,16.0,61,0.00,,---,0.00,113.00,VWS V14.01,2012-11-07 19:41:00,
2012-11-07 14:42:00,64.9,51.2,29.91,NNW,342,4.0,16.0,61,0.00,,---,0.00,113.00,VWS V14.01,2012-11-07 19:42:00,
2012-11-07 14:43:00,64.6,51.3,29.91,NW,324,4.0,16.0,62,0.00,,---,0.00,113.00,VWS V14.01,2012-11-07 19:43:00,
2012-11-07 14:44:00,64.5,51.2,29.91,North,349,6.0,16.0,62,0.00,,---,0.00,113.00,VWS V14.01,2012-11-07 19:44:00,
2012-11-07 14:45:00,64.7,51.0,29.91,NW,309,5.0,16.0,61,0.00,,---,0.00,647.00,VWS V14.01,2012-11-07 19:45:00,
2012-11-07 14:46:00,64.5,50.8,29.91,North,349,7.0,16.0,61,0.00,,---,0.00,113.00,VWS V14.01,2012-11-07 19:46:00,
2012-11-07 14:47:00,64.6,50.9,29.91,NNW,344,2.0,16.0,61,0.00,,---,0.00,113.00,VWS V14.01,2012-11-07 19:47:00,
2012-11-07 14:48:00,64.7,51.0,29.91,North,351,3.0,16.0,61,0.00,,---,0.00,113.00,VWS V14.01,2012-11-07 19:48:00,
2012-11-07 14:49:00,64.7,52.3,29.91,NNW,339,3.0,16.0,64,0.00,,---,0.00,113.00,VWS V14.01,2012-11-07 19:49:00,
2012-11-07 14:50:00,64.9,51.2,29.91,NNW,334,4.0,16.0,61,0.00,,---,0.00,113.00,VWS V14.01,2012-11-07 19:50:00,
2012-11-07 14:51:00,65.0,52.1,29.91,NNW,344,4.0,16.0,63,0.00,,---,0.00,113.00,VWS V14.01,2012-11-07 19:51:00,
2012-11-07 14:52:00,65.0,52.1,29.91,NNW,344,4.0,16.0,63,0.00,,---,0.00,113.00,VWS V14.01,2012-11-07 19:52:00,
2012-11-07 14:53:00,65.0,52.1,29.91,NNW,344,4.0,16.0,63,0.00,,---,0.00,113.00,VWS V14.01,2012-11-07 19:53:00,
2012-11-07 14:54:00,65.0,52.1,29.91,NNW,344,4.0,16.0,63,0.00,,---,0.00,113.00,VWS V14.01,2012-11-07 19:54:00,
2012-11-07 14:55:00,64.5,50.8,29.91,North,353,8.0,16.0,61,0.00,,---,0.00,113.00,VWS V14.01,2012-11-07 19:55:00,
2012-11-07 14:56:00,65.0,52.1,29.90,NNW,344,4.0,16.0,63,0.00,,---,0.00,113.00,VWS V14.01,2012-11-07 19:56:00,
2012-11-07 14:57:00,65.0,52.1,29.91,NNW,344,4.0,16.0,63,0.00,,---,0.00,113.00,VWS V14.01,2012-11-07 19:57:00,
2012-11-07 14:58:00,65.0,52.1,29.91,NNW,344,4.0,16.0,63,0.00,,---,0.00,113.00,VWS V14.01,2012-11-07 19:58:00,
2012-11-07 14:59:00,65.0,50.8,29.91,NNW,342,3.0,16.0,60,0.00,,---,0.00,113.00,VWS V14.01,2012-11-07 19:59:00,
2012-11-07 15:00:00,65.0,52.1,29.91,North,349,4.0,16.0,63,0.00,,---,0.00,113.00,VWS V14.01,2012-11-07 20:00:00,
2012-11-07 15:01:00,65.0,51.2,29.91,ENE,59,3.0,6.0,61,0.00,,---,0.00,137.00,VWS V14.01,2012-11-07 20:01:00,
2012-11-07 15:02:00,65.0,51.2,29.91,NNE,25,6.0,7.0,61,0.00,,---,0.00,137.00,VWS V14.01,2012-11-07 20:02:00,
2012-11-07 15:03:00,64.9,51.6,29.91,NW,323,4.0,9.0,62,0.00,,---,0.00,137.00,VWS V14.01,2012-11-07 20:03:00,
2012-11-07 15:04:00,64.8,51.9,29.91,North,2,2.0,9.0,63,0.00,,---,0.00,123.00,VWS V14.01,2012-11-07 20:04:00,
2012-11-07 15:05:00,65.0,52.1,29.90,NNW,344,4.0,16.0,63,0.00,,---,0.00,113.00,VWS V14.01,2012-11-07 20:05:00,
2012-11-07 15:06:00,64.6,51.7,29.91,NE,50,4.0,9.0,63,0.00,,---,0.00,123.00,VWS V14.01,2012-11-07 20:06:00,
2012-11-07 15:07:00,64.6,51.7,29.91,NE,50,4.0,9.0,63,0.00,,---,0.00,123.00,VWS V14.01,2012-11-07 20:07:00,
2012-11-07 15:08:00,64.6,51.3,29.91,NNW,335,3.0,9.0,62,0.00,,---,0.00,135.00,VWS V14.01,2012-11-07 20:08:00,
2012-11-07 15:09:00,64.6,51.3,29.90,WNW,299,1.0,9.0,62,0.00,,---,0.00,135.00,VWS V14.01,2012-11-07 20:09:00,
2012-11-07 15:10:00,65.0,51.2,29.91,NW,326,3.0,6.0,61,0.00,,---,0.00,137.00,VWS V14.01,2012-11-07 20:10:00,
2012-11-07 15:11:00,64.6,51.3,29.90,WNW,299,1.0,9.0,62,0.00,,---,0.00,135.00,VWS V14.01,2012-11-07 20:11:00,
2012-11-07 15:12:00,64.6,50.9,29.91,NW,310,8.0,9.0,61,0.00,,---,0.00,135.00,VWS V14.01,2012-11-07 20:12:00,
2012-11-07 15:13:00,64.6,50.9,29.90,NW,316,1.0,9.0,61,0.00,,---,0.00,135.00,VWS V14.01,2012-11-07 20:13:00,
2012-11-07 15:14:00,64.6,50.0,29.90,WNW,283,2.0,9.0,59,0.00,,---,0.00,135.00,VWS V14.01,2012-11-07 20:14:00,
2012-11-07 15:15:00,64.7,51.8,29.91,NNW,329,9.0,9.0,63,0.00,,---,0.00,123.00,VWS V14.01,2012-11-07 20:15:00,
2012-11-07 15:16:00,64.6,50.0,29.90,NNW,327,3.0,9.0,59,0.00,,---,0.00,91.00,VWS V14.01,2012-11-07 20:16:00,
2012-11-07 15:17:00,64.6,50.9,29.90,North,353,9.0,9.0,61,0.00,,---,0.00,91.00,VWS V14.01,2012-11-07 20:17:00,
2012-11-07 15:18:00,64.7,50.5,29.90,NW,304,2.0,9.0,60,0.00,,---,0.00,67.00,VWS V14.01,2012-11-07 20:18:00,
2012-11-07 15:19:00,64.6,50.9,29.90,NW,312,4.0,9.0,61,0.00,,---,0.00,67.00,VWS V14.01,2012-11-07 20:19:00,
2012-11-07 15:20:00,64.6,51.3,29.90,WNW,299,1.0,9.0,62,0.00,,---,0.00,135.00,VWS V14.01,2012-11-07 20:20:00,
2012-11-07 15:21:00,64.4,50.7,29.90,NNW,329,5.0,9.0,61,0.00,,---,0.00,111.00,VWS V14.01,2012-11-07 20:21:00,
2012-11-07 15:22:00,64.3,50.6,29.90,North,350,4.0,9.0,61,0.00,,---,0.00,93.00,VWS V14.01,2012-11-07 20:22:00,
2012-11-07 15:23:00,64.1,50.4,29.90,NNE,27,2.0,9.0,61,0.00,,---,0.00,93.00,VWS V14.01,2012-11-07 20:23:00,
2012-11-07 15:24:00,63.9,50.2,29.91,WNW,285,5.0,9.0,61,0.00,,---,0.00,88.00,VWS V14.01,2012-11-07 20:24:00,
2012-11-07 15:25:00,64.6,49.5,29.90,NW,325,3.0,9.0,58,0.00,,---,0.00,91.00,VWS V14.01,2012-11-07 20:25:00,
2012-11-07 15:26:00,63.9,50.2,29.90,NW,316,4.0,9.0,61,0.00,,---,0.00,88.00,VWS V14.01,2012-11-07 20:26:00,
2012-11-07 15:27:00,63.9,50.2,29.90,NW,316,4.0,9.0,61,0.00,,---,0.00,88.00,VWS V14.01,2012-11-07 20:27:00,
2012-11-07 15:28:00,63.9,50.2,29.91,NW,316,4.0,9.0,61,0.00,,---,0.00,88.00,VWS V14.01,2012-11-07 20:28:00,
2012-11-07 15:29:00,63.9,50.2,29.91,NW,316,4.0,9.0,61,0.00,,---,0.00,88.00,VWS V14.01,2012-11-07 20:29:00,
2012-11-07 15:30:00,64.4,50.7,29.90,NNW,329,5.0,9.0,61,0.00,,---,0.00,111.00,VWS V14.01,2012-11-07 20:30:00,
2012-11-07 15:31:00,63.6,49.9,29.91,WNW,302,3.0,9.0,61,0.00,,---,0.00,88.00,VWS V14.01,2012-11-07 20:31:00,
2012-11-07 15:32:00,63.5,50.3,29.91,NNW,333,2.0,9.0,62,0.00,,---,0.00,69.00,VWS V14.01,2012-11-07 20:32:00,
2012-11-07 15:33:00,63.5,50.3,29.91,WNW,283,3.0,9.0,62,0.00,,---,0.00,72.00,VWS V14.01,2012-11-07 20:33:00,
2012-11-07 15:34:00,63.5,50.3,29.91,NNE,19,4.0,9.0,62,0.00,,---,0.00,58.00,VWS V14.01,2012-11-07 20:34:00,
2012-11-07 15:35:00,63.9,50.2,29.90,NW,316,4.0,9.0,61,0.00,,---,0.00,88.00,VWS V14.01,2012-11-07 20:35:00,
2012-11-07 15:36:00,63.6,50.4,29.91,NW,315,2.0,9.0,62,0.00,,---,0.00,60.00,VWS V14.01,2012-11-07 20:36:00,
2012-11-07 15:37:00,63.6,50.4,29.91,WNW,287,2.0,9.0,62,0.00,,---,0.00,60.00,VWS V14.01,2012-11-07 20:37:00,
2012-11-07 15:38:00,63.5,49.4,29.91,NW,320,0.0,9.0,60,0.00,,---,0.00,60.00,VWS V14.01,2012-11-07 20:38:00,
2012-11-07 15:39:00,63.5,49.4,29.91,NNW,329,2.0,9.0,60,0.00,,---,0.00,60.00,VWS V14.01,2012-11-07 20:39:00,
2012-11-07 15:40:00,63.6,49.9,29.91,WNW,302,3.0,9.0,61,0.00,,---,0.00,88.00,VWS V14.01,2012-11-07 20:40:00,
2012-11-07 15:41:00,63.5,49.4,29.91,NNW,328,2.0,9.0,60,0.00,,---,0.00,91.00,VWS V14.01,2012-11-07 20:41:00,
2012-11-07 15:42:00,63.6,50.4,29.91,NNW,341,2.0,9.0,62,0.00,,---,0.00,91.00,VWS V14.01,2012-11-07 20:42:00,
2012-11-07 15:43:00,63.6,50.4,29.91,NNW,341,2.0,9.0,62,0.00,,---,0.00,91.00,VWS V14.01,2012-11-07 20:43:00,
2012-11-07 15:44:00,63.6,50.4,29.91,NNW,341,2.0,9.0,62,0.00,,---,0.00,91.00,VWS V14.01,2012-11-07 20:44:00,
2012-11-07 15:45:00,63.6,50.4,29.91,NW,315,2.0,9.0,62,0.00,,---,0.00,60.00,VWS V14.01,2012-11-07 20:45:00,
2012-11-07 15:46:00,63.6,50.4,29.91,NNW,341,2.0,9.0,62,0.00,,---,0.00,91.00,VWS V14.01,2012-11-07 20:46:00,
2012-11-07 15:47:00,63.6,50.4,29.91,NNW,341,2.0,9.0,62,0.00,,---,0.00,91.00,VWS V14.01,2012-11-07 20:47:00,
2012-11-07 15:48:00,63.6,50.4,29.91,NNW,341,2.0,9.0,62,0.00,,---,0.00,91.00,VWS V14.01,2012-11-07 20:48:00,
2012-11-07 15:49:00,63.6,50.4,29.91,NNW,341,2.0,9.0,62,0.00,,---,0.00,91.00,VWS V14.01,2012-11-07 20:49:00,
2012-11-07 15:50:00,63.5,49.4,29.91,NNW,328,2.0,9.0,60,0.00,,---,0.00,91.00,VWS V14.01,2012-11-07 20:50:00,
2012-11-07 15:51:00,63.6,50.4,29.91,NNW,341,2.0,9.0,62,0.00,,---,0.00,91.00,VWS V14.01,2012-11-07 20:51:00,
2012-11-07 15:52:00,63.6,50.4,29.91,NNW,341,2.0,9.0,62,0.00,,---,0.00,91.00,VWS V14.01,2012-11-07 20:52:00,
2012-11-07 15:53:00,63.6,50.4,29.91,NNW,341,2.0,9.0,62,0.00,,---,0.00,91.00,VWS V14.01,2012-11-07 20:53:00,
2012-11-07 15:54:00,63.6,50.4,29.91,NNW,341,2.0,9.0,62,0.00,,---,0.00,91.00,VWS V14.01,2012-11-07 20:54:00,
2012-11-07 15:55:00,63.6,50.4,29.91,NNW,341,2.0,9.0,62,0.00,,---,0.00,91.00,VWS V14.01,2012-11-07 20:55:00,
2012-11-07 15:56:00,63.6,50.4,29.91,NNW,341,2.0,9.0,62,0.00,,---,0.00,91.00,VWS V14.01,2012-11-07 20:56:00,
2012-11-07 15:57:00,63.6,50.4,29.91,NNW,341,2.0,9.0,62,0.00,,---,0.00,91.00,VWS V14.01,2012-11-07 20:57:00,
2012-11-07 15:58:00,63.6,50.4,29.91,NNW,341,2.0,9.0,62,0.00,,---,0.00,91.00,VWS V14.01,2012-11-07 20:58:00,
2012-11-07 15:59:00,63.6,50.4,29.91,NNW,341,2.0,9.0,62,0.00,,---,0.00,91.00,VWS V14.01,2012-11-07 20:59:00,
2012-11-07 16:00:00,63.6,50.4,29.91,NNW,341,2.0,9.0,62,0.00,,---,0.00,91.00,VWS V14.01,2012-11-07 21:00:00,
2012-11-07 16:01:00,63.6,50.4,29.91,NNW,341,2.0,2.0,62,0.00,,---,0.00,91.00,VWS V14.01,2012-11-07 21:01:00,
2012-11-07 16:02:00,63.6,50.4,29.91,NNW,341,2.0,2.0,62,0.00,,---,0.00,91.00,VWS V14.01,2012-11-07 21:02:00,
2012-11-07 16:03:00,63.6,50.4,29.91,NNW,341,2.0,2.0,62,0.00,,---,0.00,91.00,VWS V14.01,2012-11-07 21:03:00,
2012-11-07 16:04:00,63.6,50.4,29.91,NNW,341,2.0,2.0,62,0.00,,---,0.00,91.00,VWS V14.01,2012-11-07 21:04:00,
2012-11-07 16:05:00,63.6,50.4,29.91,NNW,341,2.0,9.0,62,0.00,,---,0.00,91.00,VWS V14.01,2012-11-07 21:05:00,
2012-11-07 16:06:00,63.6,50.4,29.91,NNW,341,2.0,2.0,62,0.00,,---,0.00,91.00,VWS V14.01,2012-11-07 21:06:00,
2012-11-07 16:07:00,63.6,50.4,29.91,NNW,341,2.0,2.0,62,0.00,,---,0.00,91.00,VWS V14.01,2012-11-07 21:07:00,
2012-11-07 16:08:00,63.6,50.4,29.91,NNW,341,2.0,2.0,62,0.00,,---,0.00,91.00,VWS V14.01,2012-11-07 21:08:00,
2012-11-07 16:09:00,63.6,50.4,29.91,NNW,341,2.0,2.0,62,0.00,,---,0.00,91.00,VWS V14.01,2012-11-07 21:09:00,
2012-11-07 16:10:00,63.6,50.4,29.91,NNW,341,2.0,2.0,62,0.00,,---,0.00,91.00,VWS V14.01,2012-11-07 21:10:00,
2012-11-07 16:11:00,63.6,50.4,29.91,NNW,341,2.0,2.0,62,0.00,,---,0.00,91.00,VWS V14.01,2012-11-07 21:11:00,
2012-11-07 16:12:00,63.6,50.4,29.91,NNW,341,2.0,2.0,62,0.00,,---,0.00,91.00,VWS V14.01,2012-11-07 21:12:00,
2012-11-07 16:13:00,63.6,50.4,29.91,NNW,341,2.0,2.0,62,0.00,,---,0.00,91.00,VWS V14.01,2012-11-07 21:13:00,
2012-11-07 16:14:00,63.6,50.4,29.91,NNW,341,2.0,2.0,62,0.00,,---,0.00,91.00,VWS V14.01,2012-11-07 21:14:00,
2012-11-07 16:15:00,63.6,50.4,29.91,NNW,341,2.0,2.0,62,0.00,,---,0.00,91.00,VWS V14.01,2012-11-07 21:15:00,
2012-11-07 16:16:00,63.6,50.4,29.91,NNW,341,2.0,2.0,62,0.00,,---,0.00,91.00,VWS V14.01,2012-11-07 21:16:00,
2012-11-07 16:17:00,63.6,50.4,29.92,NNW,341,2.0,2.0,62,0.00,,---,0.00,91.00,VWS V14.01,2012-11-07 21:17:00,
2012-11-07 16:18:00,63.6,50.4,29.91,NNW,341,2.0,2.0,62,0.00,,---,0.00,91.00,VWS V14.01,2012-11-07 21:18:00,
2012-11-07 16:19:00,63.6,50.4,29.92,NNW,341,2.0,2.0,62,0.00,,---,0.00,91.00,VWS V14.01,2012-11-07 21:19:00,
2012-11-07 16:20:00,63.6,50.4,29.91,NNW,341,2.0,2.0,62,0.00,,---,0.00,91.00,VWS V14.01,2012-11-07 21:20:00,
2012-11-07 16:21:00,63.6,50.4,29.92,NNW,341,2.0,2.0,62,0.00,,---,0.00,91.00,VWS V14.01,2012-11-07 21:21:00,
2012-11-07 16:22:00,63.6,50.4,29.92,NNW,341,2.0,2.0,62,0.00,,---,0.00,91.00,VWS V14.01,2012-11-07 21:22:00,
2012-11-07 16:23:00,63.6,50.4,29.92,NNW,341,2.0,2.0,62,0.00,,---,0.00,91.00,VWS V14.01,2012-11-07 21:23:00,
2012-11-07 16:24:00,63.6,50.4,29.92,NNW,341,2.0,2.0,62,0.00,,---,0.00,91.00,VWS V14.01,2012-11-07 21:24:00,
2012-11-07 16:25:00,63.6,50.4,29.91,NNW,341,2.0,2.0,62,0.00,,---,0.00,91.00,VWS V14.01,2012-11-07 21:25:00,
2012-11-07 16:26:00,63.6,50.4,29.92,NNW,341,2.0,2.0,62,0.00,,---,0.00,91.00,VWS V14.01,2012-11-07 21:26:00,
2012-11-07 16:27:00,63.6,50.4,29.92,NNW,341,2.0,2.0,62,0.00,,---,0.00,91.00,VWS V14.01,2012-11-07 21:27:00,
2012-11-07 16:28:00,63.6,50.4,29.92,NNW,341,2.0,2.0,62,0.00,,---,0.00,91.00,VWS V14.01,2012-11-07 21:28:00,
2012-11-07 16:29:00,63.6,50.4,29.92,NNW,341,2.0,2.0,62,0.00,,---,0.00,91.00,VWS V14.01,2012-11-07 21:29:00,
2012-11-07 16:30:00,63.6,50.4,29.92,NNW,341,2.0,2.0,62,0.00,,---,0.00,91.00,VWS V14.01,2012-11-07 21:30:00,
2012-11-07 16:31:00,63.6,50.4,29.92,NNW,341,2.0,2.0,62,0.00,,---,0.00,91.00,VWS V14.01,2012-11-07 21:31:00,
2012-11-07 16:32:00,63.6,50.4,29.92,NNW,341,2.0,2.0,62,0.00,,---,0.00,91.00,VWS V14.01,2012-11-07 21:32:00,
2012-11-07 16:33:00,63.6,50.4,29.92,NNW,341,2.0,2.0,62,0.00,,---,0.00,91.00,VWS V14.01,2012-11-07 21:33:00,
2012-11-07 16:34:00,63.6,50.4,29.92,NNW,341,2.0,2.0,62,0.00,,---,0.00,91.00,VWS V14.01,2012-11-07 21:34:00,
2012-11-07 16:35:00,63.6,50.4,29.92,NNW,341,2.0,2.0,62,0.00,,---,0.00,91.00,VWS V14.01,2012-11-07 21:35:00,
2012-11-07 16:36:00,63.6,50.4,29.92,NNW,341,2.0,2.0,62,0.00,,---,0.00,91.00,VWS V14.01,2012-11-07 21:36:00,
2012-11-07 16:37:00,63.6,50.4,29.92,NNW,341,2.0,2.0,62,0.00,,---,0.00,91.00,VWS V14.01,2012-11-07 21:37:00,
2012-11-07 16:38:00,63.6,50.4,29.92,NNW,341,2.0,2.0,62,0.00,,---,0.00,91.00,VWS V14.01,2012-11-07 21:38:00,
2012-11-07 16:39:00,63.6,50.4,29.92,NNW,341,2.0,2.0,62,0.00,,---,0.00,91.00,VWS V14.01,2012-11-07 21:39:00,
2012-11-07 16:40:00,63.6,50.4,29.92,NNW,341,2.0,2.0,62,0.00,,---,0.00,91.00,VWS V14.01,2012-11-07 21:40:00,
2012-11-07 16:41:00,63.6,50.4,29.92,NNW,341,2.0,2.0,62,0.00,,---,0.00,91.00,VWS V14.01,2012-11-07 21:41:00,
2012-11-07 16:42:00,63.6,50.4,29.92,NNW,341,2.0,2.0,62,0.00,,---,0.00,91.00,VWS V14.01,2012-11-07 21:42:00,
2012-11-07 16:43:00,63.6,50.4,29.92,NNW,341,2.0,2.0,62,0.00,,---,0.00,91.00,VWS V14.01,2012-11-07 21:43:00,
2012-11-07 16:44:00,63.6,50.4,29.92,NNW,341,2.0,2.0,62,0.00,,---,0.00,91.00,VWS V14.01,2012-11-07 21:44:00,
2012-11-07 16:45:00,63.6,50.4,29.92,NNW,341,2.0,2.0,62,0.00,,---,0.00,91.00,VWS V14.01,2012-11-07 21:45:00,
2012-11-07 16:46:00,63.6,50.4,29.92,NNW,341,2.0,2.0,62,0.00,,---,0.00,91.00,VWS V14.01,2012-11-07 21:46:00,
2012-11-07 16:47:00,63.6,50.4,29.92,NNW,341,2.0,2.0,62,0.00,,---,0.00,91.00,VWS V14.01,2012-11-07 21:47:00,
2012-11-07 16:48:00,63.6,50.4,29.92,NNW,341,2.0,2.0,62,0.00,,---,0.00,91.00,VWS V14.01,2012-11-07 21:48:00,
2012-11-07 16:49:00,63.6,50.4,29.92,NNW,341,2.0,2.0,62,0.00,,---,0.00,91.00,VWS V14.01,2012-11-07 21:49:00,
2012-11-07 16:50:00,63.6,50.4,29.92,NNW,341,2.0,2.0,62,0.00,,---,0.00,91.00,VWS V14.01,2012-11-07 21:50:00,
2012-11-07 16:51:00,63.6,50.4,29.92,NNW,341,2.0,2.0,62,0.00,,---,0.00,91.00,VWS V14.01,2012-11-07 21:51:00,
2012-11-07 16:52:00,63.6,50.4,29.92,NNW,341,2.0,2.0,62,0.00,,---,0.00,91.00,VWS V14.01,2012-11-07 21:52:00,
2012-11-07 16:53:00,63.6,50.4,29.92,NNW,341,2.0,2.0,62,0.00,,---,0.00,91.00,VWS V14.01,2012-11-07 21:53:00,
2012-11-07 16:54:00,63.6,50.4,29.92,NNW,341,2.0,2.0,62,0.00,,---,0.00,91.00,VWS V14.01,2012-11-07 21:54:00,
2012-11-07 16:55:00,63.6,50.4,29.92,NNW,341,2.0,2.0,62,0.00,,---,0.00,91.00,VWS V14.01,2012-11-07 21:55:00,
2012-11-07 16:56:00,63.6,50.4,29.92,NNW,341,2.0,2.0,62,0.00,,---,0.00,91.00,VWS V14.01,2012-11-07 21:56:00,
2012-11-07 16:57:00,63.6,50.4,29.92,NNW,341,2.0,2.0,62,0.00,,---,0.00,91.00,VWS V14.01,2012-11-07 21:57:00,
2012-11-07 16:58:00,63.6,50.4,29.92,NNW,341,2.0,2.0,62,0.00,,---,0.00,91.00,VWS V14.01,2012-11-07 21:58:00,
2012-11-07 16:59:00,63.6,50.4,29.92,NNW,341,2.0,2.0,62,0.00,,---,0.00,91.00,VWS V14.01,2012-11-07 21:59:00,
2012-11-07 17:00:00,63.6,50.4,29.92,NNW,341,2.0,2.0,62,0.00,,---,0.00,91.00,VWS V14.01,2012-11-07 22:00:00,
2012-11-07 17:01:00,61.9,48.8,29.92,NNW,331,1.0,2.0,62,0.00,,---,0.00,91.00,VWS V14.01,2012-11-07 22:01:00,
2012-11-07 17:02:00,61.9,51.2,29.92,North,357,2.0,3.0,68,0.00,,---,0.00,33.00,VWS V14.01,2012-11-07 22:02:00,
2012-11-07 17:03:00,61.9,51.6,29.92,NNW,335,2.0,3.0,69,0.00,,---,0.00,33.00,VWS V14.01,2012-11-07 22:03:00,
2012-11-07 17:04:00,61.9,51.2,29.92,NNW,341,3.0,3.0,68,0.00,,---,0.00,26.00,VWS V14.01,2012-11-07 22:04:00,
2012-11-07 17:05:00,63.6,50.4,29.92,NNW,341,2.0,2.0,62,0.00,,---,0.00,91.00,VWS V14.01,2012-11-07 22:05:00,
2012-11-07 17:06:00,61.9,51.2,29.92,NNW,344,3.0,3.0,68,0.00,,---,0.00,21.00,VWS V14.01,2012-11-07 22:06:00,
2012-11-07 17:07:00,61.9,51.6,29.92,NNW,341,1.0,3.0,69,0.00,,---,0.00,18.00,VWS V14.01,2012-11-07 22:07:00,
2012-11-07 17:08:00,61.9,51.6,29.92,NNW,341,0.0,3.0,69,0.00,,---,0.00,18.00,VWS V14.01,2012-11-07 22:08:00,
2012-11-07 17:09:00,61.8,51.5,29.92,NNW,333,3.0,3.0,69,0.00,,---,0.00,18.00,VWS V14.01,2012-11-07 22:09:00,
2012-11-07 17:10:00,61.9,48.8,29.92,NNW,333,2.0,2.0,62,0.00,,---,0.00,91.00,VWS V14.01,2012-11-07 22:10:00,
2012-11-07 17:11:00,61.7,51.0,29.92,NNW,336,3.0,4.0,68,0.00,,---,0.00,18.00,VWS V14.01,2012-11-07 22:11:00,
2012-11-07 17:12:00,61.7,51.0,29.92,NNW,336,1.0,4.0,68,0.00,,---,0.00,16.00,VWS V14.01,2012-11-07 22:12:00,
2012-11-07 17:13:00,61.7,51.0,29.92,NNW,332,2.0,4.0,68,0.00,,---,0.00,16.00,VWS V14.01,2012-11-07 22:13:00,
2012-11-07 17:14:00,61.7,51.0,29.92,North,350,3.0,4.0,68,0.00,,---,0.00,16.00,VWS V14.01,2012-11-07 22:14:00,
2012-11-07 17:15:00,61.9,51.2,29.92,NNW,344,3.0,3.0,68,0.00,,---,0.00,21.00,VWS V14.01,2012-11-07 22:15:00,
2012-11-07 17:16:00,61.6,51.0,29.92,NNW,334,1.0,4.0,68,0.00,,---,0.00,12.00,VWS V14.01,2012-11-07 22:16:00,
2012-11-07 17:17:00,61.6,50.5,29.92,NW,322,1.0,4.0,67,0.00,,---,0.00,12.00,VWS V14.01,2012-11-07 22:17:00,
2012-11-07 17:18:00,61.5,50.8,29.92,NW,314,4.0,4.0,68,0.00,,---,0.00,12.00,VWS V14.01,2012-11-07 22:18:00,
2012-11-07 17:19:00,61.5,50.5,29.92,NNE,27,3.0,5.0,67,0.00,,---,0.00,12.00,VWS V14.01,2012-11-07 22:19:00,
2012-11-07 17:20:00,61.7,51.0,29.92,NNW,337,3.0,4.0,68,0.00,,---,0.00,18.00,VWS V14.01,2012-11-07 22:20:00,
2012-11-07 17:21:00,61.5,50.5,29.92,NW,312,2.0,5.0,67,0.00,,---,0.00,11.00,VWS V14.01,2012-11-07 22:21:00,
2012-11-07 17:22:00,61.4,50.4,29.92,NNW,338,1.0,5.0,67,0.00,,---,0.00,7.00,VWS V14.01,2012-11-07 22:22:00,
2012-11-07 17:23:00,61.4,50.8,29.92,NNW,345,1.0,5.0,68,0.00,,---,0.00,7.00,VWS V14.01,2012-11-07 22:23:00,
2012-11-07 17:24:00,61.4,51.2,29.92,NNW,338,3.0,5.0,69,0.00,,---,0.00,7.00,VWS V14.01,2012-11-07 22:24:00,
2012-11-07 17:25:00,61.6,51.0,29.92,NNW,334,1.0,4.0,68,0.00,,---,0.00,12.00,VWS V14.01,2012-11-07 22:25:00,
2012-11-07 17:26:00,61.3,50.7,29.92,NNW,335,1.0,5.0,68,0.00,,---,0.00,5.00,VWS V14.01,2012-11-07 22:26:00,
2012-11-07 17:27:00,61.3,50.7,29.92,North,356,4.0,5.0,68,0.00,,---,0.00,5.00,VWS V14.01,2012-11-07 22:27:00,
2012-11-07 17:28:00,61.3,50.7,29.92,NNW,347,1.0,5.0,68,0.00,,---,0.00,5.00,VWS V14.01,2012-11-07 22:28:00,
2012-11-07 17:29:00,61.2,50.6,29.92,NNW,347,1.0,5.0,68,0.00,,---,0.00,0.00,VWS V14.01,2012-11-07 22:29:00,
2012-11-07 17:30:00,61.5,50.5,29.92,NW,322,1.0,5.0,67,0.00,,---,0.00,11.00,VWS V14.01,2012-11-07 22:30:00,
2012-11-07 17:31:00,61.1,50.5,29.92,NNW,331,1.0,5.0,68,0.00,,---,0.00,0.00,VWS V14.01,2012-11-07 22:31:00,
2012-11-07 17:32:00,61.1,50.5,29.92,NNW,340,1.0,5.0,68,0.00,,---,0.00,0.00,VWS V14.01,2012-11-07 22:32:00,
2012-11-07 17:33:00,61.1,50.5,29.92,NNW,329,3.0,5.0,68,0.00,,---,0.00,0.00,VWS V14.01,2012-11-07 22:33:00,
2012-11-07 17:34:00,61.0,50.4,29.92,NW,314,1.0,5.0,68,0.00,,---,0.00,0.00,VWS V14.01,2012-11-07 22:34:00,
2012-11-07 17:35:00,61.3,50.7,29.92,NNW,335,1.0,5.0,68,0.00,,---,0.00,5.00,VWS V14.01,2012-11-07 22:35:00,
2012-11-07 17:36:00,61.0,50.0,29.92,NW,324,3.0,5.0,67,0.00,,---,0.00,0.00,VWS V14.01,2012-11-07 22:36:00,
2012-11-07 17:37:00,60.9,49.9,29.93,NNW,337,3.0,5.0,67,0.00,,---,0.00,0.00,VWS V14.01,2012-11-07 22:37:00,
2012-11-07 17:38:00,60.9,49.9,29.93,NW,311,4.0,6.0,67,0.00,,---,0.00,0.00,VWS V14.01,2012-11-07 22:38:00,
2012-11-07 17:39:00,60.9,49.9,29.93,NNW,336,5.0,6.0,67,0.00,,---,0.00,0.00,VWS V14.01,2012-11-07 22:39:00,
2012-11-07 17:40:00,61.1,50.5,29.92,NNW,331,1.0,5.0,68,0.00,,---,0.00,0.00,VWS V14.01,2012-11-07 22:40:00,
2012-11-07 17:41:00,60.8,49.8,29.93,NNW,337,2.0,6.0,67,0.00,,---,0.00,0.00,VWS V14.01,2012-11-07 22:41:00,
2012-11-07 17:42:00,60.8,49.4,29.93,NW,322,4.0,7.0,66,0.00,,---,0.00,0.00,VWS V14.01,2012-11-07 22:42:00,
2012-11-07 17:43:00,60.8,49.4,29.93,NW,326,3.0,7.0,66,0.00,,---,0.00,0.00,VWS V14.01,2012-11-07 22:43:00,
2012-11-07 17:44:00,60.8,49.4,29.93,NNW,342,2.0,7.0,66,0.00,,---,0.00,0.00,VWS V14.01,2012-11-07 22:44:00,
2012-11-07 17:45:00,61.0,50.4,29.92,NNW,331,2.0,5.0,68,0.00,,---,0.00,0.00,VWS V14.01,2012-11-07 22:45:00,
2012-11-07 17:46:00,60.7,49.7,29.93,North,4,4.0,7.0,67,0.00,,---,0.00,0.00,VWS V14.01,2012-11-07 22:46:00,
2012-11-07 17:47:00,60.7,49.3,29.93,NNE,14,1.0,7.0,66,0.00,,---,0.00,0.00,VWS V14.01,2012-11-07 22:47:00,
2012-11-07 17:48:00,60.7,49.3,29.93,North,8,1.0,7.0,66,0.00,,---,0.00,0.00,VWS V14.01,2012-11-07 22:48:00,
2012-11-07 17:49:00,60.6,49.2,29.93,NNW,336,1.0,7.0,66,0.00,,---,0.00,0.00,VWS V14.01,2012-11-07 22:49:00,
2012-11-07 17:50:00,60.8,49.8,29.93,NNW,337,2.0,6.0,67,0.00,,---,0.00,0.00,VWS V14.01,2012-11-07 22:50:00,
2012-11-07 17:51:00,60.5,49.1,29.93,NNW,345,3.0,7.0,66,0.00,,---,0.00,0.00,VWS V14.01,2012-11-07 22:51:00,
2012-11-07 17:52:00,60.5,49.1,29.93,NNW,331,2.0,7.0,66,0.00,,---,0.00,0.00,VWS V14.01,2012-11-07 22:52:00,
2012-11-07 17:53:00,60.4,49.0,29.93,North,358,3.0,7.0,66,0.00,,---,0.00,0.00,VWS V14.01,2012-11-07 22:53:00,
2012-11-07 17:54:00,60.4,49.0,29.93,NNW,345,1.0,7.0,66,0.00,,---,0.00,0.00,VWS V14.01,2012-11-07 22:54:00,
2012-11-07 17:55:00,60.7,49.3,29.93,NNW,327,1.0,7.0,66,0.00,,---,0.00,0.00,VWS V14.01,2012-11-07 22:55:00,
2012-11-07 17:56:00,60.4,49.0,29.93,NNW,334,1.0,7.0,66,0.00,,---,0.00,0.00,VWS V14.01,2012-11-07 22:56:00,
2012-11-07 17:57:00,60.4,49.0,29.93,NW,306,1.0,7.0,66,0.00,,---,0.00,0.00,VWS V14.01,2012-11-07 22:57:00,
2012-11-07 17:58:00,60.3,48.9,29.93,North,360,3.0,7.0,66,0.00,,---,0.00,0.00,VWS V14.01,2012-11-07 22:58:00,
2012-11-07 17:59:00,60.3,48.9,29.93,NNW,329,2.0,7.0,66,0.00,,---,0.00,0.00,VWS V14.01,2012-11-07 22:59:00,
2012-11-07 18:00:00,60.3,48.9,29.93,NNW,329,0.0,0.0,66,0.00,,---,0.00,0.00,VWS V14.01,2012-11-07 23:00:00,
2012-11-07 18:01:00,60.5,49.1,29.93,NW,326,2.0,7.0,66,0.00,,---,0.00,0.00,VWS V14.01,2012-11-07 23:01:00,
2012-11-07 18:02:00,60.2,48.8,29.93,NNW,329,2.0,2.0,66,0.00,,---,0.00,0.00,VWS V14.01,2012-11-07 23:02:00,
2012-11-07 18:03:00,60.2,48.8,29.93,NNW,329,1.0,2.0,66,0.00,,---,0.00,0.00,VWS V14.01,2012-11-07 23:03:00,
2012-11-07 18:04:00,60.2,48.8,29.93,NNW,329,1.0,2.0,66,0.00,,---,0.00,0.00,VWS V14.01,2012-11-07 23:04:00,
2012-11-07 18:05:00,60.1,48.7,29.93,NNW,329,2.0,3.0,66,0.00,,---,0.00,0.00,VWS V14.01,2012-11-07 23:05:00,
2012-11-07 18:06:00,60.4,49.0,29.93,NW,319,2.0,7.0,66,0.00,,---,0.00,0.00,VWS V14.01,2012-11-07 23:06:00,
2012-11-07 18:07:00,60.0,48.6,29.94,North,356,1.0,3.0,66,0.00,,---,0.00,0.00,VWS V14.01,2012-11-07 23:07:00,
2012-11-07 18:08:00,59.9,48.9,29.94,North,356,1.0,3.0,67,0.00,,---,0.00,0.00,VWS V14.01,2012-11-07 23:08:00,
2012-11-07 18:09:00,59.8,48.8,29.94,North,356,2.0,3.0,67,0.00,,---,0.00,0.00,VWS V14.01,2012-11-07 23:09:00,
2012-11-07 18:10:00,59.8,48.8,29.94,North,352,3.0,3.0,67,0.00,,---,0.00,0.00,VWS V14.01,2012-11-07 23:10:00,
2012-11-07 18:11:00,60.3,48.9,29.93,NNW,329,1.0,2.0,66,0.00,,---,0.00,0.00,VWS V14.01,2012-11-07 23:11:00,
2012-11-07 18:12:00,59.7,48.7,29.94,North,349,2.0,3.0,67,0.00,,---,0.00,0.00,VWS V14.01,2012-11-07 23:12:00,
2012-11-07 18:13:00,59.7,48.7,29.94,North,349,0.0,3.0,67,0.00,,---,0.00,0.00,VWS V14.01,2012-11-07 23:13:00,
2012-11-07 18:14:00,59.7,48.7,29.94,NNW,337,1.0,3.0,67,0.00,,---,0.00,0.00,VWS V14.01,2012-11-07 23:14:00,
2012-11-07 18:15:00,59.6,48.6,29.94,NNW,337,0.0,3.0,67,0.00,,---,0.00,0.00,VWS V14.01,2012-11-07 23:15:00,
2012-11-07 18:16:00,60.0,48.6,29.94,North,356,1.0,3.0,66,0.00,,---,0.00,0.00,VWS V14.01,2012-11-07 23:16:00,
2012-11-07 18:17:00,59.5,48.9,29.94,NNW,337,1.0,3.0,68,0.00,,---,0.00,0.00,VWS V14.01,2012-11-07 23:17:00,
2012-11-07 18:18:00,59.4,48.8,29.94,NNW,337,1.0,3.0,68,0.00,,---,0.00,0.00,VWS V14.01,2012-11-07 23:18:00,
2012-11-07 18:19:00,59.3,48.8,29.94,NW,318,2.0,3.0,68,0.00,,---,0.00,0.00,VWS V14.01,2012-11-07 23:19:00,
2012-11-07 18:20:00,59.3,48.8,29.94,NW,319,1.0,3.0,68,0.00,,---,0.00,0.00,VWS V14.01,2012-11-07 23:20:00,
2012-11-07 18:21:00,59.7,48.7,29.94,North,350,1.0,3.0,67,0.00,,---,0.00,0.00,VWS V14.01,2012-11-07 23:21:00,
2012-11-07 18:22:00,59.3,48.8,29.94,NNW,330,1.0,4.0,68,0.00,,---,0.00,0.00,VWS V14.01,2012-11-07 23:22:00,
2012-11-07 18:23:00,59.3,48.8,29.94,NNW,328,0.0,4.0,68,0.00,,---,0.00,0.00,VWS V14.01,2012-11-07 23:23:00,
2012-11-07 18:24:00,59.3,49.1,29.94,NNW,328,1.0,4.0,69,0.00,,---,0.00,0.00,VWS V14.01,2012-11-07 23:24:00,
2012-11-07 18:25:00,59.3,49.1,29.94,NNW,341,2.0,4.0,69,0.00,,---,0.00,0.00,VWS V14.01,2012-11-07 23:25:00,
2012-11-07 18:26:00,59.5,48.9,29.94,NNW,337,1.0,3.0,68,0.00,,---,0.00,0.00,VWS V14.01,2012-11-07 23:26:00,
2012-11-07 18:27:00,59.0,48.9,29.94,NNW,339,1.0,4.0,69,0.00,,---,0.00,0.00,VWS V14.01,2012-11-07 23:27:00,
2012-11-07 18:28:00,58.8,48.7,29.94,NNW,339,1.0,4.0,69,0.00,,---,0.00,0.00,VWS V14.01,2012-11-07 23:28:00,
2012-11-07 18:29:00,58.6,48.9,29.94,NNW,339,1.0,4.0,70,0.00,,---,0.00,0.00,VWS V14.01,2012-11-07 23:29:00,
2012-11-07 18:30:00,58.5,49.1,29.94,NNW,339,1.0,4.0,71,0.00,,---,0.00,0.00,VWS V14.01,2012-11-07 23:30:00,
2012-11-07 18:31:00,59.3,48.8,29.94,NNW,329,2.0,4.0,68,0.00,,---,0.00,0.00,VWS V14.01,2012-11-07 23:31:00,
2012-11-07 18:32:00,58.0,49.0,29.94,North,353,2.0,4.0,72,0.00,,---,0.00,0.00,VWS V14.01,2012-11-07 23:32:00,
2012-11-07 18:33:00,57.9,48.9,29.94,North,353,1.0,4.0,72,0.00,,---,0.00,0.00,VWS V14.01,2012-11-07 23:33:00,
2012-11-07 18:34:00,57.8,48.8,29.94,North,353,2.0,4.0,72,0.00,,---,0.00,0.00,VWS V14.01,2012-11-07 23:34:00,
2012-11-07 18:35:00,57.7,49.1,29.94,North,353,1.0,4.0,73,0.00,,---,0.00,0.00,VWS V14.01,2012-11-07 23:35:00,
2012-11-07 18:36:00,59.0,48.9,29.94,NNW,339,2.0,4.0,69,0.00,,---,0.00,0.00,VWS V14.01,2012-11-07 23:36:00,
2012-11-07 18:37:00,57.5,48.9,29.94,North,351,1.0,4.0,73,0.00,,---,0.00,0.00,VWS V14.01,2012-11-07 23:37:00,
2012-11-07 18:38:00,57.3,48.7,29.94,North,351,1.0,4.0,73,0.00,,---,0.00,0.00,VWS V14.01,2012-11-07 23:38:00,
2012-11-07 18:39:00,57.2,49.0,29.94,North,351,2.0,4.0,74,0.00,,---,0.00,0.00,VWS V14.01,2012-11-07 23:39:00,
2012-11-07 18:40:00,57.1,48.9,29.94,North,351,0.0,4.0,74,0.00,,---,0.00,0.00,VWS V14.01,2012-11-07 23:40:00,
2012-11-07 18:41:00,58.0,49.0,29.94,NNW,339,2.0,4.0,72,0.00,,---,0.00,0.00,VWS V14.01,2012-11-07 23:41:00,
2012-11-07 18:42:00,56.9,49.1,29.94,North,351,1.0,4.0,75,0.00,,---,0.00,0.00,VWS V14.01,2012-11-07 23:42:00,
2012-11-07 18:43:00,56.8,49.0,29.94,North,351,2.0,4.0,75,0.00,,---,0.00,0.00,VWS V14.01,2012-11-07 23:43:00,
2012-11-07 18:44:00,56.7,48.9,29.94,North,351,1.0,4.0,75,0.00,,---,0.00,0.00,VWS V14.01,2012-11-07 23:44:00,
2012-11-07 18:45:00,56.6,48.8,29.94,North,351,1.0,4.0,75,0.00,,---,0.00,0.00,VWS V14.01,2012-11-07 23:45:00,
2012-11-07 18:46:00,57.5,48.9,29.94,North,353,0.0,4.0,73,0.00,,---,0.00,0.00,VWS V14.01,2012-11-07 23:46:00,
2012-11-07 18:47:00,56.4,48.6,29.95,North,351,1.0,4.0,75,0.00,,---,0.00,0.00,VWS V14.01,2012-11-07 23:47:00,
2012-11-07 18:48:00,56.4,48.6,29.95,North,351,1.0,4.0,75,0.00,,---,0.00,0.00,VWS V14.01,2012-11-07 23:48:00,
2012-11-07 18:49:00,56.4,48.6,29.95,North,351,0.0,4.0,75,0.00,,---,0.00,0.00,VWS V14.01,2012-11-07 23:49:00,
2012-11-07 18:50:00,56.4,48.6,29.95,North,351,1.0,4.0,75,0.00,,---,0.00,0.00,VWS V14.01,2012-11-07 23:50:00,
2012-11-07 18:51:00,56.9,49.1,29.94,North,351,1.0,4.0,75,0.00,,---,0.00,0.00,VWS V14.01,2012-11-07 23:51:00,
2012-11-07 18:52:00,56.4,48.9,29.95,North,351,0.0,4.0,76,0.00,,---,0.00,0.00,VWS V14.01,2012-11-07 23:52:00,
2012-11-07 18:53:00,56.3,49.2,29.95,North,351,1.0,4.0,77,0.00,,---,0.00,0.00,VWS V14.01,2012-11-07 23:53:00,
2012-11-07 18:54:00,56.3,49.2,29.95,North,351,0.0,4.0,77,0.00,,---,0.00,0.00,VWS V14.01,2012-11-07 23:54:00,
2012-11-07 18:55:00,56.2,49.1,29.95,North,351,1.0,4.0,77,0.00,,---,0.00,0.00,VWS V14.01,2012-11-07 23:55:00,
2012-11-07 18:56:00,56.4,48.6,29.95,North,351,1.0,4.0,75,0.00,,---,0.00,0.00,VWS V14.01,2012-11-07 23:56:00,
2012-11-07 18:57:00,56.1,49.0,29.95,North,351,1.0,4.0,77,0.00,,---,0.00,0.00,VWS V14.01,2012-11-07 23:57:00,
2012-11-07 18:58:00,56.1,49.0,29.95,North,351,0.0,4.0,77,0.00,,---,0.00,0.00,VWS V14.01,2012-11-07 23:58:00,
2012-11-07 18:59:00,56.1,49.0,29.95,North,351,0.0,4.0,77,0.00,,---,0.00,0.00,VWS V14.01,2012-11-07 23:59:00,
2012-11-07 19:00:00,56.0,48.9,29.95,North,351,1.0,1.0,77,0.00,,---,0.00,0.00,VWS V14.01,2012-11-08 00:00:00,
2012-11-07 19:01:00,56.4,48.9,29.95,North,351,0.0,4.0,76,0.00,,---,0.00,0.00,VWS V14.01,2012-11-08 00:01:00,
2012-11-07 19:02:00,56.1,49.0,29.95,North,351,1.0,1.0,77,0.00,,---,0.00,0.00,VWS V14.01,2012-11-08 00:02:00,
2012-11-07 19:03:00,56.0,48.9,29.95,North,351,0.0,1.0,77,0.00,,---,0.00,0.00,VWS V14.01,2012-11-08 00:03:00,
2012-11-07 19:04:00,56.0,48.9,29.95,North,351,0.0,1.0,77,0.00,,---,0.00,0.00,VWS V14.01,2012-11-08 00:04:00,
2012-11-07 19:05:00,56.0,48.9,29.95,North,351,0.0,1.0,77,0.00,,---,0.00,0.00,VWS V14.01,2012-11-08 00:05:00,
2012-11-07 19:06:00,56.1,49.0,29.95,North,351,0.0,4.0,77,0.00,,---,0.00,0.00,VWS V14.01,2012-11-08 00:06:00,
2012-11-07 19:07:00,56.0,48.9,29.96,North,351,0.0,1.0,77,0.00,,---,0.00,0.00,VWS V14.01,2012-11-08 00:07:00,
2012-11-07 19:08:00,55.9,48.8,29.95,North,351,0.0,1.0,77,0.00,,---,0.00,0.00,VWS V14.01,2012-11-08 00:08:00,
2012-11-07 19:09:00,55.9,48.8,29.95,North,351,0.0,1.0,77,0.00,,---,0.00,0.00,VWS V14.01,2012-11-08 00:09:00,
2012-11-07 19:10:00,55.9,48.8,29.95,North,351,0.0,1.0,77,0.00,,---,0.00,0.00,VWS V14.01,2012-11-08 00:10:00,
2012-11-07 19:11:00,56.1,49.0,29.95,North,351,0.0,1.0,77,0.00,,---,0.00,0.00,VWS V14.01,2012-11-08 00:11:00,
2012-11-07 19:12:00,55.9,48.8,29.96,North,351,0.0,1.0,77,0.00,,---,0.00,0.00,VWS V14.01,2012-11-08 00:12:00,
2012-11-07 19:13:00,55.9,48.8,29.96,North,351,0.0,1.0,77,0.00,,---,0.00,0.00,VWS V14.01,2012-11-08 00:13:00,
2012-11-07 19:14:00,55.9,48.8,29.96,North,351,0.0,1.0,77,0.00,,---,0.00,0.00,VWS V14.01,2012-11-08 00:14:00,
2012-11-07 19:15:00,56.0,49.2,29.96,North,351,0.0,1.0,78,0.00,,---,0.00,0.00,VWS V14.01,2012-11-08 00:15:00,
2012-11-07 19:16:00,56.0,48.9,29.96,North,351,1.0,1.0,77,0.00,,---,0.00,0.00,VWS V14.01,2012-11-08 00:16:00,
2012-11-07 19:17:00,55.8,49.4,29.96,North,351,1.0,1.0,79,0.00,,---,0.00,0.00,VWS V14.01,2012-11-08 00:17:00,
2012-11-07 19:18:00,55.8,49.4,29.96,North,351,0.0,1.0,79,0.00,,---,0.00,0.00,VWS V14.01,2012-11-08 00:18:00,
2012-11-07 19:19:00,55.7,49.3,29.96,North,351,0.0,1.0,79,0.00,,---,0.00,0.00,VWS V14.01,2012-11-08 00:19:00,
2012-11-07 19:20:00,55.7,49.3,29.96,North,351,0.0,1.0,79,0.00,,---,0.00,0.00,VWS V14.01,2012-11-08 00:20:00,
2012-11-07 19:21:00,55.9,48.8,29.96,North,351,0.0,1.0,77,0.00,,---,0.00,0.00,VWS V14.01,2012-11-08 00:21:00,
2012-11-07 19:22:00,55.6,49.5,29.96,North,351,0.0,1.0,80,0.00,,---,0.00,0.00,VWS V14.01,2012-11-08 00:22:00,
2012-11-07 19:23:00,55.5,49.4,29.96,North,351,0.0,1.0,80,0.00,,---,0.00,0.00,VWS V14.01,2012-11-08 00:23:00,
2012-11-07 19:24:00,55.5,49.4,29.96,NNW,330,3.0,3.0,80,0.00,,---,0.00,0.00,VWS V14.01,2012-11-08 00:24:00,
2012-11-07 19:25:00,55.6,49.5,29.96,NNW,330,1.0,3.0,80,0.00,,---,0.00,0.00,VWS V14.01,2012-11-08 00:25:00,
2012-11-07 19:26:00,55.8,49.4,29.96,North,351,0.0,1.0,79,0.00,,---,0.00,0.00,VWS V14.01,2012-11-08 00:26:00,
2012-11-07 19:27:00,55.9,49.8,29.96,NNW,330,1.0,3.0,80,0.00,,---,0.00,0.00,VWS V14.01,2012-11-08 00:27:00,
2012-11-07 19:28:00,56.0,49.6,29.96,NNW,331,2.0,3.0,79,0.00,,---,0.00,0.00,VWS V14.01,2012-11-08 00:28:00,
2012-11-07 19:29:00,56.2,49.4,29.96,NNW,331,1.0,3.0,78,0.00,,---,0.00,0.00,VWS V14.01,2012-11-08 00:29:00,
2012-11-07 19:30:00,56.4,49.3,29.96,NNW,331,1.0,3.0,77,0.00,,---,0.00,0.00,VWS V14.01,2012-11-08 00:30:00,
2012-11-07 19:31:00,55.6,49.5,29.96,North,351,0.0,1.0,80,0.00,,---,0.00,0.00,VWS V14.01,2012-11-08 00:31:00,
2012-11-07 19:32:00,57.0,49.5,29.96,NNW,331,0.0,3.0,76,0.00,,---,0.00,0.00,VWS V14.01,2012-11-08 00:32:00,
2012-11-07 19:33:00,57.3,49.8,29.96,NNW,331,0.0,3.0,76,0.00,,---,0.00,0.00,VWS V14.01,2012-11-08 00:33:00,
2012-11-07 19:34:00,57.5,49.7,29.96,NNW,331,0.0,3.0,75,0.00,,---,0.00,0.00,VWS V14.01,2012-11-08 00:34:00,
2012-11-07 19:35:00,57.5,49.7,29.97,NNW,331,1.0,3.0,75,0.00,,---,0.00,0.00,VWS V14.01,2012-11-08 00:35:00,
2012-11-07 19:36:00,55.8,49.7,29.96,NNW,330,0.0,3.0,80,0.00,,---,0.00,0.00,VWS V14.01,2012-11-08 00:36:00,
2012-11-07 19:37:00,58.0,50.1,29.97,NNW,341,0.0,3.0,75,0.00,,---,0.00,0.00,VWS V14.01,2012-11-08 00:37:00,
2012-11-07 19:38:00,58.0,49.8,29.97,NNW,341,0.0,3.0,74,0.00,,---,0.00,0.00,VWS V14.01,2012-11-08 00:38:00,
2012-11-07 19:39:00,58.1,49.9,29.97,NNW,341,0.0,3.0,74,0.00,,---,0.00,0.00,VWS V14.01,2012-11-08 00:39:00,
2012-11-07 19:40:00,58.2,50.0,29.97,North,355,1.0,3.0,74,0.00,,---,0.00,0.00,VWS V14.01,2012-11-08 00:40:00,
2012-11-07 19:41:00,58.2,50.0,29.97,NW,326,0.0,3.0,74,0.00,,---,0.00,0.00,VWS V14.01,2012-11-08 00:41:00,
2012-11-07 19:42:00,57.2,49.7,29.96,NNW,331,0.0,3.0,76,0.00,,---,0.00,0.00,VWS V14.01,2012-11-08 00:42:00,
2012-11-07 19:43:00,58.3,50.1,29.97,NW,326,0.0,3.0,74,0.00,,---,0.00,0.00,VWS V14.01,2012-11-08 00:43:00,
2012-11-07 19:44:00,58.3,49.7,29.97,NW,326,2.0,3.0,73,0.00,,---,0.00,0.00,VWS V14.01,2012-11-08 00:44:00,
2012-11-07 19:45:00,58.3,49.7,29.97,NNW,343,1.0,5.0,73,0.00,,---,0.00,0.00,VWS V14.01,2012-11-08 00:45:00,
2012-11-07 19:46:00,58.4,49.8,29.97,NNW,329,0.0,5.0,73,0.00,,---,0.00,0.00,VWS V14.01,2012-11-08 00:46:00,
2012-11-07 19:47:00,58.0,49.8,29.97,NNW,341,0.0,3.0,74,0.00,,---,0.00,0.00,VWS V14.01,2012-11-08 00:47:00,
2012-11-07 19:48:00,58.5,49.5,29.97,NNW,329,0.0,5.0,72,0.00,,---,0.00,0.00,VWS V14.01,2012-11-08 00:48:00,
2012-11-07 19:49:00,58.5,49.5,29.97,NNW,329,0.0,5.0,72,0.00,,---,0.00,0.00,VWS V14.01,2012-11-08 00:49:00,
2012-11-07 19:50:00,58.6,49.6,29.97,NNW,329,0.0,5.0,72,0.00,,---,0.00,0.00,VWS V14.01,2012-11-08 00:50:00,
2012-11-07 19:51:00,58.5,50.6,29.97,NNW,329,0.0,5.0,75,0.00,,---,0.00,0.00,VWS V14.01,2012-11-08 00:51:00,
2012-11-07 19:52:00,58.2,50.0,29.97,NW,326,0.0,3.0,74,0.00,,---,0.00,0.00,VWS V14.01,2012-11-08 00:52:00,
2012-11-07 19:53:00,58.3,50.4,29.97,NNW,329,0.0,5.0,75,0.00,,---,0.00,0.00,VWS V14.01,2012-11-08 00:53:00,
2012-11-07 19:54:00,58.2,50.3,29.97,NNW,329,0.0,5.0,75,0.00,,---,0.00,0.00,VWS V14.01,2012-11-08 00:54:00,
2012-11-07 19:55:00,58.1,49.9,29.97,NNW,329,1.0,5.0,74,0.00,,---,0.00,0.00,VWS V14.01,2012-11-08 00:55:00,
2012-11-07 19:56:00,58.2,50.0,29.97,NNW,329,1.0,5.0,74,0.00,,---,0.00,0.00,VWS V14.01,2012-11-08 00:56:00,
2012-11-07 19:57:00,58.5,49.5,29.97,NNW,329,0.0,5.0,72,0.00,,---,0.00,0.00,VWS V14.01,2012-11-08 00:57:00,
2012-11-07 19:58:00,58.3,49.7,29.98,NNW,329,1.0,5.0,73,0.00,,---,0.00,0.00,VWS V14.01,2012-11-08 00:58:00,
2012-11-07 19:59:00,58.4,49.4,29.98,NNW,347,1.0,5.0,72,0.00,,---,0.00,0.00,VWS V14.01,2012-11-08 00:59:00,
2012-11-07 20:00:00,58.4,49.4,29.98,NW,323,2.0,2.0,72,0.00,,---,0.00,0.00,VWS V14.01,2012-11-08 01:00:00,
2012-11-07 20:01:00,58.5,49.5,29.98,NW,323,1.0,2.0,72,0.00,,---,0.00,0.00,VWS V14.01,2012-11-08 01:01:00,
2012-11-07 20:02:00,58.3,50.4,29.97,NNW,329,0.0,5.0,75,0.00,,---,0.00,0.00,VWS V14.01,2012-11-08 01:02:00,
2012-11-07 20:03:00,58.6,49.6,29.98,NW,323,0.0,2.0,72,0.00,,---,0.00,0.00,VWS V14.01,2012-11-08 01:03:00,
2012-11-07 20:04:00,58.7,49.7,29.98,NW,323,0.0,2.0,72,0.00,,---,0.00,0.00,VWS V14.01,2012-11-08 01:04:00,
2012-11-07 20:05:00,58.7,49.7,29.98,NW,323,1.0,2.0,72,0.00,,---,0.00,0.00,VWS V14.01,2012-11-08 01:05:00,
2012-11-07 20:06:00,58.7,50.1,29.98,NW,323,0.0,2.0,73,0.00,,---,0.00,0.00,VWS V14.01,2012-11-08 01:06:00,
2012-11-07 20:07:00,58.2,49.6,29.97,NNW,329,1.0,5.0,73,0.00,,---,0.00,0.00,VWS V14.01,2012-11-08 01:07:00,
2012-11-07 20:08:00,58.7,50.1,29.98,NNW,334,0.0,3.0,73,0.00,,---,0.00,0.00,VWS V14.01,2012-11-08 01:08:00,
2012-11-07 20:09:00,58.7,50.1,29.98,NNW,334,0.0,3.0,73,0.00,,---,0.00,0.00,VWS V14.01,2012-11-08 01:09:00,
2012-11-07 20:10:00,58.7,50.1,29.98,NNW,334,0.0,3.0,73,0.00,,---,0.00,0.00,VWS V14.01,2012-11-08 01:10:00,
2012-11-07 20:11:00,58.7,50.1,29.98,NNW,334,0.0,3.0,73,0.00,,---,0.00,0.00,VWS V14.01,2012-11-08 01:11:00,
2012-11-07 20:12:00,58.6,49.6,29.98,NW,323,0.0,2.0,72,0.00,,---,0.00,0.00,VWS V14.01,2012-11-08 01:12:00,
2012-11-07 20:13:00,58.6,50.3,29.98,NNW,334,0.0,3.0,74,0.00,,---,0.00,0.00,VWS V14.01,2012-11-08 01:13:00,
2012-11-07 20:14:00,58.5,50.2,29.98,NNW,334,0.0,3.0,74,0.00,,---,0.00,0.00,VWS V14.01,2012-11-08 01:14:00,
2012-11-07 20:15:00,58.5,49.9,29.98,NNW,334,0.0,3.0,73,0.00,,---,0.00,0.00,VWS V14.01,2012-11-08 01:15:00,
2012-11-07 20:16:00,58.5,49.5,29.98,NNW,334,0.0,3.0,72,0.00,,---,0.00,0.00,VWS V14.01,2012-11-08 01:16:00,
2012-11-07 20:17:00,58.7,50.5,29.98,NNW,334,1.0,3.0,74,0.00,,---,0.00,0.00,VWS V14.01,2012-11-08 01:17:00,
2012-11-07 20:18:00,58.6,49.6,29.98,NNW,343,2.0,3.0,72,0.00,,---,0.00,0.00,VWS V14.01,2012-11-08 01:18:00,
2012-11-07 20:19:00,58.7,49.7,29.98,NNW,343,0.0,3.0,72,0.00,,---,0.00,0.00,VWS V14.01,2012-11-08 01:19:00,
2012-11-07 20:20:00,58.7,50.1,29.98,NNW,343,0.0,3.0,73,0.00,,---,0.00,0.00,VWS V14.01,2012-11-08 01:20:00,
2012-11-07 20:21:00,58.6,50.3,29.99,NNW,343,0.0,3.0,74,0.00,,---,0.00,0.00,VWS V14.01,2012-11-08 01:21:00,
2012-11-07 20:22:00,58.6,50.3,29.98,NNW,334,0.0,3.0,74,0.00,,---,0.00,0.00,VWS V14.01,2012-11-08 01:22:00,
2012-11-07 20:23:00,58.4,50.2,29.99,NNW,343,0.0,3.0,74,0.00,,---,0.00,0.00,VWS V14.01,2012-11-08 01:23:00,
2012-11-07 20:24:00,58.2,50.3,29.99,NNW,343,0.0,3.0,75,0.00,,---,0.00,0.00,VWS V14.01,2012-11-08 01:24:00,
2012-11-07 20:25:00,58.1,50.2,29.99,NNW,343,0.0,3.0,75,0.00,,---,0.00,0.00,VWS V14.01,2012-11-08 01:25:00,
2012-11-07 20:26:00,58.0,50.1,29.99,NNW,343,0.0,3.0,75,0.00,,---,0.00,0.00,VWS V14.01,2012-11-08 01:26:00,
2012-11-07 20:27:00,58.6,49.6,29.98,NNW,337,3.0,3.0,72,0.00,,---,0.00,0.00,VWS V14.01,2012-11-08 01:27:00,
2012-11-07 20:28:00,57.8,50.3,29.99,NNW,343,0.0,3.0,76,0.00,,---,0.00,0.00,VWS V14.01,2012-11-08 01:28:00,
2012-11-07 20:29:00,57.7,50.2,29.99,NNW,343,0.0,3.0,76,0.00,,---,0.00,0.00,VWS V14.01,2012-11-08 01:29:00,
2012-11-07 20:30:00,57.6,50.1,29.99,NNW,343,0.0,3.0,76,0.00,,---,0.00,0.00,VWS V14.01,2012-11-08 01:30:00,
2012-11-07 20:31:00,57.5,50.0,29.99,NNW,343,0.0,3.0,76,0.00,,---,0.00,0.00,VWS V14.01,2012-11-08 01:31:00,
2012-11-07 20:32:00,58.4,50.2,29.99,NNW,343,0.0,3.0,74,0.00,,---,0.00,0.00,VWS V14.01,2012-11-08 01:32:00,
2012-11-07 20:33:00,57.4,50.3,29.99,NNW,343,0.0,3.0,77,0.00,,---,0.00,0.00,VWS V14.01,2012-11-08 01:33:00,
2012-11-07 20:34:00,57.3,50.2,29.99,NNW,343,0.0,3.0,77,0.00,,---,0.00,0.00,VWS V14.01,2012-11-08 01:34:00,
2012-11-07 20:35:00,57.3,50.2,29.99,NNW,343,0.0,3.0,77,0.00,,---,0.00,0.00,VWS V14.01,2012-11-08 01:35:00,
2012-11-07 20:36:00,57.3,50.2,29.99,NNW,343,0.0,3.0,77,0.00,,---,0.00,0.00,VWS V14.01,2012-11-08 01:36:00,
2012-11-07 20:37:00,57.8,50.3,29.99,NNW,343,0.0,3.0,76,0.00,,---,0.00,0.00,VWS V14.01,2012-11-08 01:37:00,
2012-11-07 20:38:00,57.2,50.1,29.99,NNW,343,0.0,3.0,77,0.00,,---,0.00,0.00,VWS V14.01,2012-11-08 01:38:00,
2012-11-07 20:39:00,57.2,50.1,29.99,NNW,343,0.0,3.0,77,0.00,,---,0.00,0.00,VWS V14.01,2012-11-08 01:39:00,
2012-11-07 20:40:00,57.2,50.1,29.99,NNW,343,0.0,3.0,77,0.00,,---,0.00,0.00,VWS V14.01,2012-11-08 01:40:00,
2012-11-07 20:41:00,57.2,50.1,29.99,NNW,343,0.0,3.0,77,0.00,,---,0.00,0.00,VWS V14.01,2012-11-08 01:41:00,
2012-11-07 20:42:00,57.4,50.3,29.99,NNW,343,0.0,3.0,77,0.00,,---,0.00,0.00,VWS V14.01,2012-11-08 01:42:00,
2012-11-07 20:43:00,57.2,50.1,29.99,NNW,343,0.0,3.0,77,0.00,,---,0.00,0.00,VWS V14.01,2012-11-08 01:43:00,
2012-11-07 20:44:00,57.2,50.1,29.99,NNW,343,0.0,3.0,77,0.00,,---,0.00,0.00,VWS V14.01,2012-11-08 01:44:00,
2012-11-07 20:45:00,57.2,50.1,30.00,NNW,343,0.0,3.0,77,0.00,,---,0.00,0.00,VWS V14.01,2012-11-08 01:45:00,
2012-11-07 20:46:00,57.1,50.0,30.00,NNW,343,0.0,3.0,77,0.00,,---,0.00,0.00,VWS V14.01,2012-11-08 01:46:00,
2012-11-07 20:47:00,57.2,50.1,29.99,NNW,343,0.0,3.0,77,0.00,,---,0.00,0.00,VWS V14.01,2012-11-08 01:47:00,
2012-11-07 20:48:00,57.1,50.0,30.00,NNW,343,0.0,3.0,77,0.00,,---,0.00,0.00,VWS V14.01,2012-11-08 01:48:00,
2012-11-07 20:49:00,57.1,50.0,29.99,NNW,343,0.0,3.0,77,0.00,,---,0.00,0.00,VWS V14.01,2012-11-08 01:49:00,
2012-11-07 20:50:00,57.2,50.1,30.00,NNW,343,0.0,3.0,77,0.00,,---,0.00,0.00,VWS V14.01,2012-11-08 01:50:00,
2012-11-07 20:51:00,57.2,50.1,29.99,NNW,343,0.0,3.0,77,0.00,,---,0.00,0.00,VWS V14.01,2012-11-08 01:51:00,
2012-11-07 20:52:00,57.2,49.7,29.99,NNW,343,0.0,3.0,76,0.00,,---,0.00,0.00,VWS V14.01,2012-11-08 01:52:00,
2012-11-07 20:53:00,57.2,50.1,29.99,NNW,343,0.0,3.0,77,0.00,,---,0.00,0.00,VWS V14.01,2012-11-08 01:53:00,
2012-11-07 20:54:00,57.2,49.4,30.00,NNW,343,0.0,3.0,75,0.00,,---,0.00,0.00,VWS V14.01,2012-11-08 01:54:00,
2012-11-07 20:55:00,57.3,49.5,30.00,NNW,343,0.0,3.0,75,0.00,,---,0.00,0.00,VWS V14.01,2012-11-08 01:55:00,
2012-11-07 20:56:00,57.3,49.5,30.00,NNW,343,0.0,3.0,75,0.00,,---,0.00,0.00,VWS V14.01,2012-11-08 01:56:00,
2012-11-07 20:57:00,57.2,49.7,30.00,NNW,343,0.0,3.0,76,0.00,,---,0.00,0.00,VWS V14.01,2012-11-08 01:57:00,
2012-11-07 20:58:00,57.1,50.0,30.00,NNW,343,0.0,3.0,77,0.00,,---,0.00,0.00,VWS V14.01,2012-11-08 01:58:00,
2012-11-07 20:59:00,57.1,49.6,30.00,NNW,343,0.0,3.0,76,0.00,,---,0.00,0.00,VWS V14.01,2012-11-08 01:59:00,
2012-11-07 21:00:00,57.1,49.6,30.00,NNW,343,0.0,0.0,76,0.00,,---,0.00,0.00,VWS V14.01,2012-11-08 02:00:00,
2012-11-07 21:01:00,57.1,49.6,30.00,NNW,343,0.0,0.0,76,0.00,,---,0.00,0.00,VWS V14.01,2012-11-08 02:01:00,
2012-11-07 21:02:00,57.0,49.5,30.00,NNW,343,0.0,1.0,76,0.00,,---,0.00,0.00,VWS V14.01,2012-11-08 02:02:00,
2012-11-07 21:03:00,57.2,49.7,30.00,NNW,343,0.0,3.0,76,0.00,,---,0.00,0.00,VWS V14.01,2012-11-08 02:03:00,
2012-11-07 21:04:00,56.9,49.4,30.00,NNW,343,0.0,1.0,76,0.00,,---,0.00,0.00,VWS V14.01,2012-11-08 02:04:00,
2012-11-07 21:05:00,56.8,49.3,30.00,NNW,343,0.0,1.0,76,0.00,,---,0.00,0.00,VWS V14.01,2012-11-08 02:05:00,
2012-11-07 21:06:00,56.8,49.3,30.00,NNW,343,0.0,1.0,76,0.00,,---,0.00,0.00,VWS V14.01,2012-11-08 02:06:00,
2012-11-07 21:07:00,56.8,49.3,30.00,NNW,343,0.0,1.0,76,0.00,,---,0.00,0.00,VWS V14.01,2012-11-08 02:07:00,
2012-11-07 21:08:00,57.2,49.7,30.00,NNW,343,0.0,3.0,76,0.00,,---,0.00,0.00,VWS V14.01,2012-11-08 02:08:00,
2012-11-07 21:09:00,56.7,49.2,30.00,NNW,343,0.0,1.0,76,0.00,,---,0.00,0.00,VWS V14.01,2012-11-08 02:09:00,
2012-11-07 21:10:00,56.7,49.2,30.00,NNW,343,0.0,1.0,76,0.00,,---,0.00,0.00,VWS V14.01,2012-11-08 02:10:00,
2012-11-07 21:11:00,56.6,49.1,30.00,NNW,343,0.0,1.0,76,0.00,,---,0.00,0.00,VWS V14.01,2012-11-08 02:11:00,
2012-11-07 21:12:00,56.6,49.1,30.00,NNW,343,0.0,1.0,76,0.00,,---,0.00,0.00,VWS V14.01,2012-11-08 02:12:00,
2012-11-07 21:13:00,56.9,49.4,30.00,NNW,343,0.0,1.0,76,0.00,,---,0.00,0.00,VWS V14.01,2012-11-08 02:13:00,
2012-11-07 21:14:00,56.6,49.1,30.00,NNW,343,0.0,1.0,76,0.00,,---,0.00,0.00,VWS V14.01,2012-11-08 02:14:00,
2012-11-07 21:15:00,56.6,49.1,30.00,NNW,343,0.0,1.0,76,0.00,,---,0.00,0.00,VWS V14.01,2012-11-08 02:15:00,
2012-11-07 21:16:00,56.6,49.1,30.00,NNW,343,0.0,1.0,76,0.00,,---,0.00,0.00,VWS V14.01,2012-11-08 02:16:00,
2012-11-07 21:17:00,56.5,49.0,30.00,NNW,343,0.0,1.0,76,0.00,,---,0.00,0.00,VWS V14.01,2012-11-08 02:17:00,
2012-11-07 21:18:00,56.7,49.2,30.00,NNW,343,0.0,1.0,76,0.00,,---,0.00,0.00,VWS V14.01,2012-11-08 02:18:00,
2012-11-07 21:19:00,56.5,49.0,30.00,NNW,343,0.0,1.0,76,0.00,,---,0.00,0.00,VWS V14.01,2012-11-08 02:19:00,
2012-11-07 21:20:00,56.5,49.4,30.00,NNW,343,0.0,1.0,77,0.00,,---,0.00,0.00,VWS V14.01,2012-11-08 02:20:00,
2012-11-07 21:21:00,56.5,49.4,30.00,NNW,343,0.0,1.0,77,0.00,,---,0.00,0.00,VWS V14.01,2012-11-08 02:21:00,
2012-11-07 21:22:00,56.5,49.4,30.00,NNW,343,0.0,1.0,77,0.00,,---,0.00,0.00,VWS V14.01,2012-11-08 02:22:00,
2012-11-07 21:23:00,56.5,49.0,30.00,NNW,343,0.0,1.0,76,0.00,,---,0.00,0.00,VWS V14.01,2012-11-08 02:23:00,
2012-11-07 21:24:00,56.5,49.4,30.00,NNW,343,0.0,1.0,77,0.00,,---,0.00,0.00,VWS V14.01,2012-11-08 02:24:00,
2012-11-07 21:25:00,56.5,49.4,30.00,NNW,343,0.0,1.0,77,0.00,,---,0.00,0.00,VWS V14.01,2012-11-08 02:25:00,
2012-11-07 21:26:00,56.5,49.4,30.00,NNW,343,0.0,1.0,77,0.00,,---,0.00,0.00,VWS V14.01,2012-11-08 02:26:00,
2012-11-07 21:27:00,56.4,49.3,30.00,NNW,343,0.0,1.0,77,0.00,,---,0.00,0.00,VWS V14.01,2012-11-08 02:27:00,
2012-11-07 21:28:00,56.5,49.0,30.00,NNW,343,0.0,1.0,76,0.00,,---,0.00,0.00,VWS V14.01,2012-11-08 02:28:00,
2012-11-07 21:29:00,56.4,49.3,30.00,NNW,343,0.0,1.0,77,0.00,,---,0.00,0.00,VWS V14.01,2012-11-08 02:29:00,
2012-11-07 21:30:00,56.4,49.3,30.00,NNW,343,0.0,1.0,77,0.00,,---,0.00,0.00,VWS V14.01,2012-11-08 02:30:00,
2012-11-07 21:31:00,56.3,49.2,30.00,NNW,343,0.0,1.0,77,0.00,,---,0.00,0.00,VWS V14.01,2012-11-08 02:31:00,
2012-11-07 21:32:00,56.4,49.3,30.00,NNW,343,0.0,1.0,77,0.00,,---,0.00,0.00,VWS V14.01,2012-11-08 02:32:00,
2012-11-07 21:33:00,56.5,49.4,30.00,NNW,343,0.0,1.0,77,0.00,,---,0.00,0.00,VWS V14.01,2012-11-08 02:33:00,
2012-11-07 21:34:00,56.3,49.2,30.00,NNW,343,0.0,1.0,77,0.00,,---,0.00,0.00,VWS V14.01,2012-11-08 02:34:00,
2012-11-07 21:35:00,56.2,49.1,30.00,NNW,343,0.0,1.0,77,0.00,,---,0.00,0.00,VWS V14.01,2012-11-08 02:35:00,
2012-11-07 21:36:00,56.2,49.1,30.00,NNW,343,0.0,1.0,77,0.00,,---,0.00,0.00,VWS V14.01,2012-11-08 02:36:00,
2012-11-07 21:37:00,56.2,49.1,30.00,NNW,343,0.0,1.0,77,0.00,,---,0.00,0.00,VWS V14.01,2012-11-08 02:37:00,
2012-11-07 21:38:00,56.4,49.3,30.00,NNW,343,0.0,1.0,77,0.00,,---,0.00,0.00,VWS V14.01,2012-11-08 02:38:00,
2012-11-07 21:39:00,56.1,49.0,30.00,NNW,343,0.0,1.0,77,0.00,,---,0.00,0.00,VWS V14.01,2012-11-08 02:39:00,
2012-11-07 21:40:00,56.0,48.9,30.00,NNW,343,0.0,1.0,77,0.00,,---,0.00,0.00,VWS V14.01,2012-11-08 02:40:00,
2012-11-07 21:41:00,56.0,48.9,30.00,NNW,343,0.0,1.0,77,0.00,,---,0.00,0.00,VWS V14.01,2012-11-08 02:41:00,
2012-11-07 21:42:00,55.9,49.2,30.00,NNW,343,0.0,1.0,78,0.00,,---,0.00,0.00,VWS V14.01,2012-11-08 02:42:00,
2012-11-07 21:43:00,55.9,49.2,30.00,NNW,343,0.0,1.0,78,0.00,,---,0.00,0.00,VWS V14.01,2012-11-08 02:43:00,
2012-11-07 21:44:00,56.3,49.2,30.00,NNW,343,0.0,1.0,77,0.00,,---,0.00,0.00,VWS V14.01,2012-11-08 02:44:00,
2012-11-07 21:45:00,55.8,49.0,30.00,NNW,343,0.0,1.0,78,0.00,,---,0.00,0.00,VWS V14.01,2012-11-08 02:45:00,
2012-11-07 21:46:00,55.7,49.0,30.00,NNW,343,0.0,1.0,78,0.00,,---,0.00,0.00,VWS V14.01,2012-11-08 02:46:00,
2012-11-07 21:47:00,55.6,48.9,30.00,NNW,343,0.0,1.0,78,0.00,,---,0.00,0.00,VWS V14.01,2012-11-08 02:47:00,
2012-11-07 21:48:00,55.5,48.8,30.00,NNW,343,0.0,1.0,78,0.00,,---,0.00,0.00,VWS V14.01,2012-11-08 02:48:00,
2012-11-07 21:49:00,56.1,49.0,30.00,NNW,343,0.0,1.0,77,0.00,,---,0.00,0.00,VWS V14.01,2012-11-08 02:49:00,
2012-11-07 21:50:00,55.5,48.8,30.00,NNW,343,0.0,1.0,78,0.00,,---,0.00,0.00,VWS V14.01,2012-11-08 02:50:00,
2012-11-07 21:51:00,55.5,48.8,30.00,NNW,343,0.0,1.0,78,0.00,,---,0.00,0.00,VWS V14.01,2012-11-08 02:51:00,
2012-11-07 21:52:00,55.4,48.7,30.00,NNW,343,0.0,1.0,78,0.00,,---,0.00,0.00,VWS V14.01,2012-11-08 02:52:00,
2012-11-07 21:53:00,55.4,48.7,30.00,NNW,343,0.0,1.0,78,0.00,,---,0.00,0.00,VWS V14.01,2012-11-08 02:53:00,
2012-11-07 21:54:00,55.8,49.0,30.00,NNW,343,0.0,1.0,78,0.00,,---,0.00,0.00,VWS V14.01,2012-11-08 02:54:00,
2012-11-07 21:55:00,55.3,48.6,30.00,NNW,343,0.0,1.0,78,0.00,,---,0.00,0.00,VWS V14.01,2012-11-08 02:55:00,
2012-11-07 21:56:00,55.3,48.6,30.00,NNW,343,0.0,1.0,78,0.00,,---,0.00,0.00,VWS V14.01,2012-11-08 02:56:00,
2012-11-07 21:57:00,55.3,48.6,30.00,NNW,343,0.0,1.0,78,0.00,,---,0.00,0.00,VWS V14.01,2012-11-08 02:57:00,
2012-11-07 21:58:00,55.3,48.9,30.00,NNW,343,0.0,1.0,79,0.00,,---,0.00,0.00,VWS V14.01,2012-11-08 02:58:00,
2012-11-07 21:59:00,55.5,48.8,30.00,NNW,343,0.0,1.0,78,0.00,,---,0.00,0.00,VWS V14.01,2012-11-08 02:59:00,
2012-11-07 22:00:00,55.2,48.8,30.00,NNW,343,0.0,0.0,79,0.00,,---,0.00,0.00,VWS V14.01,2012-11-08 03:00:00,
2012-11-07 22:01:00,55.2,48.8,30.00,NNW,343,0.0,0.0,79,0.00,,---,0.00,0.00,VWS V14.01,2012-11-08 03:01:00,
2012-11-07 22:02:00,55.2,48.8,30.00,NNW,343,0.0,0.0,79,0.00,,---,0.00,0.00,VWS V14.01,2012-11-08 03:02:00,
2012-11-07 22:03:00,55.2,48.8,30.00,NNW,343,0.0,0.0,79,0.00,,---,0.00,0.00,VWS V14.01,2012-11-08 03:03:00,
2012-11-07 22:04:00,55.3,48.6,30.00,NNW,343,0.0,1.0,78,0.00,,---,0.00,0.00,VWS V14.01,2012-11-08 03:04:00,
2012-11-07 22:05:00,55.2,48.8,30.00,NNW,343,0.0,0.0,79,0.00,,---,0.00,0.00,VWS V14.01,2012-11-08 03:05:00,
2012-11-07 22:06:00,55.3,48.9,30.00,NNW,343,0.0,0.0,79,0.00,,---,0.00,0.00,VWS V14.01,2012-11-08 03:06:00,
2012-11-07 22:07:00,55.3,48.9,30.00,NNW,343,0.0,0.0,79,0.00,,---,0.00,0.00,VWS V14.01,2012-11-08 03:07:00,
2012-11-07 22:08:00,55.4,49.0,30.00,NNW,343,0.0,0.0,79,0.00,,---,0.00,0.00,VWS V14.01,2012-11-08 03:08:00,
2012-11-07 22:09:00,55.2,48.8,30.00,NNW,343,0.0,1.0,79,0.00,,---,0.00,0.00,VWS V14.01,2012-11-08 03:09:00,
2012-11-07 22:10:00,55.4,49.0,30.00,NNW,343,0.0,0.0,79,0.00,,---,0.00,0.00,VWS V14.01,2012-11-08 03:10:00,
2012-11-07 22:11:00,55.5,49.1,30.00,NNW,343,0.0,0.0,79,0.00,,---,0.00,0.00,VWS V14.01,2012-11-08 03:11:00,
2012-11-07 22:12:00,55.5,49.1,30.00,NNW,343,0.0,0.0,79,0.00,,---,0.00,0.00,VWS V14.01,2012-11-08 03:12:00,
2012-11-07 22:13:00,55.5,49.1,30.00,NNW,343,0.0,0.0,79,0.00,,---,0.00,0.00,VWS V14.01,2012-11-08 03:13:00,
2012-11-07 22:14:00,55.2,48.8,30.00,NNW,343,0.0,0.0,79,0.00,,---,0.00,0.00,VWS V14.01,2012-11-08 03:14:00,
2012-11-07 22:15:00,55.6,48.9,30.00,NNW,343,0.0,0.0,78,0.00,,---,0.00,0.00,VWS V14.01,2012-11-08 03:15:00,
2012-11-07 22:16:00,55.6,48.9,30.00,NNW,343,0.0,0.0,78,0.00,,---,0.00,0.00,VWS V14.01,2012-11-08 03:16:00,
2012-11-07 22:17:00,55.7,49.0,30.00,NNW,343,0.0,0.0,78,0.00,,---,0.00,0.00,VWS V14.01,2012-11-08 03:17:00,
2012-11-07 22:18:00,55.7,49.0,30.00,NNW,343,0.0,0.0,78,0.00,,---,0.00,0.00,VWS V14.01,2012-11-08 03:18:00,
2012-11-07 22:19:00,55.4,49.0,30.00,NNW,343,0.0,0.0,79,0.00,,---,0.00,0.00,VWS V14.01,2012-11-08 03:19:00,
2012-11-07 22:20:00,55.7,49.0,30.00,NNW,343,0.0,0.0,78,0.00,,---,0.00,0.00,VWS V14.01,2012-11-08 03:20:00,
2012-11-07 22:21:00,55.7,49.3,30.00,NNW,343,0.0,0.0,79,0.00,,---,0.00,0.00,VWS V14.01,2012-11-08 03:21:00,
2012-11-07 22:22:00,55.7,49.3,30.00,NNW,343,0.0,0.0,79,0.00,,---,0.00,0.00,VWS V14.01,2012-11-08 03:22:00,
2012-11-07 22:23:00,55.7,49.3,30.00,NNW,343,0.0,0.0,79,0.00,,---,0.00,0.00,VWS V14.01,2012-11-08 03:23:00,
2012-11-07 22:24:00,55.6,49.2,30.00,NNW,343,0.0,0.0,79,0.00,,---,0.00,0.00,VWS V14.01,2012-11-08 03:24:00,
2012-11-07 22:25:00,55.7,49.3,30.00,NNW,343,0.0,0.0,79,0.00,,---,0.00,0.00,VWS V14.01,2012-11-08 03:25:00,
2012-11-07 22:26:00,55.7,49.3,30.00,NNW,343,0.0,0.0,79,0.00,,---,0.00,0.00,VWS V14.01,2012-11-08 03:26:00,
2012-11-07 22:27:00,55.8,49.4,30.00,NNW,343,0.0,0.0,79,0.00,,---,0.00,0.00,VWS V14.01,2012-11-08 03:27:00,
2012-11-07 22:28:00,55.8,49.4,30.00,NNW,343,0.0,0.0,79,0.00,,---,0.00,0.00,VWS V14.01,2012-11-08 03:28:00,
2012-11-07 22:29:00,55.7,49.0,30.00,NNW,343,0.0,0.0,78,0.00,,---,0.00,0.00,VWS V14.01,2012-11-08 03:29:00,
2012-11-07 22:30:00,55.9,49.5,30.00,NNW,343,0.0,0.0,79,0.00,,---,0.00,0.00,VWS V14.01,2012-11-08 03:30:00,
2012-11-07 22:31:00,55.9,49.5,30.01,NNW,343,0.0,0.0,79,0.00,,---,0.00,0.00,VWS V14.01,2012-11-08 03:31:00,
2012-11-07 22:32:00,55.9,49.5,30.00,NNW,343,0.0,0.0,79,0.00,,---,0.00,0.00,VWS V14.01,2012-11-08 03:32:00,
2012-11-07 22:33:00,55.9,49.5,30.01,NNW,343,0.0,0.0,79,0.00,,---,0.00,0.00,VWS V14.01,2012-11-08 03:33:00,
2012-11-07 22:34:00,55.7,49.3,30.00,NNW,343,0.0,0.0,79,0.00,,---,0.00,0.00,VWS V14.01,2012-11-08 03:34:00,
2012-11-07 22:35:00,56.0,49.6,30.01,NNW,343,1.0,1.0,79,0.00,,---,0.00,0.00,VWS V14.01,2012-11-08 03:35:00,
2012-11-07 22:36:00,56.0,49.6,30.01,NNW,343,1.0,2.0,79,0.00,,---,0.00,0.00,VWS V14.01,2012-11-08 03:36:00,
2012-11-07 22:37:00,56.0,49.6,30.01,NNW,343,1.0,2.0,79,0.00,,---,0.00,0.00,VWS V14.01,2012-11-08 03:37:00,
2012-11-07 22:38:00,56.1,49.7,30.01,NNW,343,0.0,2.0,79,0.00,,---,0.00,0.00,VWS V14.01,2012-11-08 03:38:00,
2012-11-07 22:39:00,55.8,49.4,30.00,NNW,343,0.0,0.0,79,0.00,,---,0.00,0.00,VWS V14.01,2012-11-08 03:39:00,
2012-11-07 22:40:00,56.1,49.7,30.01,NNW,343,0.0,2.0,79,0.00,,---,0.00,0.00,VWS V14.01,2012-11-08 03:40:00,
2012-11-07 22:41:00,56.1,49.7,30.01,NNW,343,0.0,2.0,79,0.00,,---,0.00,0.00,VWS V14.01,2012-11-08 03:41:00,
2012-11-07 22:42:00,56.1,49.7,30.01,NNW,343,0.0,2.0,79,0.00,,---,0.00,0.00,VWS V14.01,2012-11-08 03:42:00,
2012-11-07 22:43:00,56.2,49.8,30.01,NNW,343,0.0,2.0,79,0.00,,---,0.00,0.00,VWS V14.01,2012-11-08 03:43:00,
2012-11-07 22:44:00,56.0,49.6,30.01,NNW,343,1.0,1.0,79,0.00,,---,0.00,0.00,VWS V14.01,2012-11-08 03:44:00,
2012-11-07 22:45:00,56.2,50.1,30.01,NNW,343,0.0,2.0,80,0.00,,---,0.00,0.00,VWS V14.01,2012-11-08 03:45:00,
2012-11-07 22:46:00,56.3,50.2,30.01,NNW,343,0.0,2.0,80,0.00,,---,0.00,0.00,VWS V14.01,2012-11-08 03:46:00,
2012-11-07 22:47:00,56.4,50.3,30.01,NNW,343,0.0,2.0,80,0.00,,---,0.00,0.00,VWS V14.01,2012-11-08 03:47:00,
2012-11-07 22:48:00,56.4,51.0,30.02,NNW,343,0.0,2.0,82,0.00,,---,0.00,0.00,VWS V14.01,2012-11-08 03:48:00,
2012-11-07 22:49:00,56.1,49.7,30.01,NNW,343,0.0,2.0,79,0.00,,---,0.00,0.00,VWS V14.01,2012-11-08 03:49:00,
2012-11-07 22:50:00,56.9,51.5,30.02,North,353,0.0,2.0,82,0.00,,---,0.00,0.00,VWS V14.01,2012-11-08 03:50:00,
2012-11-07 22:51:00,57.1,52.0,30.02,North,353,0.0,2.0,83,0.00,,---,0.00,0.00,VWS V14.01,2012-11-08 03:51:00,
2012-11-07 22:52:00,57.2,52.1,30.02,North,353,0.0,2.0,83,0.00,,---,0.00,0.00,VWS V14.01,2012-11-08 03:52:00,
2012-11-07 22:53:00,57.3,52.2,30.02,North,353,0.0,2.0,83,0.00,,---,0.00,0.00,VWS V14.01,2012-11-08 03:53:00,
2012-11-07 22:54:00,56.2,50.1,30.01,NNW,343,0.0,2.0,80,0.00,,---,0.00,0.00,VWS V14.01,2012-11-08 03:54:00,
2012-11-07 22:55:00,57.5,52.4,30.02,North,8,0.0,2.0,83,0.00,,---,0.00,0.00,VWS V14.01,2012-11-08 03:55:00,
2012-11-07 22:56:00,57.5,52.4,30.02,North,8,0.0,2.0,83,0.00,,---,0.00,0.00,VWS V14.01,2012-11-08 03:56:00,
2012-11-07 22:57:00,57.5,52.4,30.02,ENE,71,0.0,2.0,83,0.00,,---,0.00,0.00,VWS V14.01,2012-11-08 03:57:00,
2012-11-07 22:58:00,57.5,52.4,30.02,North,349,2.0,2.0,83,0.00,,---,0.00,0.00,VWS V14.01,2012-11-08 03:58:00,
2012-11-07 22:59:00,56.9,51.5,30.02,North,353,0.0,2.0,82,0.00,,---,0.00,0.00,VWS V14.01,2012-11-08 03:59:00,
2012-11-07 23:00:00,57.5,52.7,30.03,NNW,337,2.0,3.0,84,0.00,,---,0.00,0.00,VWS V14.01,2012-11-08 04:00:00,
2012-11-07 23:01:00,57.5,52.4,30.03,NNE,33,1.0,4.0,83,0.00,,---,0.00,0.00,VWS V14.01,2012-11-08 04:01:00,
2012-11-07 23:02:00,57.4,51.6,30.03,NNW,346,1.0,4.0,81,0.00,,---,0.00,0.00,VWS V14.01,2012-11-08 04:02:00,
2012-11-07 23:03:00,57.3,51.5,30.03,NNE,25,2.0,4.0,81,0.00,,---,0.00,0.00,VWS V14.01,2012-11-08 04:03:00,
2012-11-07 23:04:00,57.5,52.4,30.02,North,8,0.0,2.0,83,0.00,,---,0.00,0.00,VWS V14.01,2012-11-08 04:04:00,
2012-11-07 23:05:00,57.1,51.3,30.03,NW,316,2.0,4.0,81,0.00,,---,0.00,0.00,VWS V14.01,2012-11-08 04:05:00,
2012-11-07 23:06:00,57.1,51.3,30.03,NW,314,1.0,4.0,81,0.00,,---,0.00,0.00,VWS V14.01,2012-11-08 04:06:00,
2012-11-07 23:07:00,57.0,51.2,30.03,North,354,0.0,4.0,81,0.00,,---,0.00,0.00,VWS V14.01,2012-11-08 04:07:00,
2012-11-07 23:08:00,56.9,51.1,30.03,North,356,1.0,4.0,81,0.00,,---,0.00,0.00,VWS V14.01,2012-11-08 04:08:00,
2012-11-07 23:09:00,57.5,52.7,30.03,NW,318,3.0,3.0,84,0.00,,---,0.00,0.00,VWS V14.01,2012-11-08 04:09:00,
2012-11-07 23:10:00,56.8,51.4,30.03,ENE,60,0.0,4.0,82,0.00,,---,0.00,0.00,VWS V14.01,2012-11-08 04:10:00,
2012-11-07 23:11:00,56.7,51.6,30.03,NW,318,2.0,5.0,83,0.00,,---,0.00,0.00,VWS V14.01,2012-11-08 04:11:00,
2012-11-07 23:12:00,56.6,51.2,30.03,NW,318,0.0,5.0,82,0.00,,---,0.00,0.00,VWS V14.01,2012-11-08 04:12:00,
2012-11-07 23:13:00,56.6,51.2,30.03,NNE,27,1.0,5.0,82,0.00,,---,0.00,0.00,VWS V14.01,2012-11-08 04:13:00,
2012-11-07 23:14:00,57.2,51.4,30.03,NNE,27,1.0,4.0,81,0.00,,---,0.00,0.00,VWS V14.01,2012-11-08 04:14:00,
2012-11-07 23:15:00,56.4,51.3,30.03,NNE,14,1.0,5.0,83,0.00,,---,0.00,0.00,VWS V14.01,2012-11-08 04:15:00,
2012-11-07 23:16:00,56.4,51.3,30.03,NNE,14,1.0,5.0,83,0.00,,---,0.00,0.00,VWS V14.01,2012-11-08 04:16:00,
2012-11-07 23:17:00,56.2,50.8,30.04,NNE,31,0.0,5.0,82,0.00,,---,0.00,0.00,VWS V14.01,2012-11-08 04:17:00,
2012-11-07 23:18:00,56.2,50.8,30.03,NNE,12,1.0,5.0,82,0.00,,---,0.00,0.00,VWS V14.01,2012-11-08 04:18:00,
2012-11-07 23:19:00,56.8,51.4,30.03,East,85,1.0,4.0,82,0.00,,---,0.00,0.00,VWS V14.01,2012-11-08 04:19:00,
2012-11-07 23:20:00,56.1,51.0,30.04,NNE,22,1.0,5.0,83,0.00,,---,0.00,0.00,VWS V14.01,2012-11-08 04:20:00,
2012-11-07 23:21:00,56.1,51.0,30.04,NE,35,0.0,5.0,83,0.00,,---,0.00,0.00,VWS V14.01,2012-11-08 04:21:00,
2012-11-07 23:22:00,56.0,50.9,30.04,NNW,331,1.0,5.0,83,0.00,,---,0.00,0.00,VWS V14.01,2012-11-08 04:22:00,
2012-11-07 23:23:00,55.9,50.8,30.03,NNW,331,0.0,5.0,83,0.00,,---,0.00,0.00,VWS V14.01,2012-11-08 04:23:00,
2012-11-07 23:24:00,56.4,51.3,30.03,NNE,14,0.0,5.0,83,0.00,,---,0.00,0.00,VWS V14.01,2012-11-08 04:24:00,
2012-11-07 23:25:00,55.9,50.8,30.03,NNW,331,0.0,5.0,83,0.00,,---,0.00,0.00,VWS V14.01,2012-11-08 04:25:00,
2012-11-07 23:26:00,55.9,51.1,30.03,NNE,17,0.0,5.0,84,0.00,,---,0.00,0.00,VWS V14.01,2012-11-08 04:26:00,
2012-11-07 23:27:00,55.7,51.0,30.03,NNE,17,0.0,5.0,84,0.00,,---,0.00,0.00,VWS V14.01,2012-11-08 04:27:00,
2012-11-07 23:28:00,55.7,51.0,30.03,NNE,17,0.0,5.0,84,0.00,,---,0.00,0.00,VWS V14.01,2012-11-08 04:28:00,
2012-11-07 23:29:00,56.1,51.0,30.04,NNE,22,0.0,5.0,83,0.00,,---,0.00,0.00,VWS V14.01,2012-11-08 04:29:00,
2012-11-07 23:30:00,55.7,51.0,30.03,NNE,17,0.0,5.0,84,0.00,,---,0.00,0.00,VWS V14.01,2012-11-08 04:30:00,
2012-11-07 23:31:00,55.7,51.0,30.03,NE,48,0.0,5.0,84,0.00,,---,0.00,0.00,VWS V14.01,2012-11-08 04:31:00,
2012-11-07 23:32:00,55.6,50.8,30.03,ENE,75,0.0,5.0,84,0.00,,---,0.00,0.00,VWS V14.01,2012-11-08 04:32:00,
2012-11-07 23:33:00,55.5,50.8,30.03,ENE,75,0.0,5.0,84,0.00,,---,0.00,0.00,VWS V14.01,2012-11-08 04:33:00,
2012-11-07 23:34:00,55.9,50.8,30.03,NNW,331,0.0,5.0,83,0.00,,---,0.00,0.00,VWS V14.01,2012-11-08 04:34:00,
2012-11-07 23:35:00,55.5,50.4,30.03,NNE,31,0.0,5.0,83,0.00,,---,0.00,0.00,VWS V14.01,2012-11-08 04:35:00,
2012-11-07 23:36:00,55.5,50.4,30.03,NE,52,1.0,5.0,83,0.00,,---,0.00,0.00,VWS V14.01,2012-11-08 04:36:00,
2012-11-07 23:37:00,55.5,50.4,30.03,ENE,66,2.0,5.0,83,0.00,,---,0.00,0.00,VWS V14.01,2012-11-08 04:37:00,
2012-11-07 23:38:00,55.5,50.4,30.03,ENE,66,2.0,5.0,83,0.00,,---,0.00,0.00,VWS V14.01,2012-11-08 04:38:00,
2012-11-07 23:39:00,55.7,51.0,30.03,NNE,17,0.0,5.0,84,0.00,,---,0.00,0.00,VWS V14.01,2012-11-08 04:39:00,
2012-11-07 23:40:00,55.5,50.4,30.02,ENE,66,2.0,5.0,83,0.00,,---,0.00,0.00,VWS V14.01,2012-11-08 04:40:00,
2012-11-07 23:41:00,55.5,50.4,30.02,NNE,18,1.0,5.0,83,0.00,,---,0.00,0.00,VWS V14.01,2012-11-08 04:41:00,
2012-11-07 23:42:00,55.3,50.2,30.02,NE,50,1.0,5.0,83,0.00,,---,0.00,0.00,VWS V14.01,2012-11-08 04:42:00,
2012-11-07 23:43:00,55.3,50.2,30.02,SW,217,1.0,5.0,83,0.00,,---,0.00,0.00,VWS V14.01,2012-11-08 04:43:00,
2012-11-07 23:44:00,55.5,50.4,30.03,NNE,31,0.0,5.0,83,0.00,,---,0.00,0.00,VWS V14.01,2012-11-08 04:44:00,
2012-11-07 23:45:00,55.3,50.2,30.02,ENE,59,2.0,5.0,83,0.00,,---,0.00,0.00,VWS V14.01,2012-11-08 04:45:00,
2012-11-07 23:46:00,55.2,50.1,30.02,NE,46,0.0,5.0,83,0.00,,---,0.00,0.00,VWS V14.01,2012-11-08 04:46:00,
2012-11-07 23:47:00,55.2,50.1,30.02,NE,46,0.0,5.0,83,0.00,,---,0.00,0.00,VWS V14.01,2012-11-08 04:47:00,
2012-11-07 23:48:00,55.1,50.0,30.02,NE,46,0.0,5.0,83,0.00,,---,0.00,0.00,VWS V14.01,2012-11-08 04:48:00,
2012-11-07 23:49:00,55.5,50.4,30.02,ENE,66,2.0,5.0,83,0.00,,---,0.00,0.00,VWS V14.01,2012-11-08 04:49:00,
2012-11-07 23:50:00,55.1,49.7,30.02,ENE,69,0.0,5.0,82,0.00,,---,0.00,0.00,VWS V14.01,2012-11-08 04:50:00,
2012-11-07 23:51:00,55.0,49.6,30.02,East,87,2.0,5.0,82,0.00,,---,0.00,0.00,VWS V14.01,2012-11-08 04:51:00,
2012-11-07 23:52:00,55.0,49.6,30.02,North,3,1.0,5.0,82,0.00,,---,0.00,0.00,VWS V14.01,2012-11-08 04:52:00,
2012-11-07 23:53:00,54.9,49.5,30.02,ENE,64,2.0,5.0,82,0.00,,---,0.00,0.00,VWS V14.01,2012-11-08 04:53:00,
2012-11-07 23:54:00,55.3,50.2,30.02,ENE,59,2.0,5.0,83,0.00,,---,0.00,0.00,VWS V14.01,2012-11-08 04:54:00,
2012-11-07 23:55:00,54.8,49.4,30.02,ENE,69,0.0,5.0,82,0.00,,---,0.00,0.00,VWS V14.01,2012-11-08 04:55:00,
2012-11-07 23:56:00,54.8,49.1,30.02,ENE,69,0.0,5.0,81,0.00,,---,0.00,0.00,VWS V14.01,2012-11-08 04:56:00,
2012-11-07 23:57:00,54.8,49.1,30.02,ENE,69,0.0,5.0,81,0.00,,---,0.00,0.00,VWS V14.01,2012-11-08 04:57:00,
2012-11-07 23:58:00,54.7,49.0,30.02,ENE,68,1.0,5.0,81,0.00,,---,0.00,0.00,VWS V14.01,2012-11-08 04:58:00,
2012-11-07 23:59:00,55.1,49.7,30.02,ENE,69,0.0,5.0,82,0.00,,---,0.00,0.00,VWS V14.01,2012-11-08 04:59:00,